Date StartTime U_cm/s V_cm/s W_cm/s Ustd_cm/s Vstd_cm/s Wstd_cm/s Uvar_(cm/s)^2 Vvar_(cm/s)^2 Wvar_(cm/s)^2 KE_(m/s)^2 TurbulentKE_(m/s)^2 HorizWindSpeed_cm/s FrictionSpeec_cm/s DragCoef SpeedOfSound_m/s SonicTemperature_C Pressure_mb 
06/06/2014  00:00:00     -112.609      -71.301       -7.890       89.271       89.136       30.289     7969.287     7945.160      917.436        1.733        0.842      133.284       35.718        0.072      346.042       24.004      858.230
06/06/2014  00:01:00     -189.329      -87.435       -4.253       88.071       55.994       35.556     7756.540     3135.318     1264.219        2.783        0.608      208.544       42.145        0.041      346.019       23.963      858.221
06/06/2014  00:02:00     -224.133      -71.729       -7.315       87.272       70.989       46.149     7616.434     5039.491     2129.706        3.511        0.739      235.331       50.337        0.046      346.177       24.232      858.184
06/06/2014  00:03:00     -178.617      -59.427        5.260      111.840       87.091       54.261    12508.278     7584.926     2944.275        2.925        1.152      188.243       51.046        0.074      345.985       23.906      858.161
06/06/2014  00:04:00     -216.194     -127.764        0.689      158.303       98.197       69.605    25059.827     9642.732     4844.880        5.130        1.977      251.124       78.360        0.097      346.212       24.293      858.159
06/06/2014  00:05:00     -298.639      -95.237      -11.967      103.032       73.907       44.443    10615.692     5462.295     1975.219        5.822        0.903      313.457       46.249        0.022      346.296       24.437      858.177
06/06/2014  00:06:00     -222.227      -31.345        3.226      106.537       75.904       49.956    11350.064     5761.411     2495.580        3.499        0.980      224.427       53.792        0.057      346.227       24.319      858.168
06/06/2014  00:07:00     -350.755      -75.520       -9.323      106.260       62.569       44.754    11291.220     3914.935     2002.958        7.301        0.860      358.793       47.878        0.018      346.325       24.488      858.149
06/06/2014  00:08:00     -228.663      -39.077       -8.769       76.229       51.645       35.433     5810.860     2667.205     1255.523        3.181        0.487      231.978       33.714        0.021      346.325       24.487      858.135
06/06/2014  00:09:00     -226.977     -113.515        8.975      105.999       62.129       36.814    11235.824     3860.064     1355.274        4.046        0.823      253.780       42.760        0.028      346.183       24.243      858.127
06/06/2014  00:10:00     -204.635     -112.919      -21.963       96.002       56.409       40.196     9216.389     3181.934     1615.680        3.456        0.701      233.723       30.168        0.017      346.197       24.267      858.140
06/06/2014  00:11:00     -113.204      -66.609        7.353      105.466       51.254       34.204    11123.120     2626.988     1169.896        1.611        0.746      131.346       38.138        0.084      346.152       24.192      858.122
06/06/2014  00:12:00     -224.430      -59.200        1.698       68.885       56.951       38.093     4745.137     3243.374     1451.074        3.166        0.472      232.106       33.105        0.020      346.102       24.104      858.122
06/06/2014  00:13:00     -195.292      -39.564       -1.789       75.326       64.279       38.623     5674.028     4131.776     1491.722        2.550        0.565      199.259       41.221        0.043      346.151       24.188      858.120
06/06/2014  00:14:00     -149.767      -69.732       -5.246       71.845       64.485       38.744     5161.756     4158.268     1501.125        1.907        0.541      165.205       35.435        0.046      345.904       23.766      858.118
06/06/2014  00:15:00     -122.767      -23.526        1.261       78.198       60.010       37.223     6114.860     3601.155     1385.519        1.336        0.555      125.001       39.630        0.101      345.714       23.441      858.112
06/06/2014  00:16:00     -160.736       18.991      -10.066       62.959       58.165       30.656     3963.817     3383.114      939.783        1.729        0.414      161.854       31.309        0.037      346.151       24.192      858.104
06/06/2014  00:17:00     -156.286      -66.813        1.197       89.135       60.026       37.433     7945.088     3603.086     1401.222        2.092        0.647      169.969       38.816        0.052      346.097       24.097      858.085
06/06/2014  00:18:00     -159.869      -15.544       -2.990       81.065       43.971       43.918     6571.514     1933.435     1928.786        1.812        0.522      160.623       47.198        0.086      346.163       24.211      858.082
06/06/2014  00:19:00     -206.665      -46.109       -8.663       71.423       33.736       28.391     5101.251     1138.100      806.032        2.598        0.352      211.746       28.331        0.018      345.942       23.830      858.078
06/06/2014  00:20:00     -204.097       10.732      -17.909       55.275       50.879       31.758     3055.296     2588.685     1008.541        2.437        0.333      204.379       27.388        0.018      345.813       23.610      858.077
06/06/2014  00:21:00     -132.354      -50.455      -13.011       65.194       46.271       28.635     4250.207     2140.960      819.948        1.372        0.361      141.645       23.637        0.028      345.613       23.269      858.074
06/06/2014  00:22:00     -173.250      -69.236      -15.625       52.479       46.855       35.336     2754.025     2195.345     1248.624        2.062        0.310      186.573       30.972        0.028      345.281       22.698      858.068
06/06/2014  00:23:00     -173.622      -55.877      -19.230       88.009       66.581       46.003     7745.615     4433.077     2116.292        2.396        0.715      182.392       41.886        0.053      345.137       22.451      858.068
06/06/2014  00:24:00     -178.647      -27.565      -21.101       63.145       48.123       40.628     3987.340     2315.821     1650.662        2.054        0.398      180.762       35.362        0.038      345.026       22.261      858.075
06/06/2014  00:25:00     -138.474       35.016      -19.285       59.152       90.039       23.137     3498.990     8106.936      535.340        1.645        0.607      142.832       18.263        0.016      345.085       22.364      858.065
06/06/2014  00:26:00     -101.455      124.442      -24.236       42.878       86.595       28.726     1838.490     7498.720      825.165        1.826        0.508      160.558       23.089        0.021      345.248       22.642      858.054
06/06/2014  00:27:00     -149.510      -19.401      -15.500       38.915       47.981       28.950     1514.383     2302.177      838.121        1.381        0.233      150.764       26.345        0.031      345.117       22.418      858.037
06/06/2014  00:28:00     -183.808      -42.473      -16.265       43.527       34.664       28.175     1894.597     1201.586      793.851        1.987        0.195      188.652       23.877        0.016      345.404       22.908      858.013
06/06/2014  00:29:00     -127.529      -27.330       -1.713       45.438       40.910       23.908     2064.604     1673.625      571.600        1.066        0.215      130.424       22.088        0.029      345.521       23.111      857.984
06/06/2014  00:30:00     -171.773      -25.872      -11.459       53.322       23.098       20.716     2843.286      533.518      429.143        1.706        0.190      173.711       24.921        0.021      345.498       23.071      857.981
06/06/2014  00:31:00     -255.465       22.541      -17.279       85.555       62.079       28.216     7319.657     3853.806      796.129        3.902        0.598      256.457       27.496        0.011      345.442       22.972      858.014
06/06/2014  00:32:00     -208.470        6.210      -29.649       90.690      124.269       57.054     8224.670    15442.688     3255.165        3.564        1.346      208.563       47.682        0.052      344.715       21.729      858.055
06/06/2014  00:33:00     -150.369      -40.914      -15.693       90.816       72.069       54.340     8247.548     5193.955     2952.835        2.046        0.820      155.835       55.480        0.127      344.616       21.560      858.026
06/06/2014  00:34:00     -145.374      -52.998       -2.535       75.698       75.640       39.762     5730.235     5721.347     1581.044        1.849        0.652      154.734       35.842        0.054      344.698       21.700      857.982
06/06/2014  00:35:00     -134.984      -49.365        2.591       67.046       49.990       29.147     4495.130     2499.028      849.539        1.425        0.392      143.727       29.256        0.041      344.810       21.892      857.965
06/06/2014  00:36:00     -199.661      -79.587       -6.579       55.124       55.866       36.967     3038.627     3121.051     1366.523        2.688        0.376      214.939       30.145        0.020      345.000       22.215      857.975
06/06/2014  00:37:00     -146.919      -21.315       -2.578       76.140       54.236       29.326     5797.339     2941.537      859.990        1.582        0.480      148.457       35.789        0.058      344.812       21.895      857.984
06/06/2014  00:38:00     -171.792       47.224      -12.395       42.351       35.092       23.661     1793.639     1231.483      559.856        1.774        0.179      178.164       17.781        0.010      344.433       21.246      857.988
06/06/2014  00:39:00     -224.260       54.526      -23.578       53.717       45.666       24.824     2885.472     2085.398      616.210        2.970        0.279      230.794       13.155        0.003      344.315       21.043      857.996
06/06/2014  00:40:00     -138.534       76.831      -20.121       49.832       53.766       30.210     2483.198     2890.786      912.624        1.589        0.314      158.413       10.267        0.004      344.345       21.095      857.990
06/06/2014  00:41:00     -126.059      -33.241      -17.594       43.251       57.512       31.093     1870.625     3307.589      966.745        1.172        0.307      130.368       20.558        0.025      344.432       21.246      857.974
06/06/2014  00:42:00     -147.351      -43.871      -23.789       48.129       40.570       28.928     2316.444     1645.942      836.819        1.450        0.240      153.743       23.735        0.024      344.402       21.194      857.961
06/06/2014  00:43:00     -158.268        3.850       -4.848       57.927       37.161       29.237     3355.482     1380.941      854.807        1.534        0.280      158.315       29.641        0.035      344.565       21.474      857.967
06/06/2014  00:44:00     -102.077       15.374       -5.687       48.703       47.361       20.671     2371.985     2243.041      427.303        0.786        0.252      103.228       22.457        0.047      344.529       21.412      857.960
06/06/2014  00:45:00     -127.117       68.042      -19.354       37.980       51.824       19.980     1442.491     2685.726      399.217        1.284        0.226      144.182       20.157        0.020      344.433       21.247      857.978
06/06/2014  00:46:00     -115.736       11.625      -20.036       54.132       57.200       33.592     2930.278     3271.785     1128.453        1.063        0.367      116.319       30.531        0.069      344.469       21.308      857.986
06/06/2014  00:47:00     -169.098       -3.931      -29.793       67.178       47.973       25.715     4512.895     2301.444      661.270        1.848        0.374      169.143       13.795        0.007      344.608       21.546      857.968
06/06/2014  00:48:00     -149.839       66.849      -19.297       43.392       40.670       25.055     1882.868     1654.026      627.735        1.573        0.208      164.075       16.600        0.010      344.594       21.523      857.947
06/06/2014  00:49:00     -132.638       34.486      -16.088       32.165       52.660       23.031     1034.568     2773.111      530.448        1.169        0.217      137.048       14.522        0.011      344.399       21.190      857.952
06/06/2014  00:50:00     -152.998       19.515      -20.364       39.406       34.742       25.614     1552.820     1207.017      656.064        1.381        0.171      154.238       15.701        0.010      344.425       21.234      857.930
06/06/2014  00:51:00     -172.180      -50.220      -19.356       39.010       34.506       26.664     1521.754     1190.668      710.990        1.798        0.171      179.355       14.249        0.006      344.302       21.020      857.918
06/06/2014  00:52:00     -200.905       -7.069      -21.773       40.285       36.585       21.526     1622.857     1338.482      463.366        2.216        0.171      201.029       19.865        0.010      344.243       20.922      857.940
06/06/2014  00:53:00     -163.201       -2.551      -10.915       42.509       51.129       27.790     1807.018     2614.217      772.259        1.598        0.260      163.221       20.490        0.016      344.286       20.997      857.941
06/06/2014  00:54:00     -122.106      -32.389       -6.324       58.057       55.175       27.794     3370.653     3044.301      772.491        1.159        0.359      126.329       32.682        0.067      344.262       20.955      857.946
06/06/2014  00:55:00     -194.332      -19.669      -10.954       26.393       61.542       22.009      696.616     3787.457      484.386        2.162        0.248      195.325       13.788        0.005      344.267       20.963      857.942
06/06/2014  00:56:00     -123.551        3.908      -19.349       37.759       35.114       20.198     1425.740     1232.968      407.951        0.936        0.153      123.613        9.674        0.006      344.314       21.045      857.934
06/06/2014  00:57:00      -98.348       -2.401      -13.139       26.376       32.375       16.037      695.680     1048.165      257.185        0.593        0.100       98.377       11.934        0.015      344.341       21.090      857.924
06/06/2014  00:58:00     -130.724      -13.407      -11.420       47.779       40.860       21.955     2282.796     1669.552      482.021        1.092        0.222      131.410       23.502        0.032      344.330       21.072      857.911
06/06/2014  00:59:00     -133.985        7.960       -6.901       20.407       14.942       11.886      416.460      223.252      141.288        0.942        0.039      134.222        8.033        0.004      344.398       21.189      857.909
06/06/2014  01:00:00     -120.865       -0.952      -13.785       33.335       24.839       19.959     1111.222      616.955      398.369        0.846        0.106      120.868       19.922        0.027      344.293       21.009      857.916
06/06/2014  01:01:00     -120.272        6.055      -13.026       27.629       20.030       13.133      763.369      401.197      172.475        0.800        0.067      120.425        8.982        0.006      344.309       21.036      857.909
06/06/2014  01:02:00      -90.163       13.814       -6.110       25.291       17.719       12.915      639.641      313.957      166.803        0.474        0.056       91.215        9.124        0.010      344.293       21.010      857.904
06/06/2014  01:03:00      -99.479        8.340       -7.494       30.137       26.545       17.374      908.253      704.643      301.845        0.597        0.096       99.828       12.910        0.017      344.373       21.146      857.898
06/06/2014  01:04:00     -132.446       33.308       -7.800       27.753       21.861       16.090      770.238      477.913      258.877        1.011        0.075      136.570       11.224        0.007      344.229       20.900      857.895
06/06/2014  01:05:00     -117.549       18.950       -6.728       28.874       30.617       14.285      833.696      937.431      204.062        0.810        0.099      119.067        8.259        0.005      344.310       21.038      857.877
06/06/2014  01:06:00      -96.833      -31.701       -2.848       26.277       24.436       17.195      690.506      597.125      295.681        0.599        0.079      101.890       14.669        0.021      344.276       20.980      857.865
06/06/2014  01:07:00      -90.118      -28.389       -1.637       25.481       32.762       17.723      649.260     1073.345      314.107        0.548        0.102       94.484        7.966        0.007      344.040       20.576      857.864
06/06/2014  01:08:00     -135.204       -2.063      -11.155       20.570       16.436       15.232      423.136      270.148      232.002        0.967        0.046      135.220        8.679        0.004      344.089       20.661      857.857
06/06/2014  01:09:00      -86.228       10.321       -8.295       31.376       15.491       13.174      984.462      239.958      173.562        0.450        0.070       86.843       14.044        0.026      344.080       20.644      857.854
06/06/2014  01:10:00      -60.604        4.361        0.547       28.792       24.476       11.611      828.974      599.061      134.825        0.263        0.078       60.761       12.031        0.039      344.215       20.876      857.857
06/06/2014  01:11:00      -70.475      -19.985       -4.821       16.853       13.962        8.854      284.010      194.950       78.393        0.297        0.028       73.254        5.540        0.006      344.031       20.558      857.855
06/06/2014  01:12:00      -25.097      -17.939        3.162       10.830       18.237        7.013      117.283      332.581       49.179        0.073        0.025       30.849        3.929        0.016      343.836       20.230      857.855
06/06/2014  01:13:00      -21.142      -26.417        6.026       18.695       12.034       11.482      349.491      144.814      131.840        0.090        0.031       33.835        0.737        0.000      344.013       20.531      857.857
06/06/2014  01:14:00        3.315       15.737        5.195       11.919       15.731        8.502      142.056      247.457       72.285        0.037        0.023       16.082        8.036        0.250      343.903       20.343      857.851
06/06/2014  01:15:00       -4.653       71.999      -12.104       26.166       18.647        8.111      684.660      347.705       65.785        0.322        0.055       72.149        4.843        0.005      344.085       20.653      857.863
06/06/2014  01:16:00      -28.725       46.442      -10.662       13.637        9.484        7.404      185.963       89.955       54.814        0.171        0.017       54.607        4.959        0.008      344.288       21.000      857.874
06/06/2014  01:17:00       -9.592        6.927       -0.749        5.859       14.315        6.298       34.325      204.917       39.666        0.021        0.014       11.832        7.976        0.454      344.306       21.031      857.866
06/06/2014  01:18:00        8.364       19.073        0.227        6.715       20.820        5.079       45.087      433.474       25.794        0.047        0.025       20.827        5.486        0.069      344.423       21.232      857.850
06/06/2014  01:19:00        6.802       63.976       -6.209       13.124       14.127        7.163      172.244      199.585       51.304        0.230        0.021       64.337        5.485        0.007      344.666       21.646      857.853
06/06/2014  01:20:00      -21.214       20.677       -2.246       22.124       31.486        8.220      489.464      991.394       67.568        0.122        0.077       29.624        6.637        0.050      344.665       21.644      857.847
06/06/2014  01:21:00      -72.723      -43.092      -12.254       23.194       15.407        8.988      537.982      237.361       80.778        0.408        0.043       84.531        9.071        0.012      344.007       20.521      857.835
06/06/2014  01:22:00      -60.483      -43.219      -13.338       18.983        9.828        8.113      360.360       96.588       65.814        0.311        0.026       74.338        9.531        0.016      343.824       20.208      857.823
06/06/2014  01:23:00      -22.509      -17.115       -3.515       16.766       15.328        6.775      281.084      234.950       45.895        0.069        0.028       28.277        9.255        0.107      344.605       21.542      857.808
06/06/2014  01:24:00      -56.604       15.618        3.948       10.573        5.124        7.175      111.798       26.255       51.483        0.183        0.009       58.719        4.147        0.005      344.088       20.658      857.831
06/06/2014  01:25:00      -27.358       19.201       -9.336       19.915        6.441        6.539      396.612       41.489       42.765        0.084        0.024       33.424        9.585        0.082      344.439       21.258      857.846
06/06/2014  01:26:00       34.288      -18.565        0.377        9.578       18.418        6.374       91.730      339.211       40.631        0.100        0.024       38.992        4.140        0.011      344.851       21.964      857.843
06/06/2014  01:27:00       16.868       -3.808        7.838        9.417       16.765       12.655       88.682      281.076      160.146        0.045        0.026       17.292        5.928        0.118      344.543       21.435      857.843
06/06/2014  01:28:00       48.122      -15.536        1.258       16.733       30.776       15.841      279.985      947.132      250.936        0.202        0.074       50.568       14.446        0.082      344.315       21.047      857.849
06/06/2014  01:29:00       31.001       15.568       11.034       20.917       28.269       18.583      437.506      799.135      345.324        0.145        0.079       34.690       15.583        0.202      343.820       20.202      857.832
06/06/2014  01:30:00      -18.873      -18.483       -3.577       22.993       12.910        7.210      528.685      166.661       51.989        0.073        0.037       26.416        8.238        0.097      343.869       20.284      857.847
06/06/2014  01:31:00        5.568      -11.911       10.979       21.215       22.684       12.373      450.095      514.559      153.091        0.071        0.056       13.149       13.275        1.019      343.794       20.157      857.820
06/06/2014  01:32:00        1.350      -13.670        6.326       12.399       20.290       17.625      153.727      411.698      310.642        0.055        0.044       13.736       12.064        0.771      343.815       20.192      857.817
06/06/2014  01:33:00      -54.487       16.595       -4.799       22.514       16.700       11.979      506.901      278.906      143.502        0.210        0.046       56.958       13.477        0.056      343.460       19.586      857.832
06/06/2014  01:34:00      -21.296      -21.765       -1.296       25.286       16.456        9.820      639.380      270.785       96.427        0.097        0.050       30.451       13.575        0.199      343.437       19.548      857.815
06/06/2014  01:35:00        4.252       15.452        0.161        9.400       14.793        8.881       88.362      218.828       78.878        0.032        0.019       16.027        7.188        0.201      343.769       20.114      857.802
06/06/2014  01:36:00      -11.256      -26.305      -10.084        9.155       11.284        5.684       83.811      127.321       32.306        0.058        0.012       28.612        5.888        0.042      344.030       20.559      857.798
06/06/2014  01:37:00       -5.347      -41.960       -0.380       16.678       14.649       11.885      278.166      214.601      141.251        0.121        0.032       42.300        6.682        0.025      344.118       20.708      857.797
06/06/2014  01:38:00      -23.108      -24.085       -1.691       16.324       12.861        6.151      266.462      165.409       37.840        0.079        0.023       33.378        6.697        0.040      343.999       20.507      857.795
06/06/2014  01:39:00      -11.557      -23.324       -3.120        8.518       12.715        6.029       72.550      161.662       36.346        0.048        0.014       26.030        4.997        0.037      344.020       20.544      857.806
06/06/2014  01:40:00        1.219      -39.660       -0.066       19.520       15.404       11.977      381.022      237.282      143.449        0.117        0.038       39.679        8.113        0.042      344.032       20.564      857.803
06/06/2014  01:41:00       24.179      -38.900        8.946       21.545       28.142       20.715      464.171      791.971      429.102        0.193        0.084       45.802       21.056        0.211      344.135       20.740      857.803
06/06/2014  01:42:00       27.016       23.901        8.136       13.103       13.377       15.631      171.676      178.949      244.322        0.098        0.030       36.071        7.975        0.049      343.446       19.564      857.812
06/06/2014  01:43:00       21.639       13.414        6.196       14.364        7.047        8.508      206.337       49.656       72.381        0.051        0.016       25.460        7.909        0.097      343.421       19.520      857.828
06/06/2014  01:44:00       22.304       -4.455        5.879       12.628       16.569       11.105      159.473      274.517      123.325        0.055        0.028       22.744        8.727        0.147      343.556       19.750      857.843
06/06/2014  01:45:00       18.091      -58.041       -2.054       24.808       23.872       11.087      615.458      569.854      122.931        0.250        0.065       60.795       11.305        0.035      343.844       20.243      857.846
06/06/2014  01:46:00       66.712      -96.605       -6.023       25.239       28.568       16.962      637.015      816.148      287.717        0.778        0.087      117.401       11.880        0.010      344.283       20.992      857.831
06/06/2014  01:47:00       48.176      -95.595       -7.026       42.293       27.769       25.054     1788.703      771.143      627.694        0.735        0.159      107.048       26.470        0.061      344.125       20.723      857.833
06/06/2014  01:48:00       25.036      -36.731       15.049       28.802       35.972       20.563      829.570     1294.011      422.846        0.237        0.127       44.452       17.643        0.158      344.075       20.637      857.848
06/06/2014  01:49:00       -7.512      -13.920        9.639       10.017        6.746        8.105      100.339       45.506       65.699        0.028        0.011       15.817        3.321        0.044      343.692       19.982      857.856
06/06/2014  01:50:00       40.225      -42.542        4.616       31.339       26.949       14.255      982.133      726.274      203.216        0.268        0.096       58.547       11.244        0.037      343.958       20.437      857.855
06/06/2014  01:51:00       73.261      -42.381        5.308       24.979       23.954       17.821      623.927      573.806      317.570        0.435        0.076       84.636       13.607        0.026      344.137       20.743      857.859
06/06/2014  01:52:00       55.096      -33.431        4.920       23.946       20.203       14.044      573.416      408.142      197.244        0.268        0.059       64.445       12.059        0.035      344.109       20.694      857.857
06/06/2014  01:53:00       39.932      -45.954        2.317       33.477       26.822       15.554     1120.733      719.437      241.930        0.290        0.104       60.880       11.395        0.035      344.087       20.657      857.853
06/06/2014  01:54:00      -22.259      -27.843        3.489       17.042       15.012       13.247      290.418      225.352      175.490        0.099        0.035       35.647        9.463        0.070      343.954       20.429      857.838
06/06/2014  01:55:00       -0.560       -4.161        7.259       22.322       13.052       12.155      498.277      170.345      147.745        0.044        0.041        4.199        8.862        4.455      343.804       20.174      857.848
06/06/2014  01:56:00        4.828       -5.403        1.314       19.649       18.098        9.618      386.097      327.528       92.512        0.043        0.040        7.246       10.921        2.272      343.800       20.167      857.848
06/06/2014  01:57:00      -16.572      -22.056        6.443       25.305       28.657       15.330      640.366      821.252      235.010        0.125        0.085       27.588       12.623        0.209      343.868       20.282      857.833
06/06/2014  01:58:00        0.330      -34.730        0.385       22.685       16.827       12.045      514.607      283.134      145.088        0.107        0.047       34.732       10.985        0.100      343.902       20.340      857.823
06/06/2014  01:59:00      -41.929      -22.218        2.095       30.136       20.937       15.233      908.194      438.369      232.029        0.192        0.079       47.452        9.139        0.037      343.980       20.475      857.834
06/06/2014  02:00:00      -64.047      -33.178       -8.985       20.681       16.787       11.658      427.706      281.811      135.914        0.306        0.042       72.131        9.800        0.018      343.988       20.488      857.837
06/06/2014  02:01:00      -67.565      -13.026       -5.210       20.228       15.620       10.884      409.185      243.995      118.460        0.277        0.039       68.809        6.298        0.008      343.253       19.235      857.842
06/06/2014  02:02:00      -44.974       18.042        1.802       16.120       15.502        8.907      259.857      240.299       79.337        0.147        0.029       48.458        4.555        0.009      343.643       19.900      857.852
06/06/2014  02:03:00      -24.014      -44.243       -1.827       14.217       55.399       10.476      202.135     3068.995      109.750        0.296        0.169       50.340       11.581        0.053      343.938       20.403      857.858
06/06/2014  02:04:00      -74.565      -91.121       -9.179       40.546       38.724       27.720     1643.967     1499.520      768.384        0.893        0.196      117.742       26.899        0.052      344.189       20.831      857.844
06/06/2014  02:05:00      -41.532      -30.904       12.818       39.733       45.355       21.249     1578.748     2057.041      451.528        0.346        0.204       51.768       19.805        0.146      343.894       20.327      857.845
06/06/2014  02:06:00      -32.413        0.524       -5.842       17.308       47.187       13.081      299.570     2226.608      171.101        0.189        0.135       32.417        9.177        0.080      343.919       20.370      857.860
06/06/2014  02:07:00       20.869      -50.773        3.661       22.598       22.040       12.013      510.684      485.748      144.312        0.208        0.057       54.895        6.964        0.016      344.142       20.751      857.824
06/06/2014  02:08:00      -80.480     -115.165       -0.992       88.785       50.637       37.882     7882.818     2564.149     1435.009        1.581        0.594      140.499       30.334        0.047      344.411       21.210      857.812
06/06/2014  02:09:00      -58.488        1.015       14.221       76.374       32.195       29.021     5832.925     1036.510      842.238        0.567        0.386       58.496       33.121        0.321      344.336       21.083      857.808
06/06/2014  02:10:00      -81.472      -24.405       -4.262       34.865       37.717       13.926     1215.567     1422.603      193.942        0.504        0.142       85.049       12.425        0.021      343.811       20.185      857.834
06/06/2014  02:11:00      -23.867      114.909        2.973       45.042      100.689       30.791     2028.788    10138.308      948.090        1.345        0.656      117.362       47.771        0.166      343.707       20.006      857.882
06/06/2014  02:12:00        3.103      208.691      -31.088       44.113       28.625       18.790     1945.998      819.365      353.054        2.382        0.156      208.714       16.692        0.006      343.774       20.120      857.905
06/06/2014  02:13:00      102.895       39.253       -7.836       60.378       57.180       26.235     3645.557     3269.555      688.263        0.989        0.380      110.128       21.177        0.037      344.209       20.867      857.866
06/06/2014  02:14:00       32.657      -48.520       -2.116       33.355       53.407       32.189     1112.581     2852.277     1036.153        0.421        0.250       58.486       29.020        0.246      344.820       21.910      857.804
06/06/2014  02:15:00      -38.684       10.051       13.071       65.986       45.099       22.837     4354.123     2033.890      521.508        0.434        0.345       39.969       30.348        0.577      344.133       20.736      857.816
06/06/2014  02:16:00      -61.443       56.210        0.014       52.524       49.696       34.881     2758.721     2469.681     1216.658        0.669        0.322       83.275       26.967        0.105      343.666       19.938      857.841
06/06/2014  02:17:00     -106.493       78.493      -14.516       37.723       37.873       28.714     1422.992     1434.350      824.519        1.070        0.184      132.295       23.304        0.031      343.703       20.002      857.866
06/06/2014  02:18:00      -78.678       99.646      -16.437       40.205       20.507       19.388     1616.421      420.554      375.876        0.940        0.121      126.963       21.001        0.027      343.843       20.241      857.861
06/06/2014  02:19:00       76.949       73.920        3.190       34.477       20.121       16.559     1188.679      404.842      274.214        0.663        0.093      106.702        9.177        0.007      343.586       19.801      857.822
06/06/2014  02:20:00       77.304       25.193        5.817       40.008       23.997       21.215     1600.647      575.866      450.087        0.463        0.131       81.305       16.431        0.041      343.513       19.677      857.795
06/06/2014  02:21:00       11.460       89.095      -11.222       23.893       38.428       17.514      570.856     1476.682      306.727        0.527        0.118       89.829       19.907        0.049      343.864       20.277      857.815
06/06/2014  02:22:00      -73.897       26.462      -12.357       18.001       33.007       13.489      324.036     1089.487      181.965        0.395        0.080       78.492        6.224        0.006      343.571       19.776      857.839
06/06/2014  02:23:00      -94.387       -4.011      -13.632       36.086       31.469       19.032     1302.198      990.296      362.225        0.588        0.133       94.472       15.262        0.026      343.193       19.134      857.838
06/06/2014  02:24:00     -102.276      -17.000      -20.842       37.635       30.347       18.648     1416.385      920.950      347.739        0.693        0.134      103.679       13.527        0.017      343.125       19.016      857.818
06/06/2014  02:25:00      -18.863      -15.545        3.283       24.775       25.858       12.873      613.792      668.630      165.706        0.103        0.072       24.443        9.206        0.142      343.104       18.980      857.789
06/06/2014  02:26:00       30.076       31.888        0.444       16.915       18.370       16.039      286.127      337.469      257.254        0.140        0.044       43.834       13.773        0.099      343.325       19.356      857.787
06/06/2014  02:27:00       30.734        0.555       -2.872       19.570       13.662       11.066      383.000      186.641      122.464        0.082        0.035       30.739        8.419        0.075      343.410       19.501      857.787
06/06/2014  02:28:00      -53.117       28.006       -5.155       42.607       24.636       18.006     1815.396      606.945      324.211        0.319        0.137       60.048       20.680        0.119      343.431       19.537      857.808
06/06/2014  02:29:00      -44.475       50.206       -4.487       38.655       22.777       22.062     1494.207      518.788      486.742        0.351        0.125       67.072       19.785        0.087      343.493       19.643      857.822
06/06/2014  02:30:00      -35.064       12.435       -9.115       17.534       37.729       10.832      307.438     1423.460      117.340        0.166        0.092       37.204        9.022        0.059      343.464       19.595      857.812
06/06/2014  02:31:00        5.001      -24.963        2.734       15.421       16.575       12.871      237.821      274.725      165.661        0.067        0.034       25.459        4.569        0.032      343.546       19.734      857.792
06/06/2014  02:32:00       17.009      -25.290        2.090       14.326       32.690       23.537      205.234     1068.639      554.001        0.138        0.091       30.478       25.037        0.675      343.526       19.699      857.767
06/06/2014  02:33:00      -28.494       44.180        4.056       88.018       16.557       23.544     7747.121      274.119      554.340        0.568        0.429       52.571       42.685        0.659      343.526       19.699      857.779
06/06/2014  02:34:00      -65.069        9.438      -14.257       48.344       40.959       20.853     2337.099     1677.608      434.828        0.449        0.222       65.750       13.546        0.042      342.959       18.734      857.793
06/06/2014  02:35:00      -19.678       76.915      -10.921       16.967       28.214       10.739      287.872      796.015      115.331        0.381        0.060       79.392        7.926        0.010      343.513       19.677      857.781
06/06/2014  02:36:00      -12.467       37.991       -5.501       28.404       35.105       11.553      806.778     1232.340      133.465        0.190        0.109       39.984        5.446        0.019      343.937       20.401      857.750
06/06/2014  02:37:00       13.168      -26.434        0.477       32.055       13.319        8.030     1027.546      177.393       64.482        0.107        0.063       29.532        4.935        0.028      343.882       20.308      857.728
06/06/2014  02:38:00      -60.220       40.815      -11.277       71.043       37.895       22.848     5047.103     1436.026      522.016        0.621        0.350       72.748       25.726        0.125      343.435       19.544      857.739
06/06/2014  02:39:00     -146.338       92.696      -36.787       82.292       58.345       30.903     6771.958     3404.185      955.014        2.124        0.557      173.226       43.603        0.063      344.019       20.539      857.771
06/06/2014  02:40:00       -0.669       37.288        0.643       33.144       28.307       17.857     1098.523      801.295      318.874        0.180        0.111       37.294       16.680        0.200      344.240       20.919      857.743
06/06/2014  02:41:00      -87.537      -33.542      -15.530       32.344       38.168       17.323     1046.132     1456.830      300.103        0.592        0.140       93.743        8.485        0.008      343.330       19.364      857.737
06/06/2014  02:42:00      -52.359      -29.430       -7.136       12.716       25.305        9.338      161.699      640.325       87.195        0.227        0.044       60.063        7.553        0.016      343.371       19.436      857.733
06/06/2014  02:43:00      -63.907        1.573      -13.335       43.632       12.439        9.630     1903.737      154.736       92.729        0.321        0.108       63.926       13.890        0.047      343.278       19.277      857.743
06/06/2014  02:44:00      -55.892       19.381       -1.991       60.090       16.948        9.100     3610.798      287.226       82.816        0.374        0.199       59.156       19.139        0.105      343.808       20.181      857.751
06/06/2014  02:45:00      -92.256      -10.824      -19.841       27.337       23.690        7.853      747.293      561.209       61.664        0.520        0.069       92.889       11.462        0.015      343.242       19.216      857.772
06/06/2014  02:46:00       32.733      -24.247        0.120       46.371       13.467       11.839     2150.257      181.361      140.157        0.207        0.124       40.735       18.986        0.217      344.304       21.028      857.762
06/06/2014  02:47:00       12.562      -26.657        0.177       53.572       14.135       11.256     2870.005      199.810      126.705        0.203        0.160       29.469       17.844        0.367      344.173       20.804      857.759
06/06/2014  02:48:00      -97.257      -35.958       -7.244       23.733       29.644       16.772      563.251      878.774      281.301        0.626        0.086      103.692       15.119        0.021      342.988       18.782      857.779
06/06/2014  02:49:00     -122.568      -37.883       -3.083       32.563       25.773       17.285     1060.367      664.223      298.777        0.925        0.101      128.289       15.785        0.015      342.880       18.600      857.785
06/06/2014  02:50:00     -163.298       20.378      -15.826       22.221       20.352       12.060      493.777      414.195      145.442        1.419        0.053      164.564        6.553        0.002      342.763       18.398      857.803
06/06/2014  02:51:00     -104.121       10.807      -13.122       27.016       13.181       10.149      729.861      173.730      102.996        0.607        0.050      104.680        7.072        0.005      343.121       19.009      857.790
06/06/2014  02:52:00      -43.566       18.114       -0.071       27.060       13.472       10.181      732.243      181.498      103.661        0.162        0.051       47.181       13.542        0.082      342.981       18.772      857.793
06/06/2014  02:53:00       38.030       35.723       16.710       21.840       17.790       16.172      477.005      316.476      261.532        0.203        0.053       52.177        9.300        0.032      342.613       18.145      857.795
06/06/2014  02:54:00       38.873       10.696        4.990       15.743       23.006       21.354      247.827      529.267      455.995        0.144        0.062       40.318       18.213        0.204      342.813       18.486      857.786
06/06/2014  02:55:00        9.589        4.627       -1.365       13.962        7.231       10.634      194.942       52.285      113.086        0.024        0.018       10.647        5.019        0.222      343.157       19.071      857.791
06/06/2014  02:56:00      -41.099        7.869       -6.613       21.418       15.374        8.842      458.745      236.364       78.186        0.128        0.039       41.845        7.737        0.034      343.113       18.995      857.803
06/06/2014  02:57:00       -6.779      -11.866       -5.463       25.184       13.849        8.306      634.253      191.786       68.992        0.056        0.045       13.666       10.623        0.604      342.764       18.402      857.793
06/06/2014  02:58:00       -3.204      -18.295        2.575       15.485       10.934       13.205      239.784      119.550      174.360        0.044        0.027       18.573        8.840        0.227      343.081       18.942      857.785
06/06/2014  02:59:00       -1.756      -18.792       15.321        8.917       23.609       10.026       79.520      557.365      100.516        0.066        0.037       18.874        8.504        0.203      342.933       18.688      857.786
06/06/2014  03:00:00      -16.144        1.741        3.837       12.767       24.384       12.363      163.008      594.567      152.856        0.059        0.046       16.238       11.440        0.496      342.911       18.653      857.794
06/06/2014  03:01:00      -35.648       38.792       -5.891        9.377       10.944        4.573       87.929      119.765       20.915        0.152        0.011       52.684        3.061        0.003      343.075       18.932      857.809
06/06/2014  03:02:00      -23.062       15.688        0.041       16.744       16.178        8.822      280.376      261.724       77.835        0.070        0.031       27.892       12.845        0.212      343.002       18.808      857.818
06/06/2014  03:03:00       18.004       -8.293       -0.895       20.517       13.439       15.439      420.943      180.609      238.361        0.062        0.042       19.822       12.433        0.393      342.797       18.458      857.809
06/06/2014  03:04:00       34.910      -37.474      -12.123       18.957       18.803       20.789      359.373      353.540      432.182        0.196        0.057       51.215       11.080        0.047      342.737       18.356      857.803
06/06/2014  03:05:00      -16.774      -20.652        1.164       27.853        9.387       11.160      775.787       88.123      124.541        0.085        0.049       26.606       13.685        0.265      342.780       18.430      857.808
06/06/2014  03:06:00      -41.633      -25.325       -6.892        7.496        5.340        5.183       56.190       28.512       26.864        0.127        0.006       48.731        2.787        0.003      342.642       18.196      857.805
06/06/2014  03:07:00      -36.588       -1.055       -3.315       19.812       14.760        9.841      392.522      217.844       96.844        0.103        0.035       36.603        8.763        0.057      343.037       18.867      857.795
06/06/2014  03:08:00       18.976        6.826       11.698       12.819       13.809       19.615      164.327      190.701      384.751        0.064        0.037       20.167       15.143        0.564      343.051       18.892      857.804
06/06/2014  03:09:00        9.815       -7.557       -2.816       15.895       16.998       20.319      252.643      288.935      412.862        0.056        0.048       12.387       11.289        0.831      342.595       18.114      857.811
06/06/2014  03:10:00       28.639       18.038       19.437       16.739       16.550       13.531      280.201      273.898      183.101        0.113        0.037       33.846        9.950        0.086      342.776       18.423      857.843
06/06/2014  03:11:00       35.001       38.677       19.488       14.790       20.433       28.006      218.748      417.505      784.350        0.226        0.071       52.163       13.152        0.064      342.878       18.596      857.854
06/06/2014  03:12:00       25.595       57.876       -1.120       25.276       29.473       25.171      638.874      868.647      633.571        0.307        0.107       63.283       18.265        0.083      342.874       18.590      857.856
06/06/2014  03:13:00       12.925       -2.793        0.830       25.934       21.915       22.056      672.575      480.272      486.458        0.091        0.082       13.223       12.345        0.872      342.504       17.960      857.822
06/06/2014  03:14:00       11.782       20.072        0.419       21.351       19.035       16.095      455.853      362.344      259.038        0.081        0.054       23.274       12.485        0.288      342.493       17.943      857.834
06/06/2014  03:15:00       -8.928       82.153      -10.069       23.559       39.040       10.967      555.025     1524.129      120.266        0.456        0.110       82.637       15.746        0.036      342.800       18.463      857.854
06/06/2014  03:16:00        0.730      128.711      -15.204       20.468       20.259        9.178      418.958      410.414       84.240        0.886        0.046      128.713        8.496        0.004      343.283       19.285      857.867
06/06/2014  03:17:00       49.651      -12.942       -2.506       27.010       38.488       20.160      729.553     1481.352      406.417        0.263        0.131       51.310       11.548        0.051      342.926       18.678      857.859
06/06/2014  03:18:00       61.500      -23.947       14.212       32.026       41.885       30.492     1025.681     1754.393      929.790        0.413        0.185       65.998       31.100        0.222      342.669       18.240      857.830
06/06/2014  03:19:00       25.201       35.167        3.460       21.887       45.745       23.855      479.053     2092.622      569.043        0.251        0.157       43.264       20.936        0.234      342.481       17.921      857.839
06/06/2014  03:20:00      -22.157       24.118      -14.288       26.666       19.031       13.828      711.069      362.180      191.201        0.127        0.063       32.751       12.938        0.156      342.479       17.917      857.874
06/06/2014  03:21:00      -63.442       17.220      -12.453       10.578       11.221        8.779      111.889      125.907       77.073        0.240        0.016       65.738        4.046        0.004      342.526       17.996      857.882
06/06/2014  03:22:00      -44.507       45.876      -13.683       14.837       11.492        5.468      220.128      132.075       29.901        0.233        0.019       63.918        3.815        0.004      342.875       18.591      857.883
06/06/2014  03:23:00        0.970       46.859        0.124       21.215       18.725       12.338      450.064      350.620      152.216        0.157        0.048       46.869       10.554        0.051      342.984       18.776      857.885
06/06/2014  03:24:00        4.427       24.193       16.713       13.219       23.088       13.658      174.732      533.060      186.539        0.089        0.045       24.594       14.970        0.370      342.771       18.414      857.860
06/06/2014  03:25:00       20.553      -15.597       12.726       26.687       18.525       16.796      712.221      343.175      282.103        0.108        0.067       25.802       12.922        0.251      342.337       17.676      857.818
06/06/2014  03:26:00       -1.037      -10.187        4.755       21.514       13.091       12.914      462.861      171.364      166.781        0.046        0.040       10.240       14.644        2.045      342.270       17.562      857.818
06/06/2014  03:27:00      -57.699        2.678       -9.246       12.524        9.432       10.403      156.853       88.966      108.229        0.189        0.018       57.761        5.472        0.009      342.186       17.419      857.830
06/06/2014  03:28:00      -39.361      -15.210       -4.205       23.901       17.021        9.036      571.237      289.706       81.642        0.137        0.047       42.198       12.762        0.091      342.323       17.651      857.817
06/06/2014  03:29:00      -11.009      -59.611       -9.198       30.325       20.553       13.611      919.599      422.441      185.258        0.264        0.076       60.619       15.133        0.062      342.273       17.567      857.784
06/06/2014  03:30:00      -28.961       24.907       -9.257       38.963       28.019       18.081     1518.110      785.052      326.905        0.209        0.132       38.198       14.755        0.149      342.581       18.091      857.783
06/06/2014  03:31:00       16.975       22.192        7.859       22.034       17.453       20.909      485.508      304.617      437.195        0.103        0.061       27.940       11.251        0.162      342.497       17.948      857.811
06/06/2014  03:32:00      -22.447      -20.922       -3.611       19.793       21.952       10.344      391.754      481.876      107.001        0.097        0.049       30.686       12.609        0.169      342.529       18.003      857.817
06/06/2014  03:33:00     -113.501      -34.483       -4.440       86.927       37.629       21.838     7556.327     1415.919      476.906        1.177        0.472      118.624       30.043        0.064      342.015       17.130      857.817
06/06/2014  03:34:00     -136.614      -57.427       -9.025       34.714       20.002       12.602     1205.032      400.083      158.815        1.190        0.088      148.193       13.414        0.008      342.086       17.249      857.834
06/06/2014  03:35:00      -74.430      -57.108       -5.331       17.852       18.338       16.259      318.701      336.286      264.361        0.487        0.046       93.815       12.625        0.018      342.158       17.373      857.850
06/06/2014  03:36:00      -52.190      -47.334       -0.922       23.151       18.694       16.453      535.948      349.484      270.713        0.306        0.058       70.458       11.645        0.027      342.280       17.580      857.856
06/06/2014  03:37:00      -78.036      -55.179       -3.070       30.442       21.541       15.796      926.713      464.022      249.517        0.539        0.082       95.573       12.842        0.018      342.393       17.772      857.872
06/06/2014  03:38:00      -63.849      -31.899       -1.275       26.998       21.420       15.639      728.907      458.802      244.568        0.326        0.072       71.374       15.491        0.047      342.615       18.148      857.899
06/06/2014  03:39:00      -22.093      -26.764       -1.434       26.324       23.313       15.330      692.955      543.490      234.995        0.134        0.074       34.705       12.616        0.132      342.580       18.087      857.930
06/06/2014  03:40:00      -84.183      -58.403       -2.994       36.931       25.624       16.554     1363.873      656.589      274.050        0.640        0.115      102.459       17.893        0.030      342.719       18.326      857.938
06/06/2014  03:41:00     -101.991      -37.496       -0.541       32.754       24.723       17.409     1072.808      611.249      303.086        0.690        0.099      108.665       15.159        0.019      342.556       18.048      857.945
06/06/2014  03:42:00     -108.465      -38.623       -2.497       21.187       20.626       16.321      448.886      425.430      266.375        0.720        0.057      115.136       10.651        0.009      342.346       17.692      857.963
06/06/2014  03:43:00      -98.657      -32.265       -0.214       24.264       27.184       17.016      588.749      738.965      289.546        0.620        0.081      103.799       16.713        0.026      342.315       17.637      857.967
06/06/2014  03:44:00      -85.534      -31.403       -4.088       17.307       16.216       11.644      299.532      262.967      135.588        0.451        0.035       91.117        8.427        0.009      342.241       17.513      857.960
06/06/2014  03:45:00      -66.980      -41.513        1.887       30.877       18.491       16.360      953.404      341.904      267.647        0.389        0.078       78.801       13.799        0.031      342.187       17.422      857.953
06/06/2014  03:46:00      -99.748      -14.714        7.525       33.931       32.907       19.381     1151.284     1082.841      375.628        0.642        0.130      100.827       20.233        0.040      342.211       17.461      857.956
06/06/2014  03:47:00     -109.546       14.480       -5.508       29.123       28.969       13.629      848.124      839.214      185.761        0.706        0.094      110.499       13.484        0.015      342.125       17.317      857.970
06/06/2014  03:48:00     -106.927      -10.967       -3.091       33.508       31.593       20.858     1122.805      998.092      435.070        0.706        0.128      107.488       18.233        0.029      342.036       17.166      857.985
06/06/2014  03:49:00      -83.053      -21.898        1.406       45.745       28.433       18.243     2092.643      808.456      332.789        0.531        0.162       85.891       18.472        0.046      342.008       17.117      857.990
06/06/2014  03:50:00      -12.117      -35.928        7.684       25.168       20.521       17.417      633.430      421.119      303.359        0.143        0.068       37.916       12.213        0.104      342.057       17.202      857.977
06/06/2014  03:51:00       37.439       28.205      -11.751       29.991       35.607       15.929      899.479     1267.861      253.743        0.238        0.121       46.874        9.476        0.041      341.788       16.743      857.973
06/06/2014  03:52:00      -15.739       32.277       -9.213       35.022       36.283       10.365     1226.536     1316.481      107.436        0.201        0.133       35.910        9.548        0.071      342.151       17.359      857.990
06/06/2014  03:53:00      -89.122      -42.488       -5.434       22.663       22.648       13.114      513.597      512.928      171.969        0.549        0.060       98.732        8.392        0.007      342.283       17.584      857.997
06/06/2014  03:54:00      -14.163       16.290       21.285       42.201       35.864       21.567     1780.909     1286.191      465.143        0.222        0.177       21.586       17.463        0.654      342.067       17.216      857.990
06/06/2014  03:55:00       65.771       26.120        4.171       16.467       21.352       11.597      271.162      455.912      134.493        0.294        0.043       70.768        8.290        0.014      342.134       17.332      857.985
06/06/2014  03:56:00       40.530      -64.140        1.960       32.513       43.650       23.054     1057.082     1905.299      531.478        0.463        0.175       75.872       18.671        0.061      342.206       17.453      857.968
06/06/2014  03:57:00      -57.241      -15.362        2.703       39.062       34.054       16.034     1525.809     1159.676      257.094        0.323        0.147       59.266       13.160        0.049      342.703       18.298      857.983
06/06/2014  03:58:00     -203.214       31.680      -26.288       53.886       35.578       24.697     2903.718     1265.774      609.962        2.388        0.239      205.668       16.692        0.007      341.924       16.973      858.022
06/06/2014  03:59:00       -7.610      -31.513        0.976       58.072       24.930       19.906     3372.322      621.524      396.236        0.272        0.220       32.419       23.369        0.520      342.282       17.582      857.980
06/06/2014  04:00:00       41.996      -53.110      -10.166       38.852       44.189       29.438     1509.457     1952.662      866.585        0.451        0.216       67.708       23.543        0.121      342.133       17.329      857.932
06/06/2014  04:01:00      -43.043       18.228       -4.351       27.202       27.113       18.371      739.960      735.088      337.478        0.201        0.091       46.744       13.760        0.087      342.220       17.478      857.978
06/06/2014  04:02:00      -76.965       11.193       -4.031       19.710       35.956       17.597      388.482     1292.842      309.655        0.403        0.100       77.774       16.764        0.046      342.082       17.241      857.996
06/06/2014  04:03:00      -71.996      -37.939      -12.358       47.871       30.237       23.580     2291.602      914.299      556.029        0.527        0.188       81.381       17.646        0.047      341.996       17.097      857.994
06/06/2014  04:04:00     -106.934      -22.241       -8.407       40.599       23.564       14.135     1648.241      555.285      199.809        0.720        0.120      109.222       16.237        0.022      341.975       17.060      858.012
06/06/2014  04:05:00      -56.694      -14.047       -9.773       10.437       15.162        6.902      108.924      229.876       47.636        0.195        0.019       58.408        5.074        0.008      342.087       17.253      858.008
06/06/2014  04:06:00      -47.990      -24.817       -0.603       17.862       13.856        7.918      319.067      191.991       62.700        0.175        0.029       54.027        8.691        0.026      342.220       17.479      858.017
06/06/2014  04:07:00      -43.199      -18.266       -4.178       10.668        9.318        6.807      113.814       86.822       46.329        0.123        0.012       46.902        3.889        0.007      342.287       17.588      858.033
06/06/2014  04:08:00      -34.998       -6.224       -2.959       11.649        9.954        7.146      135.701       99.087       51.060        0.078        0.014       35.547        7.770        0.048      342.363       17.720      858.044
06/06/2014  04:09:00       12.595      -19.145        8.084       43.106        9.698       15.590     1858.118       94.060      243.051        0.139        0.110       22.916       18.461        0.649      342.360       17.714      858.043
06/06/2014  04:10:00       49.888      -25.699       -3.281       19.874       16.741       17.847      394.972      280.266      318.509        0.208        0.050       56.119        8.825        0.025      342.362       17.720      858.036
06/06/2014  04:11:00       29.176      -33.883       -8.331       19.610       18.414       15.662      384.550      339.068      245.304        0.152        0.048       44.714       11.954        0.071      342.258       17.543      858.053
06/06/2014  04:12:00       12.697      -18.176        8.440       17.084       12.942       18.953      291.850      167.487      359.223        0.069        0.041       22.172       12.981        0.343      342.172       17.395      858.058
06/06/2014  04:13:00      -35.816      -23.459      -10.324       20.427       27.062       14.320      417.245      732.326      205.059        0.165        0.068       42.815       13.279        0.096      341.982       17.073      858.041
06/06/2014  04:14:00      -64.759      -11.610       -6.856       20.964       19.189       14.156      439.509      368.200      200.403        0.269        0.050       65.791       12.492        0.036      342.042       17.177      858.043
06/06/2014  04:15:00     -100.933        9.670      -11.076       27.233       17.285       12.699      741.659      298.754      161.273        0.580        0.060      101.395       13.283        0.017      341.941       17.002      858.066
06/06/2014  04:16:00     -129.191      -25.201      -17.207       24.949       33.771       11.663      622.470     1140.481      136.029        0.976        0.095      131.626       13.149        0.010      341.754       16.686      858.081
06/06/2014  04:17:00     -144.656      -38.783       -9.990       19.485       20.134       15.270      379.684      405.383      233.172        1.177        0.051      149.765       10.055        0.005      341.757       16.692      858.072
06/06/2014  04:18:00     -150.201      -31.955      -12.423       17.658       21.925       10.989      311.789      480.695      120.750        1.232        0.046      153.562        8.114        0.003      341.776       16.722      858.067
06/06/2014  04:19:00     -118.433      -36.853       -7.140       29.039       30.312       23.250      843.283      918.829      540.552        0.887        0.115      124.035       19.580        0.025      341.599       16.424      858.078
06/06/2014  04:20:00      -81.677      -10.132       -4.135       30.723       20.564       14.311      943.874      422.881      204.796        0.418        0.079       82.303       16.388        0.040      341.545       16.332      858.083
06/06/2014  04:21:00      -62.743       -8.753       -1.908       23.585       14.229       10.515      556.268      202.475      110.567        0.244        0.043       63.351       11.190        0.031      341.785       16.738      858.088
06/06/2014  04:22:00      -96.931      -43.177       -2.891       35.737       26.239       13.892     1277.156      688.482      192.997        0.671        0.108      106.113       16.636        0.025      341.790       16.747      858.079
06/06/2014  04:23:00     -153.825      -50.716       -8.997       15.072       17.355       12.499      227.155      301.194      156.214        1.350        0.034      161.970        9.004        0.003      341.770       16.714      858.075
06/06/2014  04:24:00     -124.582      -25.274       -5.308       17.956       18.219       10.646      322.420      331.934      113.347        0.848        0.038      127.120        5.498        0.002      341.830       16.814      858.087
06/06/2014  04:25:00      -94.524      -22.071        0.403       19.436       17.761       10.337      377.775      315.450      106.854        0.511        0.040       97.066        7.857        0.007      341.977       17.065      858.105
06/06/2014  04:26:00      -88.942      -17.401       -6.377       15.148       17.285       10.873      229.450      298.767      118.212        0.445        0.032       90.628        7.155        0.006      341.935       16.994      858.108
06/06/2014  04:27:00      -70.254      -12.837       -4.106       20.761       14.731       10.804      431.010      216.998      116.721        0.294        0.038       71.417        7.299        0.010      342.099       17.273      858.105
06/06/2014  04:28:00      -54.632       -5.460       -0.231       17.833       12.879        8.957      318.017      165.874       80.221        0.179        0.028       54.904        7.463        0.018      341.841       16.834      858.106
06/06/2014  04:29:00      -48.061       -6.269       -7.253       13.870       11.663        8.085      192.365      136.028       65.372        0.140        0.020       48.468        5.235        0.012      342.002       17.107      858.108
06/06/2014  04:30:00      -12.884       -4.740        0.739       11.624        7.210        8.422      135.121       51.983       70.923        0.022        0.013       13.728        8.356        0.370      342.187       17.422      858.125
06/06/2014  04:31:00       -9.944        3.020        1.670       10.021        9.222        7.330      100.415       85.047       53.735        0.017        0.012       10.393        3.888        0.140      342.012       17.125      858.139
06/06/2014  04:32:00       -7.908      -16.535       -4.113       20.191        9.121        5.876      407.661       83.185       34.526        0.044        0.026       18.329        6.041        0.109      342.074       17.229      858.158
06/06/2014  04:33:00       12.418      -10.583        8.547       18.931       16.825       15.158      358.398      283.083      229.779        0.061        0.044       16.316        9.928        0.370      341.993       17.091      858.160
06/06/2014  04:34:00       31.841       -9.365       17.947       29.624       23.283       19.568      877.588      542.095      382.926        0.161        0.090       33.190       17.314        0.272      341.940       17.002      858.154
06/06/2014  04:35:00        6.789        4.402       16.763       10.989       15.385       12.416      120.756      236.696      154.163        0.043        0.026        8.092       11.681        2.084      341.977       17.065      858.158
06/06/2014  04:36:00       -1.847       24.667       30.154       16.608       13.497       14.363      275.840      182.170      206.289        0.109        0.033       24.736        7.636        0.095      341.962       17.041      858.153
06/06/2014  04:37:00       40.387       -1.117       14.929       16.866       19.248       17.773      284.446      370.481      315.875        0.141        0.049       40.402        9.957        0.061      342.169       17.390      858.154
06/06/2014  04:38:00       39.502       -1.677       12.159       17.492       15.178       16.697      305.985      230.365      278.778        0.126        0.041       39.538        8.429        0.045      342.045       17.179      858.157
06/06/2014  04:39:00       54.004      -36.967       -1.845       30.590       28.316       26.929      935.727      801.806      725.196        0.337        0.123       65.444       20.292        0.096      341.921       16.969      858.168
06/06/2014  04:40:00       36.914      -11.474       -4.622       24.039       19.899       27.451      577.856      395.979      753.573        0.162        0.086       38.656       12.474        0.104      341.840       16.832      858.176
06/06/2014  04:41:00       24.740       -1.044        3.872       20.208       17.486       19.137      408.365      305.772      366.209        0.085        0.054       24.762       16.554        0.447      341.984       17.077      858.184
06/06/2014  04:42:00      -14.517      -18.678       -5.211       14.793       14.773       11.590      218.828      218.236      134.318        0.058        0.029       23.656        3.095        0.017      342.126       17.317      858.193
06/06/2014  04:43:00      -75.870      -37.204       -2.520       47.633       41.405       19.577     2268.937     1714.402      383.246        0.576        0.218       84.501       22.941        0.074      341.483       16.226      858.208
06/06/2014  04:44:00     -104.566       25.105      -14.683        9.873       14.526        8.205       97.482      211.017       67.318        0.608        0.019      107.537        3.265        0.001      341.474       16.211      858.229
06/06/2014  04:45:00     -104.940       18.250      -20.410       13.236        9.578        9.907      175.180       91.742       98.152        0.606        0.018      106.515        7.677        0.005      341.600       16.424      858.232
06/06/2014  04:46:00      -51.300        7.774       -7.955       20.130       10.401       10.706      405.213      108.182      114.622        0.169        0.031       51.886        9.628        0.034      342.065       17.214      858.230
06/06/2014  04:47:00       39.459      -10.894        0.790       33.353       18.731       18.734     1112.426      350.840      350.964        0.174        0.091       40.935       11.127        0.074      342.006       17.113      858.228
06/06/2014  04:48:00       38.336      -34.081      -12.754       15.666       21.761       15.768      245.423      473.562      248.633        0.188        0.048       51.295        6.822        0.018      341.834       16.822      858.227
06/06/2014  04:49:00       46.313        2.400      -14.709       20.335       27.693       21.976      413.493      766.891      482.957        0.201        0.083       46.375       20.373        0.193      342.325       17.656      858.231
06/06/2014  04:50:00        9.056       11.863        7.781       11.466       17.161       14.620      131.480      294.490      213.750        0.046        0.032       14.924       11.778        0.623      342.272       17.566      858.228
06/06/2014  04:51:00       33.404      -10.279        5.331       23.131       16.549       19.833      535.037      273.869      393.335        0.123        0.060       34.950       15.813        0.205      342.256       17.539      858.235
06/06/2014  04:52:00       65.571      -16.803        6.661       27.708       17.411       25.234      767.740      303.156      636.749        0.317        0.085       67.689        9.525        0.020      342.140       17.340      858.242
06/06/2014  04:53:00       73.166      -24.003        1.813       24.869       28.015       22.190      618.486      784.837      492.413        0.391        0.095       77.003        8.020        0.011      342.168       17.390      858.228
06/06/2014  04:54:00       55.657      -25.214       16.826       27.730       21.703       21.279      768.961      471.037      452.788        0.285        0.085       61.102       20.317        0.111      342.638       18.187      858.223
06/06/2014  04:55:00       56.712       -5.828       35.122       19.235       14.999       17.835      369.992      224.960      318.091        0.270        0.046       57.011       12.613        0.049      342.548       18.035      858.226
06/06/2014  04:56:00       41.774      -12.855      -11.273       36.664       29.965       25.646     1344.258      897.915      657.704        0.247        0.145       43.707       21.727        0.247      342.162       17.378      858.234
06/06/2014  04:57:00       53.940       36.304       -6.192       17.539       20.420       25.436      307.615      416.982      647.002        0.282        0.069       65.020       14.736        0.051      342.352       17.701      858.251
06/06/2014  04:58:00       44.581      -12.619       -1.085       12.375       15.837       17.716      153.142      250.820      313.856        0.143        0.036       46.333        8.274        0.032      342.082       17.244      858.250
06/06/2014  04:59:00       54.461      -12.950       11.151       18.765       18.493       19.214      352.126      341.979      369.165        0.216        0.053       55.979        9.442        0.028      342.132       17.328      858.249
06/06/2014  05:00:00      -16.174      -22.181       -5.342       44.462       20.807       11.216     1976.865      432.920      125.792        0.166        0.127       27.451       11.662        0.180      341.889       16.916      858.260
06/06/2014  05:01:00      -78.119      -26.300      -10.625       14.778       14.401        9.823      218.400      207.403       96.486        0.371        0.026       82.427        5.097        0.004      341.320       15.951      858.265
06/06/2014  05:02:00      -65.031      -45.640       -5.612       31.427       17.561       10.807      987.687      308.395      116.790        0.388        0.071       79.449        9.739        0.015      341.534       16.314      858.265
06/06/2014  05:03:00      -36.375      -35.826       -2.232       15.649       16.273        6.345      244.877      264.803       40.254        0.158        0.027       51.055        7.085        0.019      341.889       16.916      858.261
06/06/2014  05:04:00       -8.574       -2.683       -2.569       10.669       10.746        6.150      113.838      115.477       37.818        0.018        0.013        8.985        4.105        0.209      341.782       16.735      858.266
06/06/2014  05:05:00       28.911       -9.701       20.385       25.275       16.209       16.073      638.832      262.735      258.342        0.125        0.058       30.495       12.989        0.181      341.658       16.523      858.277
06/06/2014  05:06:00       27.171      -26.044        8.608       21.066       19.335       18.444      443.780      373.846      340.178        0.132        0.058       37.638       16.376        0.189      341.723       16.636      858.278
06/06/2014  05:07:00       45.854      -12.692       16.572       20.052       15.919       21.106      402.085      253.418      445.452        0.182        0.055       47.578       13.694        0.083      341.661       16.529      858.281
06/06/2014  05:08:00       41.476      -17.035       -0.708       16.231       13.242       18.018      263.435      175.353      324.637        0.139        0.038       44.838        7.506        0.028      341.845       16.841      858.296
06/06/2014  05:09:00       38.947      -26.176       -7.081       16.205       17.079       16.892      262.589      291.705      285.333        0.155        0.042       46.926        8.039        0.029      341.725       16.636      858.302
06/06/2014  05:10:00       42.959      -14.822        7.847       20.422       23.133       23.418      417.049      535.137      548.417        0.181        0.075       45.444       13.045        0.082      341.730       16.646      858.302
06/06/2014  05:11:00       27.984       11.832       24.954       17.759       15.240       20.248      315.394      232.243      409.988        0.125        0.048       30.383        6.193        0.042      341.908       16.947      858.310
06/06/2014  05:12:00       36.071       -7.274       -1.019       18.946       19.491       20.397      358.968      379.904      416.033        0.125        0.058       36.797        9.005        0.060      342.177       17.403      858.321
06/06/2014  05:13:00       10.239      -12.148       -0.117       13.864       18.889       18.427      192.197      356.788      339.555        0.057        0.044       15.888       12.314        0.601      341.964       17.042      858.341
06/06/2014  05:14:00      -19.549        3.636        7.053       27.387        9.884       15.694      750.032       97.694      246.303        0.077        0.055       19.884       18.686        0.883      341.681       16.563      858.360
06/06/2014  05:15:00      -56.388      -26.873       -8.327        9.545       16.211        6.052       91.102      262.811       36.631        0.218        0.020       62.464        5.629        0.008      341.667       16.538      858.368
06/06/2014  05:16:00      -63.452      -30.077      -10.120       12.236       11.541        8.657      149.714      133.190       74.950        0.270        0.018       70.219        5.778        0.007      341.230       15.798      858.372
06/06/2014  05:17:00      -73.785      -16.055      -16.980       10.351       21.659       10.679      107.140      469.119      114.038        0.334        0.035       75.512        8.541        0.013      341.320       15.952      858.385
06/06/2014  05:18:00      -79.731      -29.200      -16.000       10.026       11.267        7.680      100.523      126.943       58.985        0.388        0.014       84.910        5.242        0.004      341.480       16.223      858.394
06/06/2014  05:19:00     -113.181       -1.860      -17.002       22.334       19.353       16.742      498.810      374.541      280.307        0.713        0.058      113.197        8.260        0.005      341.105       15.586      858.405
06/06/2014  05:20:00     -109.010        7.320      -12.565       12.962       11.340        9.854      168.024      128.594       97.103        0.624        0.020      109.256        3.738        0.001      341.405       16.095      858.416
06/06/2014  05:21:00      -78.937       -4.886      -14.253       11.079       15.728        9.739      122.742      247.360       94.845        0.346        0.023       79.088        8.839        0.012      340.972       15.361      858.432
06/06/2014  05:22:00      -59.756       -1.797      -12.960        7.626       14.639        6.535       58.157      214.307       42.700        0.203        0.016       59.783        2.865        0.002      340.997       15.403      858.449
06/06/2014  05:23:00      -66.492      -14.486      -10.218        9.004        8.741        7.738       81.069       76.413       59.872        0.248        0.011       68.052        5.563        0.007      341.200       15.746      858.465
06/06/2014  05:24:00      -78.312      -23.007      -15.223       22.216       12.313        8.457      493.565      151.602       71.520        0.381        0.036       81.622        8.896        0.012      341.186       15.725      858.469
06/06/2014  05:25:00     -110.631      -25.752      -17.222       14.988       21.008       14.385      224.634      441.325      206.933        0.704        0.044      113.589       10.461        0.008      341.083       15.550      858.476
06/06/2014  05:26:00     -112.759      -30.186      -22.183       23.936       21.221       17.914      572.922      450.314      320.906        0.773        0.067      116.730       14.892        0.016      340.869       15.187      858.501
06/06/2014  05:27:00     -113.673      -61.330      -26.015       28.843       19.005       16.671      831.902      361.182      277.934        0.942        0.074      129.163       11.478        0.008      340.879       15.204      858.503
06/06/2014  05:28:00      -36.052      -36.322       -4.193       33.219       34.377       22.741     1103.501     1181.789      517.172        0.272        0.140       51.177       17.219        0.113      340.851       15.155      858.492
06/06/2014  05:29:00      -85.760      -45.426      -14.103       30.966       23.785       25.119      958.871      565.746      630.949        0.589        0.108       97.048       12.864        0.018      340.862       15.175      858.486
06/06/2014  05:30:00     -118.669      -27.860       -7.171       30.562       42.271       20.101      934.037     1786.853      404.035        0.902        0.156      121.896       12.211        0.010      340.901       15.240      858.491
06/06/2014  05:31:00     -141.967      -13.195      -13.331       45.738       27.096       24.508     2091.926      734.207      600.647        1.197        0.171      142.579       25.858        0.033      340.806       15.081      858.500
06/06/2014  05:32:00     -152.353       -8.326      -21.923       36.583       31.048       21.523     1338.300      963.993      463.230        1.326        0.138      152.580       18.514        0.015      340.617       14.761      858.500
06/06/2014  05:33:00     -156.481        3.981      -21.052       23.647       19.923       20.560      559.166      396.919      422.732        1.316        0.069      156.532       10.610        0.005      340.629       14.781      858.496
06/06/2014  05:34:00     -126.573        2.683      -25.139       29.734       21.683       18.452      884.098      470.174      340.467        0.918        0.085      126.601        6.575        0.003      340.726       14.945      858.499
06/06/2014  05:35:00      -85.676      -17.075      -20.828       23.057       20.276       15.206      531.631      411.109      231.217        0.462        0.059       87.361       10.676        0.015      340.791       15.054      858.515
06/06/2014  05:36:00     -104.658      -28.505      -12.806       25.053       27.061       20.984      627.657      732.305      440.342        0.686        0.090      108.470       10.120        0.009      340.720       14.936      858.509
06/06/2014  05:37:00     -111.573       -8.133      -15.315       37.776       27.526       18.320     1427.001      757.678      335.633        0.763        0.126      111.869       14.593        0.017      340.618       14.764      858.512
06/06/2014  05:38:00     -105.281       -0.578      -18.313       28.481       27.325       20.178      811.162      746.681      407.148        0.669        0.098      105.283       13.182        0.016      340.592       14.718      858.527
06/06/2014  05:39:00     -130.403       -4.370      -22.417       39.303       34.063       23.902     1544.712     1160.264      571.323        1.040        0.164      130.477       21.281        0.027      340.681       14.868      858.534
06/06/2014  05:40:00     -111.472        3.984       -6.903       46.552       30.582       27.384     2167.133      935.247      749.864        0.817        0.193      111.543       27.299        0.060      340.653       14.822      858.544
06/06/2014  05:41:00     -137.895      -36.175       -1.371       52.980       47.855       24.753     2806.845     2290.093      612.720        1.302        0.285      142.561       24.979        0.031      340.670       14.850      858.550
06/06/2014  05:42:00     -174.070      -36.494       -5.168       38.194       40.356       23.059     1458.789     1628.601      531.695        1.764        0.181      177.854       18.527        0.011      340.664       14.840      858.548
06/06/2014  05:43:00     -108.780      -82.653        3.347       63.966       47.894       28.360     4091.692     2293.790      804.284        1.293        0.359      136.619       29.217        0.046      340.742       14.972      858.548
06/06/2014  05:44:00     -140.753      -92.433        0.392       72.600       51.364       39.579     5270.703     2638.230     1566.477        1.891        0.474      168.391       32.689        0.038      340.735       14.958      858.558
06/06/2014  05:45:00     -229.871      -77.340       -7.827       56.473       45.609       28.341     3189.170     2080.184      803.224        3.248        0.304      242.533       22.195        0.008      340.881       15.204      858.597
06/06/2014  05:46:00     -160.318      -68.569        5.056       72.153       65.495       34.256     5206.075     4289.645     1173.485        2.055        0.533      174.366       38.442        0.049      341.102       15.580      858.604
06/06/2014  05:47:00     -184.819      -47.493       -2.221       55.458       48.160       30.022     3075.565     2319.389      901.322        2.136        0.315      190.824       29.057        0.023      341.253       15.836      858.602
06/06/2014  05:48:00     -133.811      -34.641       -2.809       55.064       48.652       24.994     3032.042     2367.065      624.677        1.257        0.301      138.222       19.972        0.021      341.356       16.011      858.615
06/06/2014  05:49:00     -195.780      -45.717       -9.681       43.910       30.578       27.685     1928.125      935.016      766.480        2.207        0.181      201.047       28.485        0.020      341.170       15.697      858.623
06/06/2014  05:50:00     -210.656      -18.687      -10.165       47.835       40.325       32.771     2288.214     1626.096     1073.950        2.491        0.249      211.484       29.033        0.019      340.922       15.275      858.632
06/06/2014  05:51:00     -198.203      -30.047      -15.181       47.049       30.980       25.337     2213.568      959.749      641.975        2.212        0.191      200.468       22.259        0.012      341.047       15.486      858.631
06/06/2014  05:52:00     -211.295       -8.814      -15.139       47.149       43.535       22.155     2223.058     1895.335      490.841        2.478        0.230      211.479       23.999        0.013      341.249       15.828      858.621
06/06/2014  05:53:00     -220.120        1.182      -20.024       38.901       32.813       24.084     1513.270     1076.670      580.041        2.601        0.158      220.123       22.707        0.011      341.252       15.832      858.618
06/06/2014  05:54:00     -166.289        6.143      -13.290       40.444       37.505       21.785     1635.753     1406.638      474.565        1.569        0.176      166.402       16.322        0.010      341.149       15.661      858.618
06/06/2014  05:55:00     -172.499       -0.013      -14.015       33.344       27.243       20.160     1111.832      742.173      406.422        1.611        0.113      172.499       17.924        0.011      341.159       15.679      858.620
06/06/2014  05:56:00     -138.619        1.076       -7.580       55.856       27.176       23.623     3119.913      738.535      558.057        1.184        0.221      138.624       25.847        0.035      341.125       15.621      858.626
06/06/2014  05:57:00     -143.092        0.495      -12.238       34.538       26.147       18.088     1192.891      683.685      327.159        1.141        0.110      143.093       16.853        0.014      341.085       15.553      858.636
06/06/2014  05:58:00     -112.098      -37.627       -1.435       35.859       35.920       21.056     1285.892     1290.259      443.343        0.850        0.151      118.245       19.627        0.028      340.926       15.285      858.646
06/06/2014  05:59:00     -108.456      -21.933        1.591       32.393       27.899       17.445     1049.279      778.362      304.342        0.719        0.107      110.652       16.325        0.022      340.846       15.148      858.655
06/06/2014  06:00:00     -122.857      -26.152       -4.953       21.164       15.962       14.138      447.916      254.797      199.893        0.835        0.045      125.609       12.541        0.010      340.936       15.300      858.664
06/06/2014  06:01:00      -62.176      -67.850       10.593       46.424       37.150       23.851     2155.219     1380.092      568.866        0.634        0.205       92.030       25.620        0.077      341.100       15.579      858.677
06/06/2014  06:02:00     -123.689      -60.381        1.729       45.004       39.170       23.567     2025.363     1534.323      555.414        1.153        0.206      137.641       24.663        0.032      341.083       15.550      858.688
06/06/2014  06:03:00     -114.067      -69.540       -2.143       37.807       39.556       24.429     1429.345     1564.640      596.761        1.072        0.180      133.592       20.113        0.023      341.207       15.761      858.698
06/06/2014  06:04:00     -117.669      -48.163       -7.169       34.447       36.683       23.690     1186.580     1345.647      561.234        0.965        0.155      127.144       20.899        0.027      341.309       15.932      858.701
06/06/2014  06:05:00      -91.334      -57.910        6.561       57.401       59.301       33.643     3294.840     3516.579     1131.829        0.984        0.397      108.146       33.187        0.094      341.329       15.967      858.705
06/06/2014  06:06:00     -130.852      -54.602      -13.955       47.186       39.862       25.915     2226.499     1589.018      671.564        1.239        0.224      141.787       27.137        0.037      341.344       15.991      858.702
06/06/2014  06:07:00      -98.786      -22.333       -7.888       43.639       45.592       24.646     1904.335     2078.643      607.415        0.745        0.230      101.279       23.691        0.055      341.213       15.768      858.697
06/06/2014  06:08:00     -136.059      -16.438       -7.853       44.485       27.071       21.383     1978.932      732.866      457.249        1.101        0.158      137.049       24.929        0.033      340.980       15.374      858.694
06/06/2014  06:09:00      -98.189      -37.509        8.779       42.327       33.575       24.527     1791.533     1127.257      601.583        0.732        0.176      105.110       25.507        0.059      341.015       15.435      858.677
06/06/2014  06:10:00      -57.797      -17.905        9.999       44.704       32.547       21.473     1998.450     1059.285      461.082        0.364        0.176       60.507       23.034        0.145      341.085       15.552      858.673
06/06/2014  06:11:00      -96.461      -13.850       -1.561       34.732       26.214       17.886     1206.307      687.199      319.926        0.586        0.111       97.450       17.437        0.032      340.951       15.326      858.673
06/06/2014  06:12:00     -112.379      -14.341      -10.668       30.371       28.155       17.891      922.382      792.688      320.084        0.749        0.102      113.291       13.751        0.015      341.007       15.420      858.676
06/06/2014  06:13:00      -99.741      -33.111        0.201       31.711       31.195       23.120     1005.615      973.111      534.512        0.678        0.126      105.093       18.611        0.031      340.977       15.370      858.677
06/06/2014  06:14:00     -110.229      -17.688        5.668       34.708       30.285       23.881     1204.657      917.206      570.303        0.759        0.135      111.640       22.874        0.042      341.034       15.467      858.673
06/06/2014  06:15:00      -87.567      -46.136        5.517       59.702       37.220       27.258     3564.338     1385.297      743.006        0.776        0.285       98.977       25.720        0.068      341.189       15.731      858.660
06/06/2014  06:16:00     -100.858      -81.677        7.886       64.927       47.983       31.979     4215.461     2302.405     1022.671        1.222        0.377      129.782       29.576        0.052      341.368       16.032      858.647
06/06/2014  06:17:00     -102.863      -83.821        1.557       59.654       55.318       26.995     3558.631     3060.113      728.732        1.248        0.367      132.690       23.743        0.032      341.355       16.011      858.661
06/06/2014  06:18:00     -140.432      -75.246        4.009       56.637       40.937       31.065     3207.749     1675.852      965.037        1.562        0.292      159.321       22.054        0.019      341.355       16.010      858.687
06/06/2014  06:19:00     -114.776      -52.009        4.381       72.022       40.242       31.310     5187.174     1619.401      980.332        1.184        0.389      126.010       24.698        0.038      341.332       15.970      858.712
06/06/2014  06:20:00     -141.334      -98.050       -7.503       67.614       66.073       32.757     4571.599     4365.690     1073.000        1.983        0.501      172.015       32.437        0.036      341.333       15.972      858.731
06/06/2014  06:21:00     -110.283     -111.898        0.223       67.245       71.569       39.591     4521.905     5122.105     1567.423        1.795        0.561      157.110       45.553        0.084      341.323       15.953      858.745
06/06/2014  06:22:00      -59.133       -7.799        5.164       38.849       36.090       25.507     1509.252     1302.508      650.583        0.352        0.173       59.645       25.997        0.190      341.444       16.162      858.757
06/06/2014  06:23:00      -80.612      -53.219        6.450       62.339       35.368       24.090     3886.173     1250.890      580.340        0.754        0.286       96.595       29.486        0.093      341.392       16.073      858.770
06/06/2014  06:24:00     -170.861      -66.983       -9.472       49.963       50.471       30.632     2496.263     2547.339      938.310        1.987        0.299      183.521       31.219        0.029      341.296       15.907      858.789
06/06/2014  06:25:00     -114.756      -53.338        3.874       37.517       50.874       27.284     1407.503     2588.180      744.431        1.038        0.237      126.546       15.959        0.016      341.262       15.853      858.786
06/06/2014  06:26:00      -97.486      -28.649       -3.514       39.158       33.746       20.701     1533.321     1138.765      428.517        0.672        0.155      101.608       23.245        0.052      341.281       15.884      858.784
06/06/2014  06:27:00      -38.322      -59.332      -11.118       35.663       28.882       21.841     1271.847      834.186      477.037        0.385        0.129       70.632       18.860        0.071      341.421       16.121      858.770
06/06/2014  06:28:00      -86.220      -76.100        2.074       39.069       31.257       23.673     1526.364      977.018      560.429        0.815        0.153      115.000       22.475        0.038      341.318       15.945      858.773
06/06/2014  06:29:00      -81.497     -121.937       -9.140       30.836       37.815       23.389      950.880     1429.947      547.062        1.226        0.146      146.665       20.211        0.019      341.341       15.985      858.783
06/06/2014  06:30:00      -43.147      -76.536        3.886       33.852       38.776       21.611     1145.951     1503.613      467.050        0.542        0.156       87.860       18.859        0.046      341.398       16.082      858.792
06/06/2014  06:31:00      -58.304      -42.924       12.849       57.558       33.354       29.909     3312.957     1112.517      894.541        0.536        0.266       72.401       31.087        0.184      341.430       16.136      858.803
06/06/2014  06:32:00      -90.668     -102.636        5.116       62.744       57.463       37.848     3936.822     3301.944     1432.441        1.372        0.434      136.949       42.426        0.096      341.312       15.935      858.825
06/06/2014  06:33:00     -108.959     -119.618       -9.029       56.648       40.741       29.337     3208.951     1659.838      860.645        1.599        0.286      161.804       21.595        0.018      341.315       15.941      858.842
06/06/2014  06:34:00      -54.359      -95.634        3.757       36.263       55.014       24.540     1315.004     3026.589      602.202        0.853        0.247      110.004       21.114        0.037      341.359       16.016      858.844
06/06/2014  06:35:00     -120.605      -65.144        6.886       55.038       47.745       27.907     3029.199     2279.559      778.785        1.246        0.304      137.074       24.511        0.032      341.313       15.938      858.862
06/06/2014  06:36:00      -83.211      -75.270        6.740       42.914       56.474       33.406     1841.577     3189.293     1115.953        0.939        0.307      112.203       29.097        0.067      341.329       15.966      858.874
06/06/2014  06:37:00      -59.510      -53.579       13.861       44.280       35.825       25.359     1960.726     1283.407      643.095        0.524        0.194       80.076       20.343        0.065      341.358       16.013      858.881
06/06/2014  06:38:00      -92.746      -70.566       -6.347       34.887       29.160       18.603     1217.074      850.334      346.070        0.802        0.121      116.540       15.121        0.017      341.367       16.031      858.883
06/06/2014  06:39:00      -52.401      -56.171        3.718       24.831       26.839       14.985      616.592      720.330      224.547        0.374        0.078       76.818        9.667        0.016      341.405       16.094      858.884
06/06/2014  06:40:00      -57.701      -79.606       -0.185       34.098       28.549       19.156     1162.649      815.068      366.971        0.601        0.117       98.319       18.569        0.036      341.482       16.225      858.884
06/06/2014  06:41:00      -19.444      -60.540        1.301       23.851       22.987       17.335      568.865      528.385      300.498        0.272        0.070       63.586        9.719        0.023      341.565       16.365      858.871
06/06/2014  06:42:00      -88.597      -71.153       -6.346       34.656       15.535       14.330     1201.060      241.345      205.345        0.730        0.082      113.631       16.261        0.020      341.643       16.499      858.873
06/06/2014  06:43:00      -72.027      -76.853       -3.134       44.858       27.239       16.441     2012.233      741.989      270.307        0.706        0.151      105.329       18.795        0.032      341.680       16.560      858.877
06/06/2014  06:44:00      -33.351      -36.586        7.618       39.509       30.561       22.467     1560.958      933.998      504.776        0.275        0.150       49.506       23.369        0.223      341.767       16.709      858.874
06/06/2014  06:45:00      -28.885      -62.621        1.976       21.074       28.357       15.543      444.100      804.139      241.584        0.312        0.074       68.962       14.300        0.043      341.717       16.622      858.879
06/06/2014  06:46:00      -37.758      -71.905        6.912       32.929       47.054       22.507     1084.288     2214.087      506.570        0.522        0.190       81.216       22.025        0.074      341.851       16.850      858.885
06/06/2014  06:47:00      -31.546      -19.734        4.845       24.814       20.245       16.243      615.729      409.850      263.833        0.135        0.064       37.210        7.693        0.043      342.040       17.172      858.912
06/06/2014  06:48:00      -51.144      -18.488        1.066       35.789       28.155       23.089     1280.860      792.678      533.087        0.278        0.130       54.383       16.156        0.088      341.862       16.870      858.935
06/06/2014  06:49:00      -63.217      -12.065        3.091       17.314       24.424       20.387      299.787      596.544      415.637        0.273        0.066       64.358       19.415        0.091      341.764       16.704      858.956
06/06/2014  06:50:00      -27.043      -21.300        3.197       21.987       20.671       16.717      483.438      427.294      279.460        0.119        0.060       34.424        9.498        0.076      341.857       16.861      858.965
06/06/2014  06:51:00      -10.353      -21.676       -1.090       40.128       31.628       25.083     1610.269     1000.349      629.178        0.191        0.162       24.021       19.622        0.667      341.747       16.675      858.975
06/06/2014  06:52:00        2.131       -8.600        4.891       22.030       15.484       15.189      485.333      239.764      230.713        0.053        0.048        8.860       11.738        1.755      341.838       16.828      858.982
06/06/2014  06:53:00       -9.516      -10.697       11.968       11.843       16.625       15.547      140.249      276.402      241.724        0.050        0.033       14.317        7.032        0.241      342.233       17.498      858.996
06/06/2014  06:54:00      -20.032      -17.507        2.910       19.042       11.789       16.707      362.614      138.972      279.117        0.075        0.039       26.604        9.585        0.130      342.023       17.142      859.013
06/06/2014  06:55:00       44.518      -23.599        2.507       44.101       32.943       20.698     1944.857     1085.252      428.420        0.300        0.173       50.387       15.123        0.090      341.585       16.400      859.011
06/06/2014  06:56:00       14.002       -1.515       17.887       18.045       15.559       23.301      325.633      242.068      542.934        0.081        0.056       14.084       13.052        0.859      342.060       17.208      859.012
06/06/2014  06:57:00       23.387       20.506        9.890       20.097       14.182       17.939      403.886      201.127      321.815        0.100        0.046       31.104       15.012        0.233      341.899       16.932      859.024
06/06/2014  06:58:00       18.880       -2.606       -6.968        9.125       14.628       10.488       83.271      213.992      109.999        0.041        0.020       19.059        8.993        0.223      341.915       16.960      859.030
06/06/2014  06:59:00       18.573      -24.897        3.250       32.432       37.182       25.064     1051.866     1382.496      628.189        0.202        0.153       31.061       27.036        0.758      341.967       17.047      859.040
06/06/2014  07:00:00      -30.042      -18.520       12.631       26.820       23.283       20.826      719.338      542.104      433.703        0.155        0.085       35.292       19.248        0.297      342.458       17.883      859.032
06/06/2014  07:01:00      -76.693      -53.715       -6.141       47.485       40.077       29.455     2254.857     1606.175      867.568        0.677        0.236       93.633       35.371        0.143      342.147       17.353      859.036
06/06/2014  07:02:00     -130.392      -77.498      -13.788       33.377       29.875       24.982     1114.033      892.504      624.104        1.291        0.132      151.684       10.685        0.005      341.952       17.023      859.048
06/06/2014  07:03:00     -118.671      -71.007       -2.875       24.691       24.062       17.580      609.643      578.993      309.069        1.032        0.075      138.293       11.114        0.006      341.997       17.099      859.056
06/06/2014  07:04:00     -102.600      -58.501       -3.361       31.080       32.739       21.678      965.975     1071.850      469.917        0.823        0.125      118.107       19.757        0.028      342.016       17.132      859.061
06/06/2014  07:05:00     -117.415      -37.961       -1.867       49.116       24.549       19.227     2412.358      602.636      369.695        0.931        0.169      123.399       14.558        0.014      342.042       17.174      859.067
06/06/2014  07:06:00     -124.868      -55.998       -5.870       25.912       33.895       19.910      671.454     1148.898      396.410        1.049        0.111      136.849       14.993        0.012      342.101       17.275      859.070
06/06/2014  07:07:00     -117.186      -74.926        2.203       31.550       31.641       25.323      995.380     1001.138      641.266        1.099        0.132      139.092       20.258        0.021      342.232       17.496      859.074
06/06/2014  07:08:00      -66.667      -46.434       -0.813       48.813       23.387       16.863     2382.696      546.931      284.359        0.491        0.161       81.245       17.691        0.047      342.363       17.721      859.071
06/06/2014  07:09:00      -66.313      -36.973        5.038       28.595       34.458       18.691      817.697     1187.353      349.355        0.407        0.118       75.924       15.299        0.041      342.384       17.755      859.067
06/06/2014  07:10:00      -69.342      -50.820        3.587       37.265       34.084       22.422     1388.715     1161.740      502.745        0.523        0.153       85.971       14.253        0.027      342.415       17.808      859.074
06/06/2014  07:11:00      -30.742      -31.924       13.673       38.661       38.711       26.333     1494.710     1498.578      693.423        0.292        0.184       44.319       31.212        0.496      342.809       18.479      859.071
06/06/2014  07:12:00      -56.623      -48.186        4.327       36.641       30.091       20.638     1342.537      905.464      425.914        0.411        0.134       74.351       19.884        0.072      342.553       18.042      859.075
06/06/2014  07:13:00      -40.950      -49.970       12.741       43.923       33.908       24.062     1929.216     1149.756      578.982        0.400        0.183       64.606       29.527        0.209      342.700       18.294      859.084
06/06/2014  07:14:00      -76.098      -62.853        3.163       35.430       39.267       19.930     1255.285     1541.912      397.218        0.647        0.160       98.698       21.054        0.046      342.444       17.858      859.100
06/06/2014  07:15:00      -46.133      -23.334        3.240       24.102       15.563       10.638      580.888      242.212      113.168        0.181        0.047       51.699       10.548        0.042      342.526       17.998      859.110
06/06/2014  07:16:00      -27.455      -89.895        3.879       16.551       21.229       12.336      273.936      450.676      152.174        0.486        0.044       93.994       13.402        0.020      342.560       18.055      859.123
06/06/2014  07:17:00      -15.010      -96.066       -0.801       18.215       23.015       14.736      331.792      529.697      217.160        0.527        0.054       97.232        8.480        0.008      342.572       18.074      859.115
06/06/2014  07:18:00      -18.221      -66.593        0.102       16.033       33.677       10.377      257.071     1134.121      107.684        0.313        0.075       69.041        5.989        0.008      342.590       18.104      859.118
06/06/2014  07:19:00      -30.908     -132.898        3.968       23.019       26.967       19.496      529.862      727.201      380.095        1.013        0.082      136.444       13.295        0.009      342.544       18.027      859.124
06/06/2014  07:20:00      -70.791      -65.685        2.217       39.939       38.137       20.911     1595.092     1454.402      437.281        0.641        0.174       96.571       21.197        0.048      342.553       18.044      859.107
06/06/2014  07:21:00      -15.530        9.864        4.231       26.387       21.678       23.475      696.276      469.930      551.053        0.104        0.086       18.397       15.536        0.713      342.888       18.614      859.096
06/06/2014  07:22:00      -31.567        8.095       -0.023       28.676       12.768       23.212      822.286      163.029      538.790        0.129        0.076       32.588       10.039        0.095      342.636       18.184      859.099
06/06/2014  07:23:00      -58.070      -40.195        6.392       33.648       46.788       15.715     1132.166     2189.117      246.951        0.430        0.178       70.624       16.793        0.057      342.684       18.266      859.097
06/06/2014  07:24:00      -80.894      -63.811        4.189       43.920       33.648       22.528     1929.009     1132.193      507.490        0.710        0.178      103.032       24.127        0.055      342.630       18.173      859.082
06/06/2014  07:25:00      -82.335      -79.132        1.437       26.250       27.564       19.425      689.063      759.779      377.348        0.743        0.091      114.197       15.775        0.019      342.615       18.148      859.080
06/06/2014  07:26:00      -65.119      -26.037       10.267       43.220       34.181       22.475     1867.955     1168.356      505.119        0.428        0.177       70.132       23.417        0.111      342.809       18.478      859.071
06/06/2014  07:27:00      -95.624      -80.384        3.190       58.389       33.370       22.137     3409.302     1113.577      490.051        1.031        0.251      124.922       27.707        0.049      342.767       18.408      859.070
06/06/2014  07:28:00      -70.787      -48.170        6.933       42.766       35.298       20.358     1828.915     1245.978      414.455        0.543        0.174       85.623       18.287        0.046      342.771       18.413      859.081
06/06/2014  07:29:00      -65.524      -48.236       -0.631       33.625       32.057       18.445     1130.633     1027.632      340.212        0.456        0.125       81.364       20.718        0.065      342.820       18.496      859.088
06/06/2014  07:30:00      -52.111      -63.771        3.114       29.509       26.977       20.357      870.787      727.740      414.409        0.440        0.101       82.355       17.107        0.043      342.843       18.538      859.095
06/06/2014  07:31:00      -33.142      -76.596       11.750       28.508       37.976       17.530      812.720     1442.159      307.304        0.483        0.128       83.459       19.089        0.052      342.825       18.505      859.103
06/06/2014  07:32:00      -41.972      -77.188        8.435       34.839       43.982       19.575     1213.741     1934.390      383.185        0.566        0.177       87.861       22.737        0.067      342.836       18.524      859.112
06/06/2014  07:33:00      -28.528      -71.129        3.329       35.423       35.716       17.637     1254.821     1275.656      311.065        0.436        0.142       76.636       19.239        0.063      342.822       18.499      859.119
06/06/2014  07:34:00      -19.029      -86.074       10.028       31.347       21.952       21.633      982.625      481.908      467.981        0.490        0.097       88.153       11.574        0.017      342.834       18.520      859.123
06/06/2014  07:35:00      -58.500      -86.189       -9.259       28.359       35.792       16.910      804.237     1281.077      285.955        0.665        0.119      104.167       11.759        0.013      342.781       18.429      859.133
06/06/2014  07:36:00      -39.418      -99.045        7.055       30.531       38.703       22.030      932.156     1497.956      485.335        0.716        0.146      106.601       22.605        0.045      342.832       18.518      859.131
06/06/2014  07:37:00      -84.447      -97.229       -7.623       27.892       23.005       14.172      777.937      529.233      200.836        0.908        0.075      128.782       11.496        0.008      342.749       18.376      859.116
06/06/2014  07:38:00     -109.723     -100.512       -5.133       41.928       48.275       25.788     1757.957     2330.479      665.018        1.346        0.238      148.801       17.663        0.014      342.766       18.403      859.116
06/06/2014  07:39:00     -128.011      -97.958        4.398       49.715       43.567       25.077     2471.563     1898.113      628.872        1.550        0.250      161.191       23.643        0.022      342.789       18.445      859.114
06/06/2014  07:40:00      -79.376     -113.357       -0.979       37.412       44.772       26.338     1399.664     2004.526      693.714        1.162        0.205      138.385       25.437        0.034      342.869       18.582      859.113
06/06/2014  07:41:00      -76.965     -118.816        2.054       49.834       48.941       28.714     2483.390     2395.241      824.511        1.287        0.285      141.565       24.715        0.030      342.843       18.537      859.118
06/06/2014  07:42:00      -74.490      -98.476        1.820       46.327       49.084       28.954     2146.168     2409.226      838.347        1.032        0.270      123.476       30.039        0.059      342.879       18.597      859.117
06/06/2014  07:43:00      -39.098      -71.363        8.029       51.744       38.764       23.314     2677.484     1502.636      543.525        0.570        0.236       81.372       26.086        0.103      342.984       18.778      859.116
06/06/2014  07:44:00      -59.959      -60.396        9.425       44.506       32.956       28.813     1980.764     1086.080      830.173        0.561        0.195       85.105       22.488        0.070      342.984       18.776      859.111
06/06/2014  07:45:00      -88.902      -78.740        2.635       40.064       48.694       27.042     1605.099     2371.090      731.245        0.941        0.235      118.758       20.786        0.031      342.934       18.691      859.106
06/06/2014  07:46:00      -20.172      -62.061      -12.993       44.265       31.513       24.064     1959.385      993.081      579.087        0.398        0.177       65.257       21.062        0.104      343.089       18.955      859.110
06/06/2014  07:47:00      -52.831      -55.683        3.894       37.186       35.678       27.079     1382.786     1272.954      733.262        0.465        0.169       76.757       21.855        0.081      343.056       18.898      859.111
06/06/2014  07:48:00      -17.082        4.313       22.317       25.699       20.124       18.452      660.414      404.957      340.487        0.111        0.070       17.618       15.426        0.767      343.730       20.049      859.113
06/06/2014  07:49:00      -39.222       -4.149        9.673       26.230       30.833       21.015      687.999      950.667      441.629        0.186        0.104       39.440       18.444        0.219      343.385       19.461      859.108
06/06/2014  07:50:00      -34.053       -5.615       11.489       41.058       27.517       23.178     1685.777      757.171      537.199        0.215        0.149       34.513       21.090        0.373      343.645       19.904      859.101
06/06/2014  07:51:00      -46.331     -118.635        3.742       32.221       53.456       25.664     1038.180     2857.514      658.643        1.039        0.228      127.361       19.378        0.023      343.136       19.034      859.096
06/06/2014  07:52:00      -42.489      -21.696       13.652       21.828       27.380       16.925      476.459      749.639      286.471        0.199        0.076       47.708       13.603        0.081      343.366       19.426      859.092
06/06/2014  07:53:00      -26.110       -1.047       17.938       23.066       24.847       21.897      532.033      617.378      479.488        0.132        0.081       26.131       17.767        0.462      343.669       19.943      859.099
06/06/2014  07:54:00      -10.850       -4.916       31.818       21.928       36.769       30.504      480.846     1351.980      930.482        0.196        0.138       11.912       23.702        3.960      343.907       20.351      859.104
06/06/2014  07:55:00      -42.957      -32.749        2.248       25.837       17.480       15.045      667.540      305.566      226.348        0.206        0.060       54.017       11.724        0.047      343.508       19.670      859.099
06/06/2014  07:56:00       -1.627       -1.114       12.487       29.967       23.553       22.138      898.037      554.759      490.071        0.105        0.097        1.971       13.514       46.985      344.075       20.638      859.091
06/06/2014  07:57:00      -53.013      -17.009        8.036       23.125       22.809       16.128      534.752      520.250      260.116        0.224        0.066       55.675       11.595        0.043      343.434       19.544      859.092
06/06/2014  07:58:00       -5.737      -30.144       10.930       20.939       51.438       23.491      438.449     2645.910      551.830        0.235        0.182       30.685       28.384        0.856      344.131       20.733      859.103
06/06/2014  07:59:00      -32.350      -45.524      -13.717       34.886       37.382       28.076     1217.062     1397.413      788.266        0.335        0.170       55.848       18.334        0.108      343.669       19.944      859.091
06/06/2014  08:00:00      -44.101      -57.133        8.634       37.014       37.851       22.477     1370.052     1432.693      505.202        0.430        0.165       72.174       19.088        0.070      343.552       19.743      859.092
06/06/2014  08:01:00       -1.937      -51.769        6.853       49.042       53.217       34.345     2405.103     2832.079     1179.568        0.457        0.321       51.805       25.146        0.236      343.872       20.291      859.087
06/06/2014  08:02:00      -39.128      -35.149        5.762       41.018       34.115       29.248     1682.478     1163.866      855.438        0.325        0.185       52.598       18.775        0.127      343.751       20.085      859.086
06/06/2014  08:03:00      -54.226      -22.425       12.998       48.303       22.630       21.982     2333.164      512.117      483.193        0.347        0.166       58.680       16.133        0.076      343.730       20.048      859.098
06/06/2014  08:04:00      -42.937       -9.379        3.105       32.802       37.285       30.257     1075.974     1390.197      915.477        0.266        0.169       43.950       22.473        0.261      343.660       19.929      859.105
06/06/2014  08:05:00      -23.187        6.350        8.291       33.719       25.581       26.618     1136.941      654.395      708.517        0.157        0.125       24.041       13.322        0.307      344.130       20.731      859.112
06/06/2014  08:06:00      -50.198        3.254       -2.069       39.855       36.205       28.222     1588.395     1310.807      796.465        0.311        0.185       50.304       15.439        0.094      343.545       19.734      859.123
06/06/2014  08:07:00      -40.062       -3.739        1.518       23.779       28.338       20.124      565.453      803.055      404.980        0.170        0.089       40.236       11.240        0.078      343.625       19.870      859.128
06/06/2014  08:08:00      -55.229      -17.224       -0.358       31.385       27.745       17.378      984.994      769.794      302.012        0.270        0.103       57.853        9.849        0.029      343.521       19.692      859.140
06/06/2014  08:09:00      -51.067      -29.856        1.918       37.513       53.226       19.365     1407.199     2832.994      374.991        0.406        0.231       59.154        8.957        0.023      343.664       19.935      859.150
06/06/2014  08:10:00      -63.134      -64.308        1.227       54.820       57.556       35.757     3005.286     3312.725     1278.540        0.786        0.380       90.119       25.718        0.081      343.827       20.214      859.152
06/06/2014  08:11:00      -70.313      -47.219       -3.905       39.101       39.787       22.455     1528.916     1582.967      504.211        0.540        0.181       84.696       12.377        0.021      343.553       19.744      859.156
06/06/2014  08:12:00      -23.291      -20.581       -1.562       57.011       26.697       28.946     3250.285      712.703      837.891        0.288        0.240       31.081       23.649        0.579      343.893       20.326      859.156
06/06/2014  08:13:00      -50.483      -91.227        5.057       40.582       48.281       29.113     1646.896     2331.029      847.539        0.786        0.241      104.264       23.015        0.049      343.566       19.768      859.160
06/06/2014  08:14:00      -94.373     -100.092        0.648       54.361       59.269       28.683     2955.128     3512.825      822.738        1.311        0.365      137.567       31.880        0.054      343.578       19.789      859.162
06/06/2014  08:15:00     -108.221     -122.993       -5.739       66.595       49.371       29.725     4434.911     2437.460      883.570        1.731        0.388      163.827       36.411        0.049      343.496       19.648      859.161
06/06/2014  08:16:00     -134.560      -91.785       -2.887       51.415       52.429       34.055     2643.526     2748.821     1159.746        1.654        0.328      162.884       29.227        0.032      343.557       19.750      859.158
06/06/2014  08:17:00     -121.134      -75.916        7.968       62.401       66.385       33.253     3893.875     4406.924     1105.736        1.495        0.470      142.957       39.735        0.077      343.714       20.020      859.168
06/06/2014  08:18:00     -102.628      -99.206        9.565       49.175       65.893       26.280     2418.146     4341.857      690.633        1.396        0.373      142.739       23.018        0.026      343.540       19.723      859.180
06/06/2014  08:19:00     -108.104     -141.033       -6.512       34.637       29.007       21.055     1199.728      841.418      443.333        1.705        0.124      177.698       17.444        0.010      343.540       19.723      859.188
06/06/2014  08:20:00      -57.345      -37.499       17.388       52.900       48.197       34.856     2798.430     2322.914     1214.928        0.567        0.317       68.517       39.198        0.327      344.202       20.855      859.202
06/06/2014  08:21:00      -22.209      -83.609       -6.803       48.886       46.659       29.445     2389.885     2177.098      867.010        0.648        0.272       86.508       23.354        0.073      343.837       20.230      859.222
06/06/2014  08:22:00      -58.447     -100.355        3.813       45.164       29.441       25.245     2039.775      866.798      637.327        0.852        0.177      116.135       15.307        0.017      343.640       19.895      859.221
06/06/2014  08:23:00     -112.033     -107.145       -5.281       50.233       22.313       22.487     2523.374      497.885      505.665        1.379        0.176      155.021       25.986        0.028      343.638       19.890      859.230
06/06/2014  08:24:00      -97.719      -90.436        0.898       35.586       28.254       23.071     1266.377      798.262      532.293        1.016        0.130      133.145       19.487        0.021      343.699       19.994      859.234
06/06/2014  08:25:00      -75.387     -104.613       -4.003       31.376       28.622       16.645      984.449      819.219      277.048        0.936        0.104      128.946       13.444        0.011      343.709       20.013      859.236
06/06/2014  08:26:00      -28.206      -32.907       12.992       43.313       39.160       24.020     1876.003     1533.472      576.970        0.302        0.199       43.341       21.919        0.256      344.292       21.008      859.243
06/06/2014  08:27:00      -55.358      -27.509        4.541       47.495       37.111       30.186     2255.800     1377.229      911.222        0.419        0.227       61.817       21.806        0.124      344.097       20.674      859.239
06/06/2014  08:28:00      -33.262      -14.499        3.038       24.055       19.460       19.402      578.647      378.673      376.432        0.133        0.067       36.285       14.625        0.162      344.312       21.042      859.253
06/06/2014  08:29:00      -45.996      -27.218        6.424       34.795       31.308       19.481     1210.706      980.196      379.493        0.273        0.129       53.446       19.231        0.129      344.331       21.074      859.270
06/06/2014  08:30:00      -18.197        0.509       17.864       19.952       17.061       14.881      398.078      291.072      221.451        0.078        0.046       18.204       11.352        0.389      344.802       21.879      859.267
06/06/2014  08:31:00        5.412        5.561       33.086       19.971       16.339       15.322      398.837      266.965      234.778        0.103        0.045        7.759        9.707        1.565      345.125       22.435      859.279
06/06/2014  08:32:00      -18.361      -19.918        6.866       27.804       16.621       22.659      773.078      276.245      513.445        0.117        0.078       27.089       13.537        0.250      344.326       21.066      859.282
06/06/2014  08:33:00       -6.841       -4.179       28.208       15.945       22.021       12.856      254.234      484.911      165.279        0.088        0.045        8.016        9.953        1.541      345.046       22.298      859.295
06/06/2014  08:34:00      -36.099       -8.389       10.407       27.054       25.782       16.290      731.919      664.732      265.368        0.157        0.083       37.061       17.019        0.211      344.531       21.417      859.289
06/06/2014  08:35:00      -58.899      -79.828       -1.693       38.378       30.431       22.121     1472.841      926.062      489.339        0.637        0.144       99.205       19.670        0.039      344.175       20.806      859.278
06/06/2014  08:36:00      -28.594      -43.520       20.563       50.729       40.095       29.987     2573.393     1607.605      899.248        0.411        0.254       52.073       22.247        0.183      344.666       21.647      859.278
06/06/2014  08:37:00      -42.868      -64.344       -3.292       29.162       34.170       22.960      850.429     1167.606      527.147        0.427        0.127       77.316       19.807        0.066      344.166       20.793      859.279
06/06/2014  08:38:00      -77.901      -77.683       -1.717       29.783       44.021       21.401      887.004     1937.811      458.009        0.769        0.164      110.014       19.448        0.031      344.155       20.775      859.284
06/06/2014  08:39:00      -38.084      -13.012       14.760       34.193       43.487       22.095     1169.129     1891.090      488.170        0.269        0.177       40.245       16.064        0.159      344.457       21.290      859.281
06/06/2014  08:40:00       -9.128      -18.174        0.928       22.992       16.174       16.910      528.611      261.593      285.946        0.075        0.054       20.337        9.416        0.214      344.433       21.248      859.291
06/06/2014  08:41:00      -21.505       -2.344        8.029       24.764       24.628       24.486      613.237      606.532      599.577        0.118        0.091       21.632       17.721        0.671      344.896       22.042      859.299
06/06/2014  08:42:00       -6.303       -4.056       27.515       18.254       14.689       17.782      333.207      215.753      316.202        0.084        0.043        7.495       11.051        2.174      345.549       23.160      859.291
06/06/2014  08:43:00       -6.650      -39.561       12.962       24.953       37.688       25.135      622.674     1420.348      631.772        0.223        0.134       40.116       18.648        0.216      344.963       22.156      859.274
06/06/2014  08:44:00      -13.033       -6.803       26.500       21.509       19.678       19.648      462.628      387.220      386.063        0.108        0.062       14.702       12.985        0.780      345.509       23.091      859.269
06/06/2014  08:45:00      -12.802      -18.338       17.052       18.386       26.190       22.962      338.039      685.898      527.232        0.117        0.078       22.365       13.341        0.356      345.131       22.444      859.263
06/06/2014  08:46:00       -9.158      -58.756       14.530       34.910       47.833       32.002     1218.743     2287.986     1024.114        0.414        0.227       59.465       27.626        0.216      344.949       22.132      859.264
06/06/2014  08:47:00      -20.739      -26.793       18.539       32.812       36.412       24.597     1076.650     1325.866      604.996        0.225        0.150       33.882       24.915        0.541      345.110       22.408      859.259
06/06/2014  08:48:00      -15.510       -9.443       12.896       15.050       17.126       17.396      226.500      293.316      302.634        0.066        0.041       18.158        7.586        0.175      344.991       22.203      859.248
06/06/2014  08:49:00        9.531      -31.615        7.888       37.491       37.254       26.307     1405.610     1387.893      692.050        0.232        0.174       33.020       13.818        0.175      344.464       21.304      859.241
06/06/2014  08:50:00        7.867       19.145       38.031       39.308       34.262       23.233     1545.100     1173.908      539.750        0.257        0.163       20.698       18.578        0.806      345.226       22.606      859.239
06/06/2014  08:51:00       46.006      -18.987       23.943       45.002       55.396       41.238     2025.165     3068.726     1700.604        0.492        0.340       49.770       42.487        0.729      344.434       21.252      859.240
06/06/2014  08:52:00       48.269      -36.290       10.031       42.478       38.260       37.169     1804.384     1463.837     1381.507        0.420        0.232       60.389       29.063        0.232      344.712       21.726      859.249
06/06/2014  08:53:00       -0.827      -29.106       18.579       29.328       44.611       29.926      860.124     1990.098      895.556        0.247        0.187       29.118       24.685        0.719      345.201       22.564      859.250
06/06/2014  08:54:00       33.834      -72.903        7.854       41.815       52.163       38.268     1748.534     2721.000     1464.421        0.623        0.297       80.372       22.477        0.078      345.051       22.305      859.253
06/06/2014  08:55:00       58.383      -21.495       23.336       38.480       48.853       36.921     1480.715     2386.635     1363.193        0.482        0.262       62.214       27.667        0.198      344.716       21.731      859.254
06/06/2014  08:56:00       56.659       16.393        8.838       33.441       36.025       33.478     1118.292     1297.822     1120.779        0.355        0.177       58.983       15.838        0.072      344.794       21.865      859.260
06/06/2014  08:57:00      -11.531       45.861        7.230       23.704       39.415       28.712      561.869     1553.570      824.376        0.261        0.147       47.289       18.007        0.145      345.142       22.462      859.262
06/06/2014  08:58:00        0.286       -1.724       15.377       21.298       20.152       13.854      453.586      406.092      191.939        0.065        0.053        1.747        6.495       13.817      345.738       23.483      859.269
06/06/2014  08:59:00      -35.202      -29.512        6.320       41.066       36.929       17.157     1686.386     1363.771      294.380        0.275        0.167       45.936       21.853        0.226      345.245       22.640      859.282
06/06/2014  09:00:00      -19.662      -11.033       25.892       33.054       32.792       19.985     1092.595     1075.336      399.402        0.187        0.128       22.546       19.411        0.741      345.530       23.127      859.283
06/06/2014  09:01:00      -10.307      -15.860       14.921       18.765       23.809       18.253      352.125      566.848      333.182        0.092        0.063       18.915       12.137        0.412      345.512       23.096      859.290
06/06/2014  09:02:00      -42.110      -37.235       14.179       29.798       30.743       20.634      887.893      945.158      425.780        0.281        0.113       56.211       14.040        0.062      345.038       22.284      859.301
06/06/2014  09:03:00       -6.908        7.002       49.163       41.824       59.705       26.838     1749.278     3564.738      720.263        0.427        0.302        9.836       28.992        8.688      345.550       23.162      859.300
06/06/2014  09:04:00       22.415       84.779      111.307       42.633       53.159       34.015     1817.566     2825.916     1157.053        1.294        0.290       87.693       36.964        0.178      345.285       22.708      859.297
06/06/2014  09:05:00       39.318       49.649       58.763       36.569       38.033       31.570     1337.265     1446.546      996.673        0.562        0.189       63.332       28.882        0.208      345.109       22.404      859.298
06/06/2014  09:06:00       71.866       61.910       51.886       96.032       49.808       48.230     9222.107     2480.860     2326.106        1.286        0.701       94.856       49.313        0.270      345.224       22.601      859.292
06/06/2014  09:07:00      114.218       66.687       32.088       69.780       46.938       51.650     4869.309     2203.136     2667.706        1.413        0.487      132.261       47.563        0.129      345.073       22.343      859.294
06/06/2014  09:08:00       82.075      113.755       82.273       94.554       62.428       63.428     8940.416     3897.199     4023.103        2.165        0.843      140.273       62.194        0.197      345.141       22.458      859.275
06/06/2014  09:09:00       -4.169       54.323       90.514       54.834       63.035       52.944     3006.810     3973.419     2803.060        1.047        0.489       54.483       52.686        0.935      345.663       23.354      859.275
06/06/2014  09:10:00      141.761       98.863       -1.127       64.409       53.597       39.896     4148.549     2872.610     1591.669        1.924        0.431      172.830       30.440        0.031      345.196       22.552      859.275
06/06/2014  09:11:00       60.031       63.698       38.462       57.031       52.584       42.918     3252.592     2765.096     1841.948        0.850        0.393       87.529       29.337        0.112      345.574       23.202      859.277
06/06/2014  09:12:00       63.458       53.660       38.194       29.838       30.497       30.370      890.285      930.048      922.340        0.555        0.137       83.104        9.338        0.013      345.421       22.939      859.271
06/06/2014  09:13:00       75.378       71.452       11.204       34.926       35.211       44.785     1219.838     1239.802     2005.683        0.769        0.223      103.862       22.027        0.045      345.371       22.853      859.266
06/06/2014  09:14:00       61.535       45.117       22.657       49.251       63.493       41.602     2425.624     4031.298     1730.702        0.726        0.409       76.302       33.866        0.197      345.290       22.715      859.260
06/06/2014  09:15:00      -41.466     -114.031        4.950       27.959       32.946       31.256      781.683     1085.432      976.911        0.879        0.142      121.337       24.553        0.041      345.136       22.450      859.252
06/06/2014  09:16:00       14.670      -97.987        7.172       44.609       32.997       30.245     1989.953     1088.832      914.784        0.693        0.200       99.079       25.656        0.067      345.244       22.636      859.240
06/06/2014  09:17:00      -51.066      -55.275       -2.811       26.821       28.586       20.687      719.367      817.136      427.941        0.382        0.098       75.253       12.453        0.027      345.036       22.279      859.250
06/06/2014  09:18:00      -73.935       -7.506        2.571       30.852       24.682       24.186      951.836      609.211      584.955        0.384        0.107       74.315       20.103        0.073      345.098       22.385      859.238
06/06/2014  09:19:00        6.212       21.900       51.105       32.990       26.640       23.593     1088.321      709.671      556.652        0.274        0.118       22.764       15.552        0.467      346.134       24.165      859.240
06/06/2014  09:20:00       45.928       44.841        8.448       25.083       17.539       32.217      629.172      307.633     1037.914        0.308        0.099       64.188       17.651        0.076      345.531       23.127      859.232
06/06/2014  09:21:00        1.601       29.111       50.743       25.221       29.472       26.748      636.080      868.604      715.457        0.282        0.111       29.155       20.840        0.511      346.407       24.634      859.222
06/06/2014  09:22:00       48.840       57.526       89.910       63.460       52.649       42.952     4027.173     2771.872     1844.894        1.121        0.432       75.463       45.634        0.366      345.531       23.128      859.224
06/06/2014  09:23:00       69.506       74.601       83.546       63.073       56.645       44.522     3978.187     3208.631     1982.211        1.327        0.458      101.962       39.867        0.153      345.439       22.969      859.224
06/06/2014  09:24:00       39.141       23.559       48.436       43.862       44.936       34.081     1923.850     2019.243     1161.517        0.477        0.255       45.684       24.719        0.293      345.854       23.682      859.213
06/06/2014  09:25:00      106.791       50.236        6.612       63.833       39.309       39.340     4074.616     1545.198     1547.652        1.057        0.358      118.017       29.997        0.065      345.568       23.191      859.194
06/06/2014  09:26:00       12.772       47.694       62.940       46.262       52.931       44.423     2140.177     2801.707     1973.400        0.666        0.346       49.374       34.630        0.492      345.944       23.837      859.178
06/06/2014  09:27:00       90.618       41.977       39.857       71.675       81.011       41.426     5137.270     6562.768     1716.077        1.249        0.671       99.868       46.256        0.215      345.537       23.137      859.158
06/06/2014  09:28:00       70.448      125.309      138.825       69.269       68.751       42.184     4798.169     4726.716     1779.510        2.562        0.565      143.754       42.450        0.087      345.588       23.222      859.149
06/06/2014  09:29:00       95.916      130.409      108.373       56.627       54.477       62.430     3206.587     2967.719     3897.535        2.401        0.504      161.884       46.535        0.083      345.437       22.965      859.136
06/06/2014  09:30:00      112.731       75.639       46.749       44.922       45.445       44.251     2017.978     2065.240     1958.191        1.333        0.302      135.755       17.189        0.016      345.331       22.786      859.139
06/06/2014  09:31:00      158.743       65.328       55.500       92.587       65.187       52.768     8572.438     4249.307     2784.431        2.407        0.780      171.660       36.266        0.045      345.590       23.228      859.110
06/06/2014  09:32:00       73.325       20.590       60.102       91.384       75.157       62.987     8351.102     5648.607     3967.305        1.369        0.898       76.161       64.114        0.709      345.943       23.836      859.111
06/06/2014  09:33:00      100.100      -66.675       20.286       85.140       82.913       49.362     7248.772     6874.629     2436.618        1.572        0.828      120.273       36.470        0.092      345.786       23.566      859.108
06/06/2014  09:34:00       90.627     -127.605       21.311       66.316       74.080       43.164     4397.844     5487.855     1863.152        1.835        0.587      156.512       48.108        0.094      345.662       23.353      859.093
06/06/2014  09:35:00       90.305      -78.595        5.692       73.313      103.744       64.234     5374.764    10762.714     4126.050        1.731        1.013      119.717       57.132        0.228      345.850       23.673      859.090
06/06/2014  09:36:00       84.375      -91.094        9.773       58.632       97.822       51.572     3437.757     9569.162     2659.695        1.559        0.783      124.167       62.085        0.250      345.799       23.588      859.105
06/06/2014  09:37:00      118.613     -139.372      -16.961       69.465       71.119       51.298     4825.353     5057.872     2631.522        2.315        0.626      183.013       51.066        0.078      345.771       23.537      859.094
06/06/2014  09:38:00        7.903       -2.144       69.890       34.776       50.096       38.945     1209.366     2509.657     1516.714        0.509        0.262        8.189       31.353       14.659      346.094       24.095      859.089
06/06/2014  09:39:00        0.705      -53.654       31.754       36.520       69.764       37.572     1333.692     4866.995     1411.650        0.575        0.381       53.658       40.043        0.557      346.126       24.150      859.078
06/06/2014  09:40:00       30.367       10.293       36.965       39.619       60.357       52.896     1569.627     3642.951     2797.994        0.520        0.401       32.064       30.694        0.916      345.876       23.722      859.087
06/06/2014  09:41:00      -26.884       -9.827        4.778       33.540       27.323       27.610     1124.947      746.567      762.339        0.174        0.132       28.624       22.389        0.612      345.668       23.364      859.070
06/06/2014  09:42:00       47.557        3.445       40.463       69.285       66.098       48.562     4800.378     4368.919     2358.312        0.772        0.576       47.681       56.598        1.409      346.164       24.215      859.070
06/06/2014  09:43:00       42.286       38.154       27.266       53.388       64.275       28.054     2850.245     4131.309      787.025        0.588        0.388       56.955       22.225        0.152      346.114       24.129      859.061
06/06/2014  09:44:00       23.762      -14.246       58.160       68.218       83.459       45.050     4653.706     6965.336     2029.518        0.890        0.682       27.705       48.630        3.081      346.213       24.299      859.040
06/06/2014  09:45:00       76.399       75.009       -0.510       76.577       55.304       51.631     5864.112     3058.585     2665.779        1.152        0.579      107.066       31.802        0.088      345.884       23.734      859.038
06/06/2014  09:46:00       33.652       96.936       11.758       58.058       59.119       40.131     3370.682     3494.998     1610.457        0.957        0.424      102.611       26.938        0.069      345.973       23.887      859.028
06/06/2014  09:47:00      179.592       87.804       48.482       78.651       53.368       50.559     6186.034     2848.102     2556.195        2.695        0.580      199.907       31.895        0.025      345.930       23.810      859.028
06/06/2014  09:48:00      174.541      127.254      101.100       60.789       60.841       67.054     3695.259     3701.683     4496.288        3.438        0.595      216.005       38.322        0.031      345.614       23.266      859.029
06/06/2014  09:49:00      116.125       68.602       40.431       60.035       55.865       56.770     3604.260     3120.936     3222.872        1.489        0.497      134.875       34.680        0.066      345.493       23.061      859.032
06/06/2014  09:50:00       16.431       59.419       93.195       83.982       83.205       86.749     7052.895     6923.013     7525.398        1.699        1.075       61.649       76.419        1.537      345.911       23.779      859.024
06/06/2014  09:51:00       80.183       49.020       62.654       70.284       55.523       46.646     4939.876     3082.788     2175.842        1.148        0.510       93.980       43.428        0.214      346.123       24.145      859.015
06/06/2014  09:52:00       19.907       13.801       44.274       33.841       57.118       34.005     1145.180     3262.427     1156.372        0.405        0.278       24.223       36.029        2.212      346.213       24.299      859.016
06/06/2014  09:53:00       30.041       24.005       29.866       26.840       24.863       20.725      720.361      618.188      429.526        0.207        0.088       38.454        6.336        0.027      346.178       24.239      859.010
06/06/2014  09:54:00      -14.368       70.452        4.332       29.698       52.758       31.175      881.994     2783.418      971.897        0.491        0.232       71.902       29.391        0.167      346.097       24.102      858.995
06/06/2014  09:55:00       37.825       37.307       19.772       61.736       47.686       27.537     3811.393     2273.951      758.297        0.503        0.342       53.128       29.270        0.304      346.651       25.051      858.987
06/06/2014  09:56:00      110.374      105.245       -5.574       47.297       50.506       40.553     2237.053     2550.818     1644.555        1.486        0.322      152.509       30.931        0.041      345.799       23.588      858.973
06/06/2014  09:57:00       59.177       69.644        3.076       54.423       55.259       43.949     2961.851     3053.517     1931.514        0.815        0.397       91.391       36.639        0.161      346.546       24.874      858.974
06/06/2014  09:58:00       -3.922       60.434       20.445       38.609       57.682       32.192     1490.652     3327.231     1036.301        0.497        0.293       60.561       32.914        0.295      346.660       25.067      858.975
06/06/2014  09:59:00       33.664       33.129       18.668       49.818       46.411       38.348     2481.817     2153.962     1470.548        0.434        0.305       47.231       28.386        0.361      346.609       24.981      858.958
06/06/2014  10:00:00      133.642       84.140       32.381       89.378       61.018       45.012     7988.358     3723.251     2026.121        1.986        0.687      157.923       30.543        0.037      346.454       24.713      858.948
06/06/2014  10:01:00      130.548       81.262        1.176       53.962       34.701       30.761     2911.873     1204.153      946.248        1.435        0.253      153.774       15.518        0.010      345.699       23.414      858.970
06/06/2014  10:02:00       56.289       91.442      101.323       46.135       47.640       33.971     2128.409     2269.535     1154.057        1.367        0.278      107.378       18.545        0.030      346.175       24.234      858.958
06/06/2014  10:03:00       64.115       46.084       41.856       55.516       68.029       57.008     3082.001     4627.901     3249.864        0.947        0.548       78.958       52.797        0.447      346.029       23.983      858.968
06/06/2014  10:04:00       50.859       46.662       11.627       30.130       30.120       31.692      907.792      907.227     1004.364        0.386        0.141       69.022       13.599        0.039      346.276       24.407      858.956
06/06/2014  10:05:00      104.934       87.095       34.623       57.388       50.979       40.470     3293.354     2598.860     1637.816        1.366        0.377      136.370       23.059        0.029      346.372       24.573      858.953
06/06/2014  10:06:00       56.532       50.917       -5.356       58.236       33.928       26.599     3391.432     1151.097      707.524        0.553        0.263       76.082       15.787        0.043      345.936       23.824      858.965
06/06/2014  10:07:00       32.495        7.863       42.392       46.658       67.077       55.580     2176.938     4499.384     3089.135        0.634        0.488       33.433       56.257        2.831      346.282       24.419      858.962
06/06/2014  10:08:00       16.574       10.118       14.174       28.670       24.977       35.697      821.978      623.831     1274.267        0.165        0.136       19.418       19.831        1.043      346.286       24.424      858.967
06/06/2014  10:09:00       36.584       16.373       59.002       44.026       57.707       40.459     1938.315     3330.130     1636.894        0.600        0.345       40.081       39.933        0.993      346.687       25.114      858.957
06/06/2014  10:10:00       13.711        4.699       60.718       41.099       68.121       49.084     1689.168     4640.507     2409.209        0.632        0.437       14.494       49.670       11.744      347.135       25.886      858.959
06/06/2014  10:11:00       13.739       34.880       80.873       59.026       87.252       57.123     3484.025     7612.971     3263.081        1.115        0.718       37.488       61.557        2.696      346.600       24.964      858.956
06/06/2014  10:12:00       37.666      -18.001       57.695       54.756       80.366       47.888     2998.216     6458.701     2293.288        0.841        0.588       41.746       47.522        1.296      346.939       25.548      858.958
06/06/2014  10:13:00       82.234      -81.112        2.733       50.447       57.680       48.099     2544.879     3326.961     2313.551        1.077        0.409      115.506       46.700        0.163      346.387       24.599      858.953
06/06/2014  10:14:00        2.860      -11.590       26.993       46.590       43.354       33.149     2170.604     1879.530     1098.888        0.301        0.257       11.938       31.982        7.177      346.998       25.650      858.962
06/06/2014  10:15:00       15.073     -110.726        7.950       46.691       63.398       49.088     2180.040     4019.270     2409.589        1.058        0.430      111.747       40.394        0.131      346.358       24.548      858.944
06/06/2014  10:16:00       18.823      -97.380        7.673       40.172       66.859       45.473     1613.819     4470.085     2067.763        0.902        0.408       99.182       39.109        0.155      346.497       24.787      858.943
06/06/2014  10:17:00       20.381        7.408       39.970       39.691       78.740       40.539     1575.345     6199.916     1643.389        0.574        0.471       21.686       36.834        2.885      346.492       24.780      858.941
06/06/2014  10:18:00      -29.016      -40.098        0.311       64.343       32.995       26.038     4140.081     1088.649      677.996        0.418        0.295       49.495       20.860        0.178      346.027       23.980      858.934
06/06/2014  10:19:00        1.108       16.370       49.224       23.170       36.119       25.235      536.826     1304.550      636.824        0.258        0.124       16.408       19.729        1.446      347.490       26.498      858.912
06/06/2014  10:20:00      -22.403      -11.626       24.266       44.884       39.280       27.188     2014.582     1542.930      739.182        0.276        0.215       25.240       31.681        1.576      346.773       25.263      858.903
06/06/2014  10:21:00       40.548       31.581       34.750       37.870       39.219       27.668     1434.169     1538.107      765.509        0.379        0.187       51.395       22.395        0.190      346.912       25.500      858.897
06/06/2014  10:22:00       47.414      -64.094        8.680       43.221       44.017       31.654     1868.048     1937.496     1001.965        0.562        0.240       79.725       26.335        0.109      346.619       24.997      858.891
06/06/2014  10:23:00       24.008      -15.088       32.341       33.501       56.826       34.513     1122.293     3229.224     1191.118        0.370        0.277       28.356       38.005        1.796      347.033       25.710      858.885
06/06/2014  10:24:00       15.998       11.325       41.839       47.022       72.130       56.897     2211.030     5202.694     3237.224        0.639        0.533       19.600       46.561        5.643      347.231       26.051      858.879
06/06/2014  10:25:00       47.582       17.776       86.493       60.088       82.707       55.858     3610.589     6840.368     3120.088        1.181        0.679       50.794       57.107        1.264      346.870       25.429      858.879
06/06/2014  10:26:00       13.134       19.081       67.679       42.959       59.671       36.483     1845.441     3560.573     1331.021        0.593        0.337       23.164       26.688        1.327      347.151       25.914      858.876
06/06/2014  10:27:00       -7.320      -25.156       39.352       42.525       60.497       41.286     1808.405     3659.923     1704.496        0.470        0.359       26.199       20.243        0.597      346.782       25.278      858.882
06/06/2014  10:28:00       27.368      -12.676       -0.305       34.722       32.476       29.330     1205.635     1054.700      860.277        0.201        0.156       30.161       12.087        0.161      346.886       25.456      858.882
06/06/2014  10:29:00       -0.541       -3.133       27.433       17.248       15.844       13.962      297.482      251.024      194.947        0.075        0.037        3.179        9.069        8.137      347.368       26.286      858.875
06/06/2014  10:30:00        8.664       15.819       33.107       21.462       16.308       26.782      460.633      265.959      717.265        0.143        0.072       18.036        9.076        0.253      347.321       26.205      858.853
06/06/2014  10:31:00      -39.023      -29.363        5.888       28.555       22.348       25.351      815.404      499.443      642.652        0.219        0.098       48.836       19.203        0.155      346.612       24.985      858.854
06/06/2014  10:32:00      -23.887      -13.150       11.787       36.687       27.567       26.464     1345.916      759.919      700.342        0.184        0.140       27.268       30.840        1.279      347.031       25.708      858.847
06/06/2014  10:33:00      -36.516        0.980       20.472       41.132       20.812       24.361     1691.822      433.138      593.460        0.224        0.136       36.529       26.864        0.541      347.361       26.274      858.846
06/06/2014  10:34:00      -18.042        3.764       24.420       18.109       13.445       14.411      327.926      180.771      207.670        0.083        0.036       18.431        7.656        0.173      347.619       26.721      858.853
06/06/2014  10:35:00      -36.493       -1.444       19.194       32.820       33.195       22.262     1077.163     1101.898      495.583        0.219        0.134       36.521       16.207        0.197      347.161       25.933      858.848
06/06/2014  10:36:00      -54.630      -12.926        0.502       20.539       43.698       19.693      421.845     1909.528      387.801        0.293        0.136       56.138       18.694        0.111      346.583       24.934      858.862
06/06/2014  10:37:00       37.257      -73.542       34.504       85.529       77.724       61.577     7315.284     6041.033     3791.767        1.256        0.857       82.442       51.743        0.394      347.160       25.929      858.854
06/06/2014  10:38:00       72.280      -62.595       43.459       61.236      113.903       61.896     3749.863    12973.781     3831.129        1.579        1.028       95.616       74.721        0.611      346.694       25.126      858.864
06/06/2014  10:39:00       84.144      -90.179        8.489       80.177      104.660       69.583     6428.371    10953.755     4841.818        1.875        1.111      123.339       76.589        0.386      346.926       25.522      858.860
06/06/2014  10:40:00       94.403      -76.115      -14.993       72.124       86.949       54.968     5201.817     7560.148     3021.464        1.535        0.789      121.266       55.371        0.208      346.890       25.463      858.877
06/06/2014  10:41:00       -0.111      -38.535       31.672       55.643       76.282       43.605     3096.192     5818.876     1901.398        0.665        0.541       38.535       44.019        1.305      347.017       25.683      858.882
06/06/2014  10:42:00       -4.686       -1.024       48.195       15.923       31.985       21.952      253.539     1023.069      481.895        0.205        0.088        4.796       22.440       21.889      347.611       26.707      858.888
06/06/2014  10:43:00       31.620       88.147       56.483       66.975       53.120       57.247     4485.663     2821.737     3277.276        1.127        0.529       93.647       46.918        0.251      347.085       25.799      858.874
06/06/2014  10:44:00       64.971       92.368      101.675       50.504       56.889       51.252     2550.631     3236.369     2626.717        1.575        0.421      112.930       24.885        0.049      346.765       25.248      858.846
06/06/2014  10:45:00       68.527       35.367       43.115       50.137       39.366       45.451     2513.702     1549.675     2065.760        0.697        0.306       77.115       35.661        0.214      346.725       25.179      858.854
06/06/2014  10:46:00      143.621       96.772       40.548       41.601       35.345       41.187     1730.610     1249.266     1696.338        1.816        0.234      173.181       21.837        0.016      346.594       24.953      858.836
06/06/2014  10:47:00       82.753       62.925        7.758       58.951       51.583       33.619     3475.179     2660.804     1130.263        0.907        0.363      103.960       23.284        0.050      346.855       25.402      858.823
06/06/2014  10:48:00       59.972       51.876        4.228       34.376       29.223       33.769     1181.682      853.968     1140.360        0.474        0.159       79.295       14.474        0.033      346.935       25.541      858.815
06/06/2014  10:49:00       67.398       91.729      105.054       81.465       74.544       67.363     6636.503     5556.738     4537.761        2.036        0.837      113.827       60.142        0.279      347.150       25.910      858.806
06/06/2014  10:50:00      114.768       69.295       75.222       57.099       49.295       39.043     3260.298     2429.968     1524.319        1.542        0.361      134.066       26.790        0.040      346.793       25.295      858.826
06/06/2014  10:51:00       84.918       42.687       22.224       32.653       34.589       34.919     1066.212     1196.384     1219.363        0.650        0.174       95.043       24.597        0.067      346.440       24.690      858.822
06/06/2014  10:52:00       31.121      -20.969       26.954       44.079       76.046       45.091     1942.995     5782.940     2033.189        0.595        0.488       37.526       33.021        0.774      347.278       26.132      858.805
06/06/2014  10:53:00       51.125       67.565      124.132       74.026      100.693       71.876     5479.890    10139.074     5166.115        2.168        1.039       84.728       71.389        0.710      347.319       26.202      858.804
06/06/2014  10:54:00       80.635       87.768       78.896       89.327       66.902       72.348     7979.239     4475.884     5234.223        1.906        0.884      119.186       65.922        0.306      347.251       26.084      858.807
06/06/2014  10:55:00      143.019       88.872        0.138       47.315       40.824       37.052     2238.748     1666.574     1372.887        1.681        0.264      168.382       23.339        0.019      346.870       25.428      858.821
06/06/2014  10:56:00       73.471       51.821      -12.280       36.346       24.820       23.555     1321.019      616.056      554.833        0.536        0.125       89.908       16.911        0.035      346.930       25.532      858.833
06/06/2014  10:57:00      -25.537       -1.189      -14.792       26.868       25.525       26.567      721.898      651.536      705.795        0.148        0.104       25.565       14.588        0.326      346.992       25.640      858.824
06/06/2014  10:58:00       10.527       26.499       32.924       35.863       31.197       25.127     1286.142      973.254      631.344        0.239        0.145       28.513       25.675        0.811      347.735       26.919      858.821
06/06/2014  10:59:00       15.188       28.104       35.581       44.506       36.083       30.716     1980.813     1302.007      943.487        0.326        0.211       31.945       23.593        0.545      347.734       26.919      858.810
06/06/2014  11:00:00        9.402      -51.336       25.364       41.297       89.175       42.873     1705.431     7952.140     1838.068        0.743        0.575       52.190       52.550        1.014      347.688       26.840      858.807
06/06/2014  11:01:00      -22.538      -31.810       11.303       33.536       55.217       29.472     1124.635     3048.874      868.613        0.334        0.252       38.985       14.144        0.132      347.564       26.624      858.803
06/06/2014  11:02:00      -46.829      -34.673        4.560       69.880       51.737       37.294     4883.225     2676.724     1390.826        0.618        0.448       58.268       31.375        0.290      347.467       26.459      858.807
06/06/2014  11:03:00      -51.492     -130.083       -8.341       58.071       73.538       46.566     3372.285     5407.796     2168.357        1.529        0.547      139.904       42.546        0.092      347.087       25.802      858.803
06/06/2014  11:04:00      -67.152      -84.994        6.319       54.203       48.153       36.133     2937.922     2318.724     1305.609        0.917        0.328      108.321       26.652        0.061      347.156       25.921      858.820
06/06/2014  11:05:00     -120.196       -7.623      -17.139       39.100       30.551       37.101     1528.824      933.387     1376.496        0.932        0.192      120.437        9.850        0.007      346.675       25.092      858.827
06/06/2014  11:06:00     -115.211      -23.489      -29.188       22.095       37.117       19.106      488.175     1377.673      365.031        0.845        0.112      117.581       12.621        0.012      346.597       24.960      858.834
06/06/2014  11:07:00     -109.111       -2.549      -28.424       26.738       28.499       24.339      714.926      812.198      592.382        0.742        0.106      109.141       15.063        0.019      346.621       25.000      858.834
06/06/2014  11:08:00     -158.062       23.597      -13.254       53.426       40.747       19.532     2854.313     1660.291      381.481        1.531        0.245      159.813       16.203        0.010      346.698       25.133      858.820
06/06/2014  11:09:00      -88.223       20.231        2.477       61.261       48.090       24.809     3752.916     2312.678      615.500        0.744        0.334       90.513       26.975        0.089      346.910       25.498      858.813
06/06/2014  11:10:00      -48.125      -74.030        5.583       43.030       57.989       24.165     1851.561     3362.690      583.971        0.681        0.290       88.298       20.556        0.054      346.952       25.571      858.804
06/06/2014  11:11:00      -95.760     -106.276       -4.423       78.457       72.918       28.900     6155.506     5317.097      835.199        1.639        0.615      143.055       30.054        0.044      346.770       25.257      858.787
06/06/2014  11:12:00      -50.145     -101.240        1.703       64.680       51.835       28.829     4183.537     2686.830      831.103        1.023        0.385      112.978       27.714        0.060      346.942       25.551      858.764
06/06/2014  11:13:00      -54.128     -118.823       -0.267       32.554       30.067       28.357     1059.751      904.008      804.140        0.991        0.138      130.571       18.813        0.021      346.979       25.614      858.783
06/06/2014  11:14:00      -45.444      -86.561       13.224       31.586       26.759       26.676      997.698      716.068      711.618        0.608        0.121       97.765       10.953        0.013      347.261       26.103      858.770
06/06/2014  11:15:00       16.554     -102.768        8.941       52.425       65.415       49.899     2748.352     4279.171     2489.869        1.021        0.476      104.093       39.980        0.148      347.811       27.051      858.762
06/06/2014  11:16:00       36.272       -3.141       67.035       65.497       89.229       53.830     4289.813     7961.834     2897.689        1.048        0.757       36.408       48.923        1.806      347.970       27.325      858.742
06/06/2014  11:17:00       73.408      109.395      110.638       60.211       52.465       40.854     3625.330     2752.624     1669.047        1.882        0.402      131.742       35.602        0.073      347.754       26.951      858.756
06/06/2014  11:18:00       80.630       36.933       38.639       56.092       42.481       49.289     3146.364     1804.620     2429.386        0.837        0.369       88.686       25.258        0.081      347.880       27.169      858.749
06/06/2014  11:19:00       84.992        3.024       25.259       75.351       93.668       68.348     5677.803     8773.774     4671.414        1.349        0.956       85.046       52.133        0.376      347.945       27.282      858.727
06/06/2014  11:20:00       94.324       86.972       74.820       78.875       55.098       64.087     6221.228     3035.748     4107.156        1.771        0.668      128.301       39.190        0.093      348.229       27.772      858.730
06/06/2014  11:21:00       73.790       34.900       21.054       31.642       40.529       30.175     1001.203     1642.597      910.540        0.533        0.178       81.627       16.752        0.042      347.869       27.152      858.735
06/06/2014  11:22:00       18.527       63.401        6.164       42.191       63.165       28.769     1780.097     3989.801      827.663        0.550        0.330       66.052       24.426        0.137      347.529       26.565      858.717
06/06/2014  11:23:00      107.496       51.959       25.244       54.208       55.892       43.620     2938.482     3123.917     1902.679        1.143        0.398      119.395       33.774        0.080      347.675       26.817      858.698
06/06/2014  11:24:00      131.515       52.986       25.720       96.347       72.788       58.959     9282.834     5298.041     3476.193        1.941        0.903      141.788       54.847        0.150      347.709       26.874      858.685
06/06/2014  11:25:00      272.485      199.052       44.337      150.894      108.480       66.962    22768.881    11767.852     4483.918        7.742        1.951      337.446       37.590        0.012      347.501       26.512      858.675
06/06/2014  11:26:00      169.758      124.021       60.286      111.042       81.772       57.057    12330.396     6686.614     3255.495        3.505        1.114      210.235       58.944        0.079      347.629       26.735      858.673
06/06/2014  11:27:00      213.158      122.881       29.930      109.921       87.952       65.199    12082.634     7735.554     4250.919        4.275        1.203      246.041       32.224        0.017      347.490       26.493      858.651
06/06/2014  11:28:00      180.931      116.401       86.065      146.423       81.722       76.367    21439.586     6678.493     5831.853        4.381        1.697      215.140       56.372        0.069      347.683       26.829      858.632
06/06/2014  11:29:00      215.002      206.779       56.214      178.426       97.817       81.063    31835.975     9568.132     6571.253        7.005        2.399      298.301       78.587        0.069      347.716       26.885      858.630
06/06/2014  11:30:00      221.107      164.890       80.204      175.991      109.596       90.101    30972.729    12011.279     8118.214        6.680        2.555      275.821       93.125        0.114      347.667       26.799      858.649
06/06/2014  11:31:00       45.201      102.610       35.340       52.848       69.875       69.181     2792.936     4882.449     4786.008        1.314        0.623      112.124       53.041        0.224      347.706       26.870      858.683
06/06/2014  11:32:00     -121.446      141.538      -30.156       88.680       71.316       34.465     7864.214     5086.006     1187.833        2.491        0.707      186.500       27.758        0.022      347.213       26.017      858.666
06/06/2014  11:33:00     -217.444       31.214      -24.011       34.297       39.680       31.210     1176.315     1574.488      974.037        2.628        0.186      219.673       15.084        0.005      346.921       25.514      858.628
06/06/2014  11:34:00      -42.145       15.934       26.891      101.040       41.356       40.038    10209.144     1710.344     1603.026        0.814        0.676       45.057       53.685        1.420      347.760       26.964      858.616
06/06/2014  11:35:00      142.332       46.015      100.795      105.486       78.568       61.820    11127.303     6172.907     3821.753        2.682        1.056      149.585       64.426        0.186      347.679       26.821      858.617
06/06/2014  11:36:00      141.496     -130.452       -6.682       96.553       76.055       48.609     9322.570     5784.335     2362.834        2.727        0.873      192.455       36.041        0.035      347.737       26.921      858.582
06/06/2014  11:37:00       97.265      -90.063       56.788      100.166      146.757       94.385    10033.201    21537.546     8908.582        3.063        2.024      132.558       98.222        0.549      348.020       27.410      858.555
06/06/2014  11:38:00      119.035     -217.338        3.028       94.989      109.458       80.863     9022.822    11980.954     6538.878        4.447        1.377      247.801       74.054        0.089      347.733       26.912      858.553
06/06/2014  11:39:00      102.474     -183.748      -16.267      108.990      106.917       76.631    11878.845    11431.226     5872.336        3.685        1.459      210.391       63.803        0.092      347.770       26.978      858.563
06/06/2014  11:40:00       40.513      -29.776       64.917       85.904      151.158       80.216     7379.583    22848.755     6434.617        2.170        1.833       50.278      100.877        4.026      347.971       27.327      858.572
06/06/2014  11:41:00      114.751     -125.198        5.984       97.752      142.529       71.948     9555.486    20314.457     5176.565        3.196        1.752      169.831       83.001        0.239      348.100       27.549      858.544
06/06/2014  11:42:00       72.702      -19.647       56.883       77.498       92.509       69.708     6005.985     8557.890     4859.177        1.416        0.971       75.310       69.297        0.847      348.311       27.914      858.547
06/06/2014  11:43:00       70.991       42.834       90.286       78.918       64.482       46.420     6228.026     4157.963     2154.782        1.378        0.627       82.912       34.548        0.174      348.037       27.441      858.548
06/06/2014  11:44:00       24.512       73.382      113.523       55.001       64.991       47.177     3025.131     4223.839     2225.672        1.417        0.474       77.367       40.176        0.270      348.084       27.522      858.536
06/06/2014  11:45:00       79.199     -138.503       18.234       91.481      142.146       77.062     8368.847    20205.418     5938.530        3.014        1.726      159.548       91.349        0.328      347.888       27.181      858.508
06/06/2014  11:46:00       98.521        1.934      106.456      103.300      169.413       78.743    10670.788    28700.892     6200.476        3.330        2.279       98.540       94.295        0.916      348.203       27.727      858.507
06/06/2014  11:47:00      166.867      154.054      165.754       97.807      101.126       68.663     9566.176    10226.425     4714.665        5.177        1.225      227.106       65.623        0.083      347.591       26.665      858.518
06/06/2014  11:48:00      138.582      191.103      152.735      121.863       85.848       85.866    14850.505     7369.936     7372.887        5.432        1.480      236.062       63.781        0.073      347.674       26.811      858.512
06/06/2014  11:49:00      187.200      -14.627       35.404      113.422      108.498       69.263    12864.514    11771.860     4797.317        3.297        1.472      187.770       46.315        0.061      347.504       26.520      858.511
06/06/2014  11:50:00       51.113      -26.972       49.805       88.584      120.362       61.056     7847.183    14487.114     3727.811        1.594        1.303       57.793       63.972        1.225      348.064       27.487      858.491
06/06/2014  11:51:00       83.159      -50.117       48.976       97.892      172.862       89.291     9582.860    29881.230     7972.872        2.962        2.372       97.093      109.701        1.277      348.030       27.426      858.479
06/06/2014  11:52:00       46.481        3.195       84.489       75.492      144.079       60.582     5699.002    20758.877     3670.233        1.971        1.506       46.591       61.926        1.767      348.388       28.046      858.496
06/06/2014  11:53:00       50.373       60.088      109.919       64.737       92.670       58.796     4190.869     8587.760     3456.987        1.723        0.812       78.409       50.411        0.413      348.293       27.882      858.510
06/06/2014  11:54:00      124.862       78.718       65.942       92.080       85.191       57.902     8478.729     7257.574     3352.607        2.261        0.954      147.604       51.522        0.122      348.172       27.673      858.507
06/06/2014  11:55:00      177.540      111.529       58.118       91.628      103.629       74.656     8395.625    10738.922     5573.466        3.602        1.235      209.665       57.489        0.075      348.077       27.508      858.520
06/06/2014  11:56:00       52.269       57.026       56.573       83.442       69.556       48.359     6962.531     4837.996     2338.627        1.166        0.707       77.357       33.841        0.191      348.327       27.941      858.551
06/06/2014  11:57:00      125.745       87.483       25.318       53.771       46.940       38.521     2891.374     2203.365     1483.902        1.534        0.329      153.183       30.080        0.039      347.875       27.161      858.546
06/06/2014  11:58:00       98.941       68.002       70.134       63.759       58.067       60.978     4065.264     3371.791     3718.348        1.524        0.558      120.056       38.536        0.103      347.953       27.295      858.541
06/06/2014  11:59:00       67.526      -46.324       61.882       50.521      116.877       61.155     2552.326    13660.157     3739.957        1.524        0.998       81.888       66.025        0.650      347.873       27.158      858.510
06/06/2014  12:00:00       84.468       24.165       20.154       64.684      104.403       64.210     4184.008    10899.898     4122.901        1.366        0.960       87.857       51.911        0.349      348.158       27.652      858.494
06/06/2014  12:01:00      121.937      -99.428       24.354      120.103      170.205       92.871    14424.845    28969.642     8625.028        3.867        2.601      157.336      113.508        0.520      347.928       27.252      858.471
06/06/2014  12:02:00      141.536     -298.169      -30.962       81.206       71.170       46.157     6594.423     5065.153     2130.464        6.184        0.690      330.057       33.512        0.010      347.661       26.788      858.459
06/06/2014  12:03:00       42.446     -161.885      -26.129       60.119       95.448       54.197     3614.307     9110.273     2937.365        2.217        0.783      167.357       43.996        0.069      347.792       27.016      858.459
06/06/2014  12:04:00       58.551     -106.996       -2.865       72.892       69.539       37.147     5313.208     4835.634     1379.873        1.320        0.576      121.969       40.151        0.108      347.987       27.355      858.459
06/06/2014  12:05:00        5.603       21.476       81.441       40.338       56.300       42.932     1627.132     3169.634     1843.178        0.688        0.332       22.195       32.611        2.159      348.472       28.195      858.466
06/06/2014  12:06:00      -14.283       86.408      131.082       37.813       68.411       36.618     1429.814     4680.065     1340.856        1.615        0.373       87.580       38.194        0.190      348.390       28.050      858.480
06/06/2014  12:07:00       84.178       71.505      103.010       63.114       53.874       52.398     3983.417     2902.373     2745.569        1.622        0.482      110.449       26.645        0.058      348.377       28.028      858.489
06/06/2014  12:08:00       78.261       63.206       75.601       88.761      106.729       72.887     7878.593    11391.028     5312.475        2.020        1.229      100.597       64.857        0.416      348.231       27.774      858.475
06/06/2014  12:09:00       89.571       94.926       83.550      121.740       86.555       97.073    14820.612     7491.722     9423.242        2.787        1.587      130.513       89.200        0.467      348.517       28.269      858.462
06/06/2014  12:10:00      167.717      106.028       69.682       94.767       77.418       74.498     8980.828     5993.517     5549.993        3.237        1.026      198.422       60.261        0.092      348.387       28.042      858.479
06/06/2014  12:11:00      176.667      120.765        2.434       69.334       60.195       43.684     4807.156     3623.388     1908.264        2.807        0.517      213.999       31.321        0.021      348.002       27.379      858.504
06/06/2014  12:12:00      126.520       54.574       26.831       72.451       63.964       43.454     5249.199     4091.376     1888.213        1.546        0.561      137.789       29.862        0.047      347.844       27.108      858.502
06/06/2014  12:13:00      140.703       96.730       14.734       58.876       32.317       37.550     3466.380     1044.407     1410.040        1.764        0.296      170.745       25.129        0.022      347.623       26.725      858.489
06/06/2014  12:14:00      154.802       70.212       54.816       93.837       85.963       75.180     8805.296     7389.696     5652.022        2.687        1.092      169.981       55.259        0.106      348.009       27.389      858.471
06/06/2014  12:15:00       87.507       97.779      119.618       92.805       78.626       61.474     8612.690     6182.042     3779.083        2.505        0.929      131.218       57.995        0.195      347.900       27.201      858.473
06/06/2014  12:16:00       92.808       37.355       49.946       97.756       93.034       81.054     9556.241     8655.284     6569.781        1.864        1.239      100.044       76.007        0.577      347.712       26.878      858.489
06/06/2014  12:17:00       23.282      -31.788        0.662       48.101       78.350       36.166     2313.680     6138.667     1307.961        0.565        0.488       39.402       17.316        0.193      347.977       27.338      858.473
06/06/2014  12:18:00       26.466       26.837       15.230       46.837       53.187       33.646     2193.683     2828.818     1132.071        0.390        0.308       37.692       14.318        0.144      348.282       27.864      858.472
06/06/2014  12:19:00       35.413       72.223       83.160       59.929       59.126       57.977     3591.516     3495.934     3361.276        1.192        0.522       80.437       44.362        0.304      348.479       28.206      858.461
06/06/2014  12:20:00       14.174       45.239       86.440       51.483       59.628       49.824     2650.483     3555.540     2482.442        0.920        0.434       47.407       38.787        0.669      348.539       28.311      858.429
06/06/2014  12:21:00       60.503       -7.785       41.896       42.102       66.559       38.230     1772.601     4430.134     1461.543        0.657        0.383       61.002       35.685        0.342      348.325       27.940      858.429
06/06/2014  12:22:00       45.136       45.424      119.913       70.687      104.490       68.793     4996.618    10918.120     4732.445        1.956        1.032       64.036       54.486        0.724      348.508       28.254      858.422
06/06/2014  12:23:00      163.170     -256.017      -33.914      106.226       90.913       44.417    11284.025     8265.228     1972.854        5.742        1.076      303.594       62.404        0.042      347.449       26.423      858.413
06/06/2014  12:24:00      -34.398      -84.148       19.418      106.754       76.832       49.645    11396.497     5903.171     2464.608        1.420        0.988       90.907       49.121        0.292      348.410       28.085      858.393
06/06/2014  12:25:00        8.664      -29.400       25.036       66.888       58.698       50.344     4473.957     3445.465     2534.498        0.601        0.523       30.650       44.229        2.082      348.873       28.887      858.371
06/06/2014  12:26:00      -20.340      -31.872       36.650       47.661       71.263       49.949     2271.580     5078.345     2494.881        0.631        0.492       37.809       50.654        1.795      348.638       28.481      858.395
06/06/2014  12:27:00      101.534       83.899       54.481       89.618       60.150       50.307     8031.468     3618.082     2530.826        1.725        0.709      131.713       48.454        0.135      348.495       28.231      858.406
06/06/2014  12:28:00       78.898       60.969       40.645       62.300       82.407       55.052     3881.275     6790.933     3030.725        1.265        0.685       99.710       37.096        0.138      348.325       27.939      858.381
06/06/2014  12:29:00      200.574     -268.572      -43.026       71.415       87.527       45.281     5100.108     7660.900     2050.355        6.451        0.741      335.203       40.189        0.014      348.055       27.468      858.363
06/06/2014  12:30:00       90.159      -51.737       37.872       63.810      138.996       73.893     4071.775    19319.811     5460.191        2.054        1.443      103.948       91.746        0.779      348.300       27.893      858.376
06/06/2014  12:31:00      209.024      144.727      121.243      121.447      114.151       95.792    14749.457    13030.339     9176.068        5.814        1.848      254.238       80.726        0.101      348.516       28.265      858.406
06/06/2014  12:32:00      163.474      101.536       50.066       98.448       78.046       78.433     9692.081     6091.130     6151.713        3.073        1.097      192.440       60.515        0.099      348.131       27.602      858.420
06/06/2014  12:33:00       56.046        4.583       28.848       60.258       57.124       29.324     3631.013     3263.122      859.909        0.587        0.388       56.233       17.574        0.098      348.023       27.417      858.424
06/06/2014  12:34:00      223.234      150.408       31.951      120.382       91.520       55.396    14491.761     8375.938     3068.708        4.970        1.297      269.177       25.321        0.009      347.949       27.287      858.406
06/06/2014  12:35:00      351.857      223.814       55.740      122.793       76.317       79.268    15078.190     5824.327     6283.466       10.209        1.359      417.008       43.421        0.011      347.765       26.968      858.393
06/06/2014  12:36:00      186.963      124.538       18.702       61.800       61.492       56.679     3819.263     3781.217     3212.491        3.081        0.541      224.644       43.571        0.038      347.898       27.198      858.422
06/06/2014  12:37:00       66.766       34.610      -12.260       66.048       68.849       33.037     4362.337     4740.182     1091.432        0.800        0.510       75.204       32.230        0.184      347.873       27.158      858.421
06/06/2014  12:38:00      -11.221       47.188       -6.172       44.175       59.546       24.783     1951.466     3545.755      614.210        0.425        0.306       48.503       26.605        0.301      348.115       27.577      858.380
06/06/2014  12:39:00       51.859       67.716        1.747       65.416       46.194       36.800     4279.208     2133.863     1354.235        0.752        0.388       85.293       15.892        0.035      348.102       27.555      858.354
06/06/2014  12:40:00        2.565      106.741       -2.436       46.788       58.519       37.069     2189.098     3424.529     1374.128        0.920        0.349      106.772       34.998        0.107      348.276       27.853      858.337
06/06/2014  12:41:00      -35.428       53.854        6.970       45.599       35.462       35.375     2079.268     1257.548     1251.367        0.440        0.229       64.463       24.483        0.144      348.752       28.679      858.311
06/06/2014  12:42:00       -6.432       21.776       -1.275       30.776       38.080       33.017      947.182     1450.116     1090.112        0.200        0.174       22.706       19.354        0.727      348.381       28.037      858.295
06/06/2014  12:43:00       39.230       31.456       94.480       63.314       92.052       44.893     4008.616     8473.570     2015.349        1.297        0.725       50.284       61.490        1.495      348.706       28.597      858.269
06/06/2014  12:44:00       62.576      -78.377       20.524       73.200      119.476       51.850     5358.288    14274.499     2688.401        1.640        1.116      100.293       29.759        0.088      348.622       28.452      858.242
06/06/2014  12:45:00       17.125       19.921        2.614       42.984       34.142       32.714     1847.667     1165.701     1070.236        0.239        0.204       26.270       15.665        0.356      349.054       29.202      858.267
06/06/2014  12:46:00       31.231       25.640        1.870       45.400       42.070       31.493     2061.136     1769.912      991.799        0.323        0.241       40.408       14.188        0.123      348.905       28.943      858.255
06/06/2014  12:47:00       58.080       35.377       68.386       47.289       68.440       39.031     2236.221     4684.033     1523.391        0.887        0.422       68.006       35.258        0.269      349.182       29.423      858.232
06/06/2014  12:48:00      104.983       70.708       93.004      123.744      118.099       76.783    15312.467    13947.348     5895.574        2.991        1.758      126.575       50.519        0.159      348.869       28.881      858.203
06/06/2014  12:49:00      104.352      107.444      137.320      126.626      123.556       95.132    16034.243    15266.063     9050.055        4.081        2.018      149.778      100.350        0.449      348.757       28.683      858.198
06/06/2014  12:50:00      243.140      137.063      128.972      139.152      120.179       86.363    19363.393    14443.049     7458.531        6.789        2.063      279.112       81.109        0.084      348.271       27.841      858.208
06/06/2014  12:51:00      161.631       65.660       44.590      130.214      104.347       91.502    16955.794    10888.305     8372.631        3.431        1.811      174.459       86.744        0.247      348.234       27.778      858.208
06/06/2014  12:52:00      246.318       94.395       45.238      117.230      109.421       78.650    13742.814    11972.871     6185.795        5.176        1.595      263.785       36.434        0.019      348.261       27.824      858.211
06/06/2014  12:53:00      248.293      157.376       28.670      129.655       98.462       65.680    16810.433     9694.844     4313.832        5.902        1.541      293.968       14.666        0.002      348.110       27.565      858.230
06/06/2014  12:54:00       81.993        1.936       37.191       55.932       71.372       37.764     3128.378     5094.003     1426.092        0.888        0.482       82.016       36.095        0.194      348.330       27.947      858.221
06/06/2014  12:55:00       81.830     -113.621       45.072       79.971      158.586       69.081     6395.332    25149.637     4772.171        2.897        1.816      140.021       75.009        0.287      348.628       28.460      858.181
06/06/2014  12:56:00      131.485     -184.305       -5.953       81.035      148.489       75.709     6566.665    22049.108     5731.814        4.281        1.717      226.400       91.158        0.162      348.561       28.343      858.167
06/06/2014  12:57:00       54.567      -34.642       68.798       77.181      103.494       63.545     5956.863    10710.908     4037.982        1.480        1.035       64.635       55.188        0.729      348.768       28.705      858.149
06/06/2014  12:58:00      156.220     -172.614      -15.803       86.716       91.807       66.496     7519.715     8428.437     4421.688        3.741        1.018      232.809       61.664        0.070      348.307       27.903      858.138
06/06/2014  12:59:00       65.387      -69.727       16.488       50.744      102.380       65.795     2574.947    10481.631     4328.982        1.339        0.869       95.589       67.880        0.504      348.246       27.802      858.151
06/06/2014  13:00:00       25.831      -24.230       37.254       57.207      101.471       38.932     3272.649    10296.438     1515.680        0.886        0.754       35.416       41.805        1.393      348.710       28.605      858.131
06/06/2014  13:01:00       86.975     -151.004       -2.763       86.494      116.752       49.655     7481.155    13631.093     2465.573        2.697        1.179      174.261       67.573        0.150      348.281       27.858      858.114
06/06/2014  13:02:00       32.765      -84.236       19.398       75.139       97.167       52.056     5645.839     9441.435     2709.807        1.317        0.890       90.384       40.006        0.196      348.770       28.709      858.086
06/06/2014  13:03:00       47.904      -72.972       31.490       59.821       93.652       57.858     3578.545     8770.632     3347.593        1.215        0.785       87.291       63.268        0.525      348.839       28.826      858.075
06/06/2014  13:04:00      153.905      -73.666       47.170      127.648      207.284      110.328    16293.962    42966.716    12172.260        5.137        3.572      170.627      139.870        0.672      348.489       28.221      858.069
06/06/2014  13:05:00      165.551     -148.864       12.030      110.790      106.985       61.336    12274.528    11445.807     3762.120        3.859        1.374      222.638       61.709        0.077      348.484       28.213      858.059
06/06/2014  13:06:00      160.530     -124.142       32.096       98.497      136.513       66.230     9701.621    18635.914     4386.352        3.746        1.636      202.931       87.778        0.187      348.490       28.221      858.040
06/06/2014  13:07:00       80.361      -45.494       46.547       83.809      165.235       66.014     7023.866    27302.614     4357.817        2.468        1.934       92.345       90.026        0.950      348.767       28.701      858.025
06/06/2014  13:08:00      137.601      -56.605       45.346      114.538      120.956       91.203    13118.852    14630.394     8318.047        3.012        1.803      148.789      102.715        0.477      348.604       28.418      858.018
06/06/2014  13:09:00       92.165      -98.095       10.712      110.570      131.114       65.804    12225.640    17191.008     4330.209        2.598        1.687      134.599       73.520        0.298      348.685       28.561      857.992
06/06/2014  13:10:00      233.895     -167.243       30.772      134.749      227.957      116.528    18157.236    51964.296    13578.775        8.365        4.185      287.536      152.222        0.280      348.537       28.302      857.960
06/06/2014  13:11:00      200.418     -254.983      -19.079      104.711      107.797       55.622    10964.395    11620.136     3093.786        6.561        1.284      324.320       60.065        0.034      348.278       27.855      857.968
06/06/2014  13:12:00      152.128     -155.184       43.201      105.270      206.027       95.907    11081.737    42447.198     9198.181        5.590        3.136      217.314      126.298        0.338      348.698       28.581      857.943
06/06/2014  13:13:00      250.148     -324.163      -53.073      105.590       97.825       52.026    11149.307     9569.724     2706.695        9.694        1.171      409.458       39.439        0.009      348.345       27.970      857.920
06/06/2014  13:14:00      166.217      -40.552       46.975      117.218      230.458      132.109    13739.994    53110.770    17452.719        5.787        4.215      171.093      151.515        0.784      348.427       28.113      857.921
06/06/2014  13:15:00      357.019      201.264       71.434      152.052      107.758       97.363    23119.686    11611.800     9479.522       10.863        2.211      409.841       63.227        0.024      348.310       27.909      857.970
06/06/2014  13:16:00      163.975      129.623      131.321      118.337       95.813       92.117    14003.606     9180.056     8485.615        4.630        1.583      209.022       69.148        0.109      348.451       28.154      857.942
06/06/2014  13:17:00      138.786       92.774       77.197      117.268       68.764       72.194    13751.759     4728.437     5211.902        2.876        1.185      166.939       59.731        0.128      348.581       28.379      857.939
06/06/2014  13:18:00      187.141      113.679       38.948      119.681       65.458       60.925    14323.602     4284.780     3711.912        3.589        1.116      218.963       54.978        0.063      348.654       28.504      857.935
06/06/2014  13:19:00      223.305      137.280       52.107       75.332       56.525       73.788     5674.888     3195.089     5444.642        4.287        0.716      262.127       48.364        0.034      348.533       28.294      857.936
06/06/2014  13:20:00      135.758      168.708       97.999      104.194       77.593       86.834    10856.481     6020.704     7540.177        4.045        1.221      216.547       69.946        0.104      348.418       28.096      857.911
06/06/2014  13:21:00      105.326       88.819       73.390       91.562       62.268       58.645     8383.547     3877.296     3439.223        2.003        0.785      137.776       50.119        0.132      348.383       28.037      857.906
06/06/2014  13:22:00       58.322       92.433       81.045       74.611       69.887       53.787     5566.747     4884.136     2893.061        1.593        0.667      109.295       42.317        0.150      348.686       28.563      857.899
06/06/2014  13:23:00      133.565       87.133        9.517       89.279       63.229       58.361     7970.738     3997.954     3405.995        2.045        0.769      159.473       37.296        0.055      348.275       27.849      857.887
06/06/2014  13:24:00      101.113       88.424       67.213       80.244       60.302       56.095     6439.053     3636.284     3146.643        1.789        0.661      134.323       30.572        0.052      348.616       28.440      857.876
06/06/2014  13:25:00       74.275       76.591       20.486       66.540       52.385       40.901     4427.625     2744.145     1672.930        1.032        0.442      106.691       12.180        0.013      348.992       29.094      857.879
06/06/2014  13:26:00      -20.349      164.811      -20.658       53.061       64.044       31.348     2815.513     4101.590      982.693        1.795        0.395      166.062       19.677        0.014      348.342       27.966      857.880
06/06/2014  13:27:00       57.574      160.327      -13.155      101.659      126.361       49.261    10334.553    15967.107     2426.605        2.895        1.436      170.351       62.233        0.133      348.221       27.755      857.881
06/06/2014  13:28:00        9.878       68.804       -4.037       65.087       63.286       29.443     4236.372     4005.075      866.890        0.698        0.455       69.509       12.828        0.034      348.276       27.854      857.867
06/06/2014  13:29:00     -119.884       93.178      -26.002       72.484       68.326       36.655     5253.950     4668.486     1343.575        1.750        0.563      151.836       32.810        0.047      348.309       27.910      857.856
06/06/2014  13:30:00     -151.314       49.376      -32.233       47.919       46.100       29.317     2296.231     2125.199      859.477        1.583        0.264      159.167       24.802        0.024      348.123       27.587      857.840
06/06/2014  13:31:00      -56.804        7.779       -1.180       45.554       34.018       29.099     2075.190     1157.196      846.725        0.368        0.204       57.334       28.658        0.250      348.241       27.796      857.824
06/06/2014  13:32:00      164.127       80.802       22.403      110.962       45.648       37.736    12312.625     2083.752     1423.968        2.489        0.791      182.939       29.168        0.025      348.406       28.077      857.814
06/06/2014  13:33:00       61.773       42.429       24.944       42.048       48.765       43.690     1768.061     2378.047     1908.848        0.615        0.303       74.941       28.533        0.145      348.644       28.490      857.789
06/06/2014  13:34:00       31.216       65.903       77.252       47.848       51.926       58.988     2289.417     2696.292     3479.567        0.987        0.423       72.922       35.534        0.237      348.866       28.875      857.774
06/06/2014  13:35:00       99.706       56.230       74.867       65.868       40.539       55.077     4338.589     1643.393     3033.433        1.386        0.451      114.469       36.712        0.103      348.610       28.431      857.794
06/06/2014  13:36:00       49.442       29.343        9.727       35.174       25.552       27.369     1237.191      652.900      749.081        0.302        0.132       57.494       21.369        0.138      348.262       27.832      857.801
06/06/2014  13:37:00      -77.224       82.411      -31.172       58.187       36.700       23.848     3385.739     1346.921      568.723        0.951        0.265      112.939       14.743        0.017      348.111       27.570      857.768
06/06/2014  13:38:00     -177.345        2.019      -22.696       34.954       24.861       23.116     1221.762      618.066      534.342        1.717        0.119      177.357       14.221        0.006      348.180       27.689      857.737
06/06/2014  13:39:00      -76.986       15.154       -9.930       57.818       44.497       15.833     3342.927     1979.946      250.686        0.591        0.279       78.463       19.322        0.061      348.222       27.761      857.724
06/06/2014  13:40:00     -150.836       -4.808      -20.546       47.043       24.953       22.938     2213.087      622.643      526.142        1.328        0.168      150.912       18.063        0.014      348.237       27.786      857.703
06/06/2014  13:41:00      -93.068      -72.002        5.634       90.117       56.767       38.423     8121.062     3222.441     1476.347        1.335        0.641      117.669       30.904        0.069      348.798       28.757      857.671
06/06/2014  13:42:00      -78.620      -53.627        4.137       71.828       61.182       36.340     5159.316     3743.201     1320.604        0.965        0.511       95.168       38.752        0.166      348.882       28.904      857.667
06/06/2014  13:43:00      -88.687      -65.905        2.774       74.367       74.180       38.228     5530.519     5502.716     1461.360        1.235        0.625      110.494       44.705        0.164      348.784       28.733      857.657
06/06/2014  13:44:00     -143.318       51.194       -9.733       44.357       58.642       43.831     1967.582     3438.831     1921.159        1.529        0.366      152.187       30.516        0.040      348.415       28.094      857.647
06/06/2014  13:45:00     -115.613      -39.331       -5.711       75.706       64.766       36.530     5731.328     4194.615     1334.421        1.310        0.563      122.120       35.931        0.087      348.687       28.565      857.647
06/06/2014  13:46:00      -46.561       -0.447       13.021       91.492       50.571       43.072     8370.826     2557.442     1855.205        0.756        0.639       46.563       52.329        1.263      349.143       29.355      857.630
06/06/2014  13:47:00     -115.934      -23.442       -1.397       55.528       40.293       25.241     3083.362     1623.508      637.096        0.967        0.267      118.280       22.311        0.036      348.651       28.503      857.626
06/06/2014  13:48:00     -120.129      -20.289      -10.250       40.331       29.645       21.415     1626.606      878.841      458.597        0.896        0.148      121.831       14.884        0.015      348.400       28.068      857.628
06/06/2014  13:49:00      -87.131        5.350       -7.569       46.042       31.287       26.005     2119.828      978.879      676.240        0.573        0.189       87.295       27.227        0.097      348.445       28.147      857.618
06/06/2014  13:50:00       -4.631        5.608       28.683       29.967       17.896       18.436      898.023      320.254      339.894        0.122        0.078        7.273       11.120        2.338      349.516       30.003      857.608
06/06/2014  13:51:00      -73.945      -34.694       -2.570       46.830       41.780       23.096     2193.093     1745.535      533.444        0.557        0.224       81.679       16.741        0.042      348.929       28.984      857.594
06/06/2014  13:52:00      -78.890     -109.224        4.591       55.940       56.316       36.791     3129.235     3171.489     1353.600        1.291        0.383      134.735       28.373        0.044      348.602       28.417      857.592
06/06/2014  13:53:00      -47.759      -36.946       26.161       59.766       43.372       29.793     3572.029     1881.169      887.635        0.533        0.317       60.382       32.130        0.283      348.965       29.046      857.578
06/06/2014  13:54:00       80.305     -138.421      -17.346      106.776      133.391       41.599    11401.172    17793.084     1730.471        2.841        1.546      160.029       63.097        0.155      348.990       29.088      857.558
06/06/2014  13:55:00      225.864     -269.639      -32.422       82.163      103.870       48.286     6750.768    10788.991     2331.579        7.232        0.994      351.739       51.410        0.021      348.688       28.562      857.519
06/06/2014  13:56:00      121.285     -178.545       -8.698       73.506      105.359       45.891     5403.109    11100.459     2106.009        3.263        0.930      215.843       48.424        0.050      348.769       28.703      857.524
06/06/2014  13:57:00      139.526     -174.108      -17.485      136.208      150.480       87.487    18552.718    22644.340     7653.979        4.946        2.443      223.117      103.787        0.216      348.985       29.078      857.486
06/06/2014  13:58:00      272.354     -330.968      -53.908       92.904       88.131       53.759     8631.199     7767.103     2889.977       10.295        0.964      428.622       51.795        0.015      348.515       28.264      857.492
06/06/2014  13:59:00      106.239     -173.671      -13.481      108.173      114.340       86.790    11701.476    13073.713     7532.509        3.696        1.615      203.589       82.802        0.165      348.742       28.657      857.518
06/06/2014  14:00:00       99.653       57.228       81.566       86.757      113.914       70.657     7526.726    12976.296     4992.405        2.267        1.275      114.916       68.107        0.351      348.763       28.694      857.524
06/06/2014  14:01:00       70.014       17.891       30.775       83.736       81.188       50.811     7011.648     6591.506     2581.789        1.117        0.809       72.264       32.635        0.204      348.906       28.943      857.514
06/06/2014  14:02:00       85.459     -192.595      -16.808       78.124      114.676       61.832     6103.304    13150.528     3823.228        3.387        1.154      210.703       67.002        0.101      348.815       28.783      857.502
06/06/2014  14:03:00       87.886     -156.337      -11.401       78.227       51.577       36.293     6119.515     2660.217     1317.155        2.119        0.505      179.347       21.523        0.014      348.436       28.128      857.496
06/06/2014  14:04:00      -57.382      -28.253       -8.469       70.632       35.080       30.725     4988.837     1230.630      944.022        0.566        0.358       63.961       24.160        0.143      349.149       29.366      857.474
06/06/2014  14:05:00      -59.633      -57.334       -0.636       78.349       37.246       31.897     6138.508     1387.263     1017.434        0.769        0.427       82.724       34.851        0.177      348.882       28.904      857.450
06/06/2014  14:06:00      -19.529      -41.077        6.294       30.065       30.995       21.534      903.888      960.707      463.708        0.222        0.116       45.483       17.457        0.147      349.070       29.228      857.444
06/06/2014  14:07:00      -45.195      -40.119       12.144       48.078       40.027       32.545     2311.503     1602.128     1059.207        0.439        0.249       60.433       17.661        0.085      349.152       29.371      857.440
06/06/2014  14:08:00       29.295      -48.919       12.370       50.293       69.340       42.617     2529.362     4808.001     1816.221        0.628        0.458       57.020       46.073        0.653      349.434       29.860      857.406
06/06/2014  14:09:00      118.435     -121.566       16.792      100.050      168.934       66.072    10010.086    28538.711     4365.542        3.599        2.146      169.721      101.328        0.356      349.131       29.332      857.394
06/06/2014  14:10:00       66.087      -58.578       28.078       85.353       91.844       64.619     7285.130     8435.349     4175.602        1.424        0.995       88.311       62.012        0.493      349.253       29.545      857.395
06/06/2014  14:11:00       31.470      -84.357        7.391       49.263       76.700       47.225     2426.823     5882.832     2230.173        0.935        0.527       90.036       42.169        0.219      349.253       29.546      857.386
06/06/2014  14:12:00       41.001       26.534       72.325       59.991       66.788       45.370     3598.889     4460.584     2058.423        0.886        0.506       48.838       39.867        0.666      349.309       29.642      857.369
06/06/2014  14:13:00       29.909       -0.903       93.078       83.054      139.741       94.066     6897.915    19527.484     8848.482        2.241        1.764       29.922      114.372       14.610      349.213       29.474      857.349
06/06/2014  14:14:00       95.087      -71.967       41.906       99.252      125.969       98.500     9850.943    15868.194     9702.245        2.569        1.771      119.251       87.357        0.537      349.341       29.697      857.339
06/06/2014  14:15:00       95.289     -102.250       27.245       84.644      112.178       84.908     7164.665    12583.918     7209.433        2.361        1.348      139.767       82.512        0.349      349.114       29.302      857.348
06/06/2014  14:16:00        5.664      -35.117       41.517       39.417       74.407       55.654     1553.700     5536.379     3097.341        0.659        0.509       35.571       55.770        2.458      349.187       29.430      857.353
06/06/2014  14:17:00      -57.786      -90.393       -1.260       39.214       59.775       25.541     1537.718     3573.043      652.330        0.864        0.288      107.286       17.963        0.028      348.880       28.900      857.343
06/06/2014  14:18:00      -23.157       37.563        8.387       44.595       33.994       27.413     1988.721     1155.599      751.483        0.296        0.195       44.128       26.847        0.370      349.013       29.130      857.321
06/06/2014  14:19:00       -7.583        8.268       39.820       17.892       33.625       24.042      320.114     1130.658      578.012        0.187        0.101       11.219       20.932        3.481      349.727       30.366      857.316
06/06/2014  14:20:00       -0.061       16.714       59.441      100.071       77.590       64.182    10014.161     6020.179     4119.370        1.198        1.008       16.714       55.335       10.961      349.289       29.609      857.293
06/06/2014  14:21:00       52.641      -35.851       45.639       99.609       89.113       59.342     9921.886     7941.095     3521.424        1.376        1.069       63.689       53.392        0.703      349.260       29.556      857.302
06/06/2014  14:22:00       92.895       81.797      102.335       72.506       98.435       69.780     5257.129     9689.449     4869.243        2.280        0.991      123.775       66.841        0.292      348.887       28.909      857.300
06/06/2014  14:23:00       45.268      -17.046        0.503       24.156       31.448       31.199      583.519      988.963      973.398        0.244        0.127       48.371       23.580        0.238      348.660       28.517      857.293
06/06/2014  14:24:00       19.989       50.128       57.566       37.063       47.543       41.991     1373.689     2260.329     1763.231        0.581        0.270       53.966       39.008        0.522      349.108       29.293      857.272
06/06/2014  14:25:00       59.426      -22.970       39.889       50.679       67.134       35.583     2568.335     4506.962     1266.138        0.699        0.417       63.711       43.028        0.456      349.018       29.138      857.270
06/06/2014  14:26:00       17.858      -12.862       15.529       43.716       39.265       26.806     1911.056     1541.766      718.537        0.245        0.209       22.008       15.539        0.498      349.059       29.209      857.245
06/06/2014  14:27:00       20.681       34.585       80.090       49.989       80.360       48.237     2498.942     6457.753     2326.773        0.966        0.564       40.297       55.409        1.891      349.213       29.476      857.219
06/06/2014  14:28:00       38.755       55.326       69.341       52.816       65.817       42.528     2789.496     4331.841     1808.605        0.915        0.446       67.550       47.758        0.500      349.077       29.242      857.210
06/06/2014  14:29:00      127.251       84.129       45.775       56.011       48.093       48.872     3137.255     2312.912     2388.426        1.660        0.392      152.546       34.777        0.052      348.756       28.686      857.198
06/06/2014  14:30:00       52.802       31.314       57.909       70.771       73.950       60.951     5008.503     5468.547     3715.036        1.065        0.710       61.389       62.176        1.026      349.004       29.113      857.189
06/06/2014  14:31:00       51.020       15.543       19.308       82.014       95.963       48.422     6726.234     9208.912     2344.683        1.075        0.914       53.335       52.320        0.962      349.053       29.198      857.171
06/06/2014  14:32:00       38.947      -57.793        9.906       46.123      114.234       52.016     2127.298    13049.307     2705.659        1.142        0.894       69.692       56.469        0.657      349.436       29.862      857.160
06/06/2014  14:33:00       74.495     -151.023        2.606       63.015      101.669       55.053     3970.927    10336.521     3030.833        2.285        0.867      168.397       55.060        0.107      349.030       29.157      857.154
06/06/2014  14:34:00      166.825       85.512       44.515      135.675      118.749       71.871    18407.787    14101.353     5165.509        3.739        1.884      187.465       56.321        0.090      349.282       29.593      857.134
06/06/2014  14:35:00      211.493       82.693       34.331      123.636       87.716       67.543    15285.898     7694.105     4562.070        4.014        1.377      227.084       26.847        0.014      349.117       29.307      857.140
06/06/2014  14:36:00      204.473      158.001       75.018      116.690       77.450       94.551    13616.574     5998.569     8939.972        5.047        1.428      258.406       70.071        0.074      349.121       29.313      857.137
06/06/2014  14:37:00      228.437      126.406       25.818       64.030       73.301       43.028     4099.896     5373.013     1851.419        4.007        0.566      261.079       21.937        0.007      348.818       28.789      857.134
06/06/2014  14:38:00      152.987       95.526       38.569       49.231       41.170       34.529     2423.673     1694.940     1192.281        1.966        0.266      180.361       22.009        0.015      348.950       29.017      857.128
06/06/2014  14:39:00      149.605      104.501       17.718      138.704       87.918       52.795    19238.897     7729.522     2787.353        3.168        1.488      182.489       35.296        0.037      349.310       29.642      857.118
06/06/2014  14:40:00      272.250      175.501       63.637      116.727       98.404       93.751    13625.212     9683.301     8789.232        7.053        1.605      323.914       50.851        0.025      349.055       29.199      857.102
06/06/2014  14:41:00      226.390      141.877       40.732      108.849       87.250       65.460    11848.076     7612.600     4284.991        4.839        1.187      267.174       35.247        0.017      349.045       29.182      857.125
06/06/2014  14:42:00      254.768      151.709       29.351      118.539       80.553       63.139    14051.410     6488.818     3986.482        5.665        1.226      296.517       33.425        0.013      348.916       28.958      857.135
06/06/2014  14:43:00      213.264       99.845        5.892      116.915       99.746       67.934    13669.061     9949.266     4615.068        4.185        1.412      235.480       36.052        0.023      348.967       29.047      857.132
06/06/2014  14:44:00      181.769      118.641       21.169      110.106       77.967       57.521    12123.314     6078.876     3308.648        3.453        1.076      217.062       17.760        0.007      349.073       29.231      857.134
06/06/2014  14:45:00      187.841      105.977       78.901      107.467       79.253       65.508    11549.101     6281.069     4291.322        3.743        1.106      215.675       55.852        0.067      349.000       29.103      857.132
06/06/2014  14:46:00      173.127      110.810        9.713       58.787       45.101       40.496     3455.877     2034.092     1639.934        2.474        0.356      205.553       32.487        0.025      348.660       28.514      857.143
06/06/2014  14:47:00       54.667       69.023       -8.293       74.140       87.105       50.109     5496.724     7587.278     2510.923        1.171        0.780       88.049       38.103        0.187      348.798       28.757      857.142
06/06/2014  14:48:00        2.394      -14.577      -15.126       31.270       48.856       14.257      977.832     2386.922      203.275        0.201        0.178       14.772       15.608        1.116      348.644       28.490      857.136
06/06/2014  14:49:00        4.904      -35.153       25.482       17.714       31.882       20.164      313.770     1016.489      406.595        0.182        0.087       35.494       22.244        0.393      349.182       29.422      857.118
06/06/2014  14:50:00       15.676      -45.287       15.538       28.620       49.267       29.406      819.114     2427.194      864.740        0.332        0.206       47.923       28.133        0.345      349.149       29.365      857.091
06/06/2014  14:51:00      -11.024      -67.031        3.036       44.825       41.381       33.474     2009.264     1712.390     1120.493        0.473        0.242       67.932       28.490        0.176      349.476       29.933      857.064
06/06/2014  14:52:00      -13.256      -53.477       18.349       62.711       59.934       38.971     3932.685     3592.066     1518.758        0.621        0.452       55.096       35.907        0.425      349.691       30.305      857.038
06/06/2014  14:53:00      -26.912      -80.114       27.848       88.027       60.909       52.092     7748.701     3709.878     2713.628        1.104        0.709       84.513       40.664        0.232      349.458       29.902      857.020
06/06/2014  14:54:00     -167.766     -135.103        3.248       85.129       70.805       49.974     7246.936     5013.345     2497.411        3.058        0.738      215.403       43.277        0.040      349.023       29.143      857.003
06/06/2014  14:55:00      -24.755      -83.380       19.228       97.035       52.804       51.301     9415.755     2788.271     2631.751        1.138        0.742       86.977       36.832        0.179      349.352       29.717      856.982
06/06/2014  14:56:00      -15.340      -82.125       40.387      103.207       82.634       61.678    10651.598     6828.299     3804.143        1.494        1.064       83.545       59.775        0.512      349.411       29.818      856.981
06/06/2014  14:57:00      -34.735      -86.139       -5.998       76.598       66.969       55.187     5867.239     4484.855     3045.605        1.103        0.670       92.879       39.815        0.184      349.250       29.540      856.972
06/06/2014  14:58:00       -5.305      -99.104        8.678       57.394       85.107       39.820     3294.103     7243.165     1585.647        1.102        0.606       99.246       41.446        0.174      349.564       30.084      856.944
06/06/2014  14:59:00       16.756     -103.351      -16.124       72.122       70.264       31.413     5201.511     4936.998      986.805        1.117        0.556      104.701       26.180        0.063      349.421       29.836      856.925
06/06/2014  15:00:00       11.243       15.540       23.523       58.947       32.744       29.669     3474.741     1072.162      880.223        0.317        0.271       19.181       16.628        0.752      349.825       30.537      856.914
06/06/2014  15:01:00        9.522       41.606       16.667       33.598       38.477       29.286     1128.812     1480.478      857.698        0.278        0.173       42.681       19.738        0.214      349.691       30.307      856.919
06/06/2014  15:02:00       22.833       14.209       55.291       47.065       54.878       47.414     2215.095     3011.629     2248.120        0.563        0.374       26.894       52.681        3.837      349.643       30.223      856.915
06/06/2014  15:03:00       48.839       18.753       41.566       54.019       54.844       35.390     2918.094     3007.891     1252.423        0.582        0.359       52.316       33.434        0.408      349.488       29.954      856.902
06/06/2014  15:04:00      118.087       96.082        8.742       81.983       51.517       51.090     6721.231     2653.994     2610.229        1.762        0.599      152.238       37.597        0.061      349.235       29.512      856.896
06/06/2014  15:05:00       67.659       47.121       38.870       51.707       44.675       31.655     2673.646     1995.853     1002.065        0.699        0.284       82.451       21.291        0.067      349.229       29.504      856.897
06/06/2014  15:06:00       12.477       38.337       17.951       38.528       40.731       27.594     1484.375     1659.010      761.434        0.293        0.195       40.316       26.960        0.447      349.584       30.120      856.894
06/06/2014  15:07:00      -30.037       14.449       16.482       59.432       48.886       31.080     3532.219     2389.850      965.987        0.413        0.344       33.332       26.092        0.613      349.702       30.325      856.899
06/06/2014  15:08:00       99.043       66.659       35.841       64.986       43.598       18.896     4223.199     1900.823      357.064        1.101        0.324      119.386       16.406        0.019      349.025       29.149      856.869
06/06/2014  15:09:00      132.792       94.746       31.137       33.978       28.564       35.900     1154.524      815.898     1288.799        1.542        0.163      163.127       20.595        0.016      349.053       29.199      856.863
06/06/2014  15:10:00       46.377      194.670       -7.874       88.995      147.132       48.719     7920.057    21647.872     2373.521        3.602        1.597      200.118       59.206        0.088      349.225       29.495      856.872
06/06/2014  15:11:00       -4.039      107.515       -8.042       51.476       80.084       38.531     2649.744     6413.422     1484.652        1.109        0.527      107.591       36.417        0.115      349.427       29.846      856.870
06/06/2014  15:12:00      -57.532      186.703      -20.386       98.946      115.184       51.881     9790.394    13267.401     2691.593        3.216        1.287      195.366       55.714        0.081      349.441       29.869      856.866
06/06/2014  15:13:00      -35.351       71.021       -6.767       55.565       91.435       38.025     3087.468     8360.317     1445.878        0.961        0.645       79.333       22.273        0.079      349.510       29.990      856.853
06/06/2014  15:14:00      -21.413        1.384       12.501       46.463       52.042       43.227     2158.842     2708.421     1868.592        0.367        0.337       21.458       26.245        1.496      349.877       30.629      856.817
06/06/2014  15:15:00      -44.468       67.169       -8.341       70.583      129.510       42.469     4982.017    16772.775     1803.591        1.505        1.178       80.554       49.207        0.373      349.689       30.300      856.807
06/06/2014  15:16:00      -50.922      234.340      -19.833       51.495      118.746       43.903     2651.705    14100.550     1927.502        3.829        0.934      239.809       53.620        0.050      349.483       29.942      856.818
06/06/2014  15:17:00      -36.029      235.446      -21.119       76.041      135.752       51.669     5782.254    18428.567     2669.732        4.202        1.344      238.186       66.626        0.078      349.350       29.711      856.798
06/06/2014  15:18:00      -38.711      290.294      -32.780       73.891      153.478       48.495     5459.861    23555.361     2351.739        5.910        1.568      292.864       66.944        0.052      349.467       29.914      856.810
06/06/2014  15:19:00      -53.017      148.956      -24.276       51.687       67.977       39.480     2671.569     4620.881     1558.661        1.722        0.443      158.109       31.676        0.040      349.375       29.757      856.817
06/06/2014  15:20:00     -161.865      109.836      -29.539      107.796      102.630       60.950    11619.893    10532.965     3714.884        3.250        1.293      195.612       50.697        0.067      349.473       29.925      856.799
06/06/2014  15:21:00     -133.592      169.341      -24.309       94.804       92.847       50.519     8987.861     8620.601     2552.146        3.363        1.008      215.692       57.747        0.072      349.507       29.985      856.793
06/06/2014  15:22:00     -195.142      193.470      -44.576       77.145       75.196       44.126     5951.299     5654.366     1947.105        4.552        0.678      274.793       39.235        0.020      349.081       29.243      856.792
06/06/2014  15:23:00     -172.149       70.735      -39.096       67.248      101.577       44.750     4522.239    10317.956     2002.521        2.650        0.842      186.114       34.827        0.035      349.410       29.815      856.758
06/06/2014  15:24:00     -166.561      -46.427        5.860       87.801       74.690       45.441     7709.008     5578.543     2064.900        2.264        0.768      172.911       40.335        0.054      349.393       29.786      856.741
06/06/2014  15:25:00      -49.924       94.603       -6.265       63.632       73.866       42.145     4049.078     5456.210     1776.187        1.138        0.564      106.968       20.771        0.038      349.598       30.143      856.746
06/06/2014  15:26:00      -46.647      140.588       -5.479       44.192       75.151       35.624     1952.930     5647.710     1269.058        1.542        0.443      148.125       37.142        0.063      349.367       29.742      856.742
06/06/2014  15:27:00      -42.853      157.408        0.062       41.641       71.508       38.001     1733.992     5113.369     1444.062        1.745        0.415      163.137       42.652        0.068      349.406       29.811      856.719
06/06/2014  15:28:00      -29.381      117.531        3.660       67.908       79.755       44.146     4611.536     6360.824     1948.895        1.380        0.646      121.148       35.238        0.085      349.591       30.130      856.705
06/06/2014  15:29:00      -77.082       77.798      -10.105       71.845       68.246       35.876     5161.734     4657.471     1287.060        1.160        0.555      109.518       34.452        0.099      349.426       29.845      856.708
06/06/2014  15:30:00      -29.196       92.347        0.031       42.555       65.269       27.149     1810.889     4259.980      737.053        0.809        0.340       96.852       37.928        0.153      349.577       30.107      856.708
06/06/2014  15:31:00      -67.365      204.146      -17.950       49.049      117.406       42.868     2405.845    13784.281     1837.673        3.228        0.901      214.973       48.698        0.051      349.481       29.939      856.713
06/06/2014  15:32:00      -90.880      183.922      -22.463       86.916       77.796       39.689     7554.364     6052.278     1575.229        2.888        0.759      205.150       51.495        0.063      349.527       30.017      856.706
06/06/2014  15:33:00        9.713       97.536      -13.331       87.557       86.723       50.582     7666.295     7520.836     2558.555        1.376        0.887       98.019       38.128        0.151      349.473       29.924      856.685
06/06/2014  15:34:00      -26.871      323.665      -47.070       39.333       48.172       28.048     1547.060     2320.559      786.674        5.617        0.233      324.779       11.889        0.001      349.015       29.129      856.688
06/06/2014  15:35:00       45.449      176.326       -9.248       62.956       85.849       54.653     3963.464     7370.027     2986.977        2.378        0.716      182.090       53.021        0.085      349.312       29.646      856.672
06/06/2014  15:36:00       48.594      123.965       -0.619       50.007       88.561       43.642     2500.678     7843.037     1904.656        1.499        0.612      133.149       41.107        0.095      349.437       29.863      856.647
06/06/2014  15:37:00      -47.334      254.254      -34.778       58.894      128.239       44.980     3468.482    16445.183     2023.233        4.501        1.097      258.622       54.442        0.044      349.454       29.890      856.647
06/06/2014  15:38:00     -109.213      247.049      -31.793       70.434       92.471       42.961     4960.961     8550.892     1845.616        4.466        0.768      270.113       28.236        0.011      349.083       29.246      856.660
06/06/2014  15:39:00     -107.360      102.561      -14.703       90.134       81.539       42.235     8124.191     6648.592     1783.756        1.941        0.828      148.476       47.617        0.103      349.610       30.163      856.639
06/06/2014  15:40:00     -169.219       67.528      -12.209      138.126      114.821       61.117    19078.780    13183.767     3735.295        3.466        1.800      182.195       71.125        0.152      349.381       29.764      856.640
06/06/2014  15:41:00       -5.795      192.892       -7.563       49.462      101.560       48.097     2446.517    10314.354     2313.284        2.618        0.754      192.979       51.959        0.072      349.338       29.690      856.637
06/06/2014  15:42:00       55.151      116.466       -4.171       75.300       73.749       46.209     5670.095     5438.861     2135.226        1.493        0.662      128.864       43.400        0.113      349.401       29.802      856.619
06/06/2014  15:43:00       40.672      130.049        3.601       77.651       84.788       60.661     6029.744     7188.991     3679.720        1.774        0.845      136.261       52.276        0.147      349.484       29.944      856.618
06/06/2014  15:44:00       32.825      131.612       -5.027       64.631       81.080       49.357     4177.137     6574.037     2436.080        1.580        0.659      135.644       51.697        0.145      349.463       29.909      856.617
06/06/2014  15:45:00       -8.194      101.771      -13.325       55.128       58.612       35.976     3039.072     3435.412     1294.297        0.918        0.388      102.100       30.150        0.087      349.647       30.229      856.609
06/06/2014  15:46:00        1.229       84.315       -5.479       41.214       73.983       27.230     1698.628     5473.554      741.475        0.753        0.396       84.324       27.147        0.104      349.843       30.569      856.593
06/06/2014  15:47:00      -37.775       91.748       15.818       56.604       73.581       45.672     3203.975     5414.148     2085.909        1.040        0.535       99.220       53.716        0.293      349.867       30.609      856.584
06/06/2014  15:48:00        2.719       48.724       -6.483       54.883       51.221       36.976     3012.089     2623.551     1367.257        0.471        0.350       48.800       37.203        0.581      349.867       30.611      856.577
06/06/2014  15:49:00      -13.890       70.401        2.446       41.673       53.181       39.094     1736.631     2828.167     1528.346        0.562        0.305       71.759       42.171        0.345      349.746       30.400      856.567
06/06/2014  15:50:00      -92.962      193.599      -27.137      101.783      125.788       51.789    10359.817    15822.558     2682.062        3.786        1.443      214.761       59.962        0.078      349.437       29.861      856.546
06/06/2014  15:51:00     -154.489       97.371      -15.258       76.883      133.459       50.958     5910.930    17811.316     2596.759        2.994        1.316      182.614       35.462        0.038      349.541       30.040      856.544
06/06/2014  15:52:00     -105.008       82.211      -21.042       96.936       82.103       57.109     9396.594     6740.836     3261.477        1.881        0.970      133.361       55.739        0.175      349.551       30.061      856.556
06/06/2014  15:53:00     -124.496       24.380       -2.878       76.460       62.079       39.410     5846.078     3853.838     1553.162        1.368        0.563      126.861       36.175        0.081      349.624       30.188      856.559
06/06/2014  15:54:00     -146.175      -44.676      -18.989       79.771       55.519       41.903     6363.429     3082.397     1755.825        1.746        0.560      152.850       39.026        0.065      349.542       30.044      856.536
06/06/2014  15:55:00      -72.468      -33.756        6.043       58.384       44.294       25.414     3408.716     1961.960      645.866        0.622        0.301       79.945       26.314        0.108      349.711       30.339      856.524
06/06/2014  15:56:00       -1.781       31.619        7.615       36.334       39.876       24.464     1320.144     1590.084      598.481        0.228        0.175       31.669       19.739        0.388      349.878       30.630      856.525
06/06/2014  15:57:00      -39.078       98.528        0.252       83.486       50.911       32.608     6969.880     2591.969     1063.262        1.093        0.531      105.994       28.761        0.074      349.778       30.457      856.524
06/06/2014  15:58:00      -90.548      126.066      -26.347       46.982       54.306       31.651     2207.279     2949.175     1001.779        1.547        0.308      155.215       31.800        0.042      349.308       29.638      856.524
06/06/2014  15:59:00      -50.059       82.895      -22.110       48.028       50.033       32.637     2306.709     2503.338     1065.161        0.787        0.294       96.838       34.096        0.124      349.337       29.691      856.526
06/06/2014  16:00:00      -74.245        5.529       -1.826       47.645       30.109       25.144     2270.043      906.525      632.214        0.468        0.190       74.451       25.621        0.118      349.617       30.175      856.515
06/06/2014  16:01:00       27.595       33.566       21.364       16.897       14.121       23.264      285.525      199.393      541.192        0.169        0.051       43.453        7.773        0.032      349.602       30.150      856.508
06/06/2014  16:02:00        0.643       34.165       49.508       22.523       35.856       24.509      507.286     1285.662      600.678        0.301        0.120       34.171       22.755        0.443      349.645       30.225      856.466
06/06/2014  16:03:00      -22.972      -16.499       19.721       33.543       75.437       49.441     1125.146     5690.722     2444.388        0.522        0.463       28.283       54.747        3.747      349.777       30.455      856.443
06/06/2014  16:04:00       20.661     -109.393      -21.043       44.028       35.823       35.354     1938.437     1283.252     1249.889        0.865        0.224      111.327       15.070        0.018      349.601       30.147      856.445
06/06/2014  16:05:00      -81.266      -74.277       -6.273       92.796       47.778       35.045     8611.168     2282.691     1228.128        1.214        0.606      110.096       31.227        0.080      349.769       30.439      856.428
06/06/2014  16:06:00     -156.400       23.893        5.000      105.938       61.938       38.891    11222.857     3836.258     1512.517        2.081        0.829      158.215       45.863        0.084      349.489       29.953      856.416
06/06/2014  16:07:00      -90.261      -53.712       16.466       67.061       72.928       40.460     4497.209     5318.528     1636.998        1.138        0.573      105.033       31.794        0.092      349.614       30.171      856.403
06/06/2014  16:08:00     -176.243     -107.488        0.253       60.639       47.059       35.326     3677.086     2214.508     1247.906        2.488        0.357      206.435       30.126        0.021      349.064       29.216      856.394
06/06/2014  16:09:00      -65.485      -51.148        0.336       54.203       38.332       26.765     2937.938     1469.356      716.339        0.601        0.256       83.093       28.064        0.114      349.161       29.386      856.371
06/06/2014  16:10:00      -42.353      -64.618       14.830       74.937       55.544       33.730     5615.539     3085.081     1137.692        0.801        0.492       77.261       29.486        0.146      349.426       29.846      856.347
06/06/2014  16:11:00      -25.219      -69.780        2.491       41.402       80.019       33.963     1714.146     6402.982     1153.478        0.739        0.464       74.198       36.937        0.248      349.384       29.771      856.332
06/06/2014  16:12:00      -24.706      -64.995       22.782       72.940       49.641       39.613     5320.267     2464.219     1569.190        0.735        0.468       69.532       39.321        0.320      349.444       29.877      856.325
06/06/2014  16:13:00      -37.629     -105.267       -9.092       75.318       62.948       36.628     5672.768     3962.396     1341.578        1.178        0.549      111.790       30.089        0.072      349.204       29.459      856.300
06/06/2014  16:14:00      -10.301      -52.456        5.139       49.069       62.213       39.147     2407.807     3870.491     1532.478        0.535        0.391       53.458       36.317        0.462      349.384       29.771      856.285
06/06/2014  16:15:00       25.159     -111.130      -11.324       80.200       89.392       48.338     6431.983     7990.981     2336.565        1.493        0.838      113.943       55.736        0.239      349.247       29.534      856.286
06/06/2014  16:16:00       53.708     -137.059       -3.884       89.418       67.873       50.696     7995.575     4606.785     2570.122        1.843        0.759      147.206       52.588        0.128      349.114       29.304      856.274
06/06/2014  16:17:00      -33.595     -125.446       -7.326       57.508       46.119       45.395     3307.200     2126.979     2060.717        1.221        0.375      129.866       22.460        0.030      349.204       29.459      856.273
06/06/2014  16:18:00      -83.987      -90.576       11.617       78.308       70.325       40.484     6132.155     4945.606     1638.980        1.405        0.636      123.523       37.497        0.092      349.421       29.836      856.272
06/06/2014  16:19:00      -56.518      -94.875        2.209       78.309       66.117       39.417     6132.347     4371.519     1553.717        1.213        0.603      110.433       44.549        0.163      349.432       29.857      856.272
06/06/2014  16:20:00      -79.976      -52.188       -0.605       69.451       41.534       33.299     4823.442     1725.111     1108.839        0.839        0.383       95.497       15.530        0.026      349.516       30.003      856.270
06/06/2014  16:21:00      -10.061      -87.201      -16.867       64.245       56.765       25.183     4127.440     3222.314      634.193        0.799        0.399       87.780       20.402        0.054      349.492       29.961      856.270
06/06/2014  16:22:00      -23.056      -97.972      -16.800       53.643       54.684       30.084     2877.587     2990.286      905.074        0.859        0.339      100.648       20.332        0.041      349.575       30.104      856.259
06/06/2014  16:23:00      -52.711      -68.226       -3.864       36.404       48.181       32.751     1325.235     2321.393     1072.621        0.608        0.236       86.216       29.477        0.117      349.539       30.040      856.250
06/06/2014  16:24:00      -58.177      -43.370       -1.941       40.696       45.628       23.581     1656.160     2081.951      556.062        0.478        0.215       72.564       18.131        0.062      349.550       30.059      856.229
06/06/2014  16:25:00       -5.663      -93.813       -2.778       43.011       59.544       25.109     1849.964     3545.483      630.449        0.743        0.301       93.984       23.484        0.062      349.507       29.986      856.210
06/06/2014  16:26:00      -26.812      -28.602        8.484       44.216       52.071       29.382     1955.055     2711.358      863.287        0.357        0.276       39.204       34.797        0.788      349.687       30.299      856.212
06/06/2014  16:27:00       22.053       49.709       54.669       26.848       37.303       30.799      720.835     1391.548      948.581        0.450        0.153       54.381       15.814        0.085      349.290       29.609      856.218
06/06/2014  16:28:00       57.038       31.483       34.798       49.469       46.256       41.955     2447.168     2139.590     1760.224        0.590        0.317       65.150       36.957        0.322      349.159       29.382      856.226
06/06/2014  16:29:00       55.845       67.149       80.864       53.794       52.220       52.167     2893.825     2726.885     2721.376        1.125        0.417       87.336       47.584        0.297      349.143       29.354      856.225
06/06/2014  16:30:00       95.800       61.470        0.502       53.146       41.155       33.482     2824.499     1693.743     1121.052        0.930        0.282      113.825       23.648        0.043      349.174       29.409      856.232
06/06/2014  16:31:00      172.330      115.691       28.495       87.416       75.427       50.598     7641.506     5689.285     2560.133        2.989        0.795      207.563       42.551        0.042      349.228       29.500      856.240
06/06/2014  16:32:00       74.026       89.294        9.743       93.935       67.171       56.675     8823.791     4511.960     3212.027        1.504        0.827      115.988       29.387        0.064      349.215       29.479      856.240
06/06/2014  16:33:00      202.611      124.988       15.737       96.961       63.276       50.225     9401.383     4003.796     2522.504        3.642        0.796      238.061       35.632        0.022      349.107       29.289      856.245
06/06/2014  16:34:00      137.683       95.982        0.022       61.938       56.862       38.498     3836.275     3233.275     1482.061        1.836        0.428      167.836       22.827        0.018      349.118       29.309      856.242
06/06/2014  16:35:00      126.928       87.389       47.511      106.214       54.496       39.596    11281.474     2969.781     1567.870        2.091        0.791      154.102       39.809        0.067      349.078       29.240      856.238
06/06/2014  16:36:00      187.752      106.117       42.032       74.250       44.277       40.662     5513.127     1960.447     1653.384        2.870        0.456      215.665       34.661        0.026      349.222       29.488      856.246
06/06/2014  16:37:00      154.604       76.410       46.465      101.360       66.185       56.848    10273.759     4380.517     3231.739        2.489        0.894      172.456       54.592        0.100      349.165       29.390      856.247
06/06/2014  16:38:00      150.076       61.584       41.541       82.710       51.129       51.156     6841.020     2614.163     2616.956        2.005        0.604      162.220       39.662        0.060      349.174       29.407      856.248
06/06/2014  16:39:00      155.381      112.819       81.367       87.748       63.749       60.854     7699.695     4063.877     3703.200        2.948        0.773      192.019       52.368        0.074      349.082       29.246      856.247
06/06/2014  16:40:00       64.180       40.558       39.395       62.389       40.108       34.558     3892.346     1608.626     1194.245        0.700        0.335       75.921       30.180        0.158      349.159       29.383      856.259
06/06/2014  16:41:00       75.772       81.899       70.481       71.703       67.584       45.190     5141.289     4567.533     2042.108        1.458        0.588      111.574       44.684        0.160      349.101       29.281      856.261
06/06/2014  16:42:00       78.939       42.761       63.000       76.031       58.754       50.716     5780.639     3452.059     2572.097        1.191        0.590       89.776       38.603        0.185      349.134       29.337      856.269
06/06/2014  16:43:00       28.117       42.472       55.077       56.551       42.303       41.796     3197.968     1789.558     1746.899        0.618        0.337       50.935       36.846        0.523      349.090       29.263      856.273
06/06/2014  16:44:00      118.688       56.475        7.550       57.269       45.173       31.757     3279.732     2040.561     1008.509        1.183        0.316      131.439       19.451        0.022      349.226       29.497      856.295
06/06/2014  16:45:00       -3.247      177.275      -21.689       51.247       53.538       25.771     2626.235     2866.362      664.121        1.903        0.308      177.305       25.039        0.020      349.094       29.269      856.295
06/06/2014  16:46:00       30.660      104.516      -10.112       33.470       63.089       25.749     1120.250     3980.284      663.034        0.886        0.288      108.921       28.900        0.070      349.153       29.372      856.298
06/06/2014  16:47:00       95.376       88.003       -7.614       30.618       27.318       27.249      937.466      746.278      742.481        0.966        0.121      129.773       18.952        0.021      349.112       29.299      856.301
06/06/2014  16:48:00      108.724       38.708       16.935       59.901       52.213       35.993     3588.124     2726.185     1295.486        1.061        0.380      115.409       24.811        0.046      349.187       29.431      856.282
06/06/2014  16:49:00       71.731       31.018       26.875       57.922       41.123       31.957     3354.969     1691.090     1021.276        0.645        0.303       78.151       24.635        0.099      349.164       29.391      856.286
06/06/2014  16:50:00       23.326       37.926       33.685       55.517       51.775       39.224     3082.087     2680.636     1538.543        0.521        0.365       44.525       36.436        0.670      349.203       29.459      856.284
06/06/2014  16:51:00       19.852      129.687      -14.142       41.416       48.168       31.997     1715.293     2320.144     1023.777        1.123        0.253      131.197       28.559        0.047      349.230       29.505      856.304
06/06/2014  16:52:00      -36.988      143.287      -16.637       38.925       54.712       18.890     1515.151     2993.360      356.845        1.352        0.243      147.984       12.070        0.007      349.121       29.317      856.314
06/06/2014  16:53:00      -16.449      100.431       -9.728       44.343       49.058       26.575     1966.266     2406.722      706.244        0.776        0.254      101.770       18.638        0.034      349.161       29.388      856.334
06/06/2014  16:54:00      -93.973      120.255       -8.793       43.300       49.097       30.182     1874.908     2410.521      910.937        1.428        0.260      152.618       30.986        0.041      349.177       29.413      856.354
06/06/2014  16:55:00      -59.846      116.531      -21.377       36.365       57.097       26.175     1322.421     3260.082      685.156        1.144        0.263      131.000       13.667        0.011      349.127       29.328      856.378
06/06/2014  16:56:00       31.025      110.843       -7.458       60.023       52.526       37.431     3602.794     2758.962     1401.048        1.053        0.388      115.103       40.449        0.123      349.159       29.381      856.394
06/06/2014  16:57:00      159.420      168.573       26.847      179.692      124.542      105.621    32289.187    15510.668    11155.722        5.674        2.948      232.016       57.874        0.062      349.172       29.401      856.339
06/06/2014  16:58:00      121.028       84.850      130.409       94.518       75.985       59.359     8933.641     5773.731     3523.475        2.854        0.912      147.809       54.132        0.134      349.186       29.426      856.367
06/06/2014  16:59:00      151.154       88.196       76.325       82.288       68.894       71.191     6771.374     4746.367     5068.151        2.652        0.829      175.003       68.164        0.152      349.183       29.422      856.393
06/06/2014  17:00:00       79.934       80.609       94.174       81.543       68.919       60.888     6649.334     4749.876     3707.390        1.843        0.755      113.523       58.415        0.265      349.177       29.412      856.413
06/06/2014  17:01:00      148.506       72.675       49.524       93.912       56.663       43.922     8819.547     3210.693     1929.183        2.187        0.698      165.335       40.400        0.060      349.146       29.357      856.411
06/06/2014  17:02:00       81.485       23.176       32.506       53.078       47.680       45.500     2817.263     2273.415     2070.283        0.770        0.358       84.717       41.717        0.242      349.064       29.217      856.425
06/06/2014  17:03:00       72.073       27.983       12.496       49.616       39.162       36.024     2461.734     1533.660     1297.736        0.571        0.265       77.315       29.657        0.147      349.209       29.469      856.414
06/06/2014  17:04:00       76.893       24.233       60.205       71.663       55.311       54.498     5135.625     3059.353     2969.985        1.064        0.558       80.621       42.672        0.280      349.149       29.363      856.405
06/06/2014  17:05:00       58.563      -72.308       23.121       57.806       47.674       42.341     3341.489     2272.776     1792.800        0.830        0.370       93.048       29.807        0.103      348.991       29.091      856.408
06/06/2014  17:06:00       31.437      -25.914        8.047       36.751       61.093       27.916     1350.600     3732.308      779.321        0.379        0.293       40.741       20.711        0.258      349.076       29.239      856.414
06/06/2014  17:07:00       29.801       47.258        4.050       31.693       30.006       21.611     1004.461      900.382      467.020        0.275        0.119       55.870       18.883        0.114      349.143       29.353      856.428
06/06/2014  17:08:00       24.511       54.335       -8.732       15.445       31.431       15.718      238.553      987.922      247.061        0.255        0.074       59.608       19.367        0.106      349.131       29.332      856.424
06/06/2014  17:09:00      -36.502       54.907      -11.166       31.862       16.570       12.542     1015.206      274.560      157.291        0.296        0.072       65.933       14.739        0.050      349.025       29.151      856.430
06/06/2014  17:10:00      -36.038       96.661      -16.604       32.643       22.309       16.919     1065.581      497.700      286.242        0.638        0.092      103.161        8.515        0.007      348.994       29.094      856.435
06/06/2014  17:11:00      -16.013       79.059      -14.478       29.407       34.101       14.442      864.768     1162.905      208.567        0.448        0.112       80.664       11.975        0.022      349.035       29.165      856.428
06/06/2014  17:12:00      -23.885      186.671      -33.876       30.349       38.940       18.520      921.038     1516.338      342.996        1.967        0.139      188.193       12.629        0.005      349.039       29.174      856.423
06/06/2014  17:13:00      -28.721      114.428      -27.382       21.637       24.096       13.796      468.139      580.623      190.334        0.795        0.062      117.977       10.395        0.008      349.042       29.178      856.407
06/06/2014  17:14:00       20.166       31.507       -3.669       35.549       44.360       23.651     1263.732     1967.794      559.379        0.260        0.190       37.408       18.716        0.250      349.109       29.298      856.399
06/06/2014  17:15:00       36.177      124.272       -7.978       39.131       68.051       48.113     1531.201     4630.927     2314.856        1.264        0.424      129.431       49.349        0.145      349.061       29.214      856.391
06/06/2014  17:16:00       32.286      162.567      -23.677       33.589       42.349       24.669     1128.211     1793.453      608.556        1.578        0.177      165.742       24.634        0.022      349.055       29.202      856.388
06/06/2014  17:17:00       -5.978       66.536        8.488       26.956       55.170       25.698      726.632     3043.755      660.382        0.448        0.222       66.804       26.562        0.158      349.097       29.274      856.369
06/06/2014  17:18:00      -67.987      -10.810       -0.035       52.389       45.581       17.516     2744.569     2077.603      306.813        0.493        0.256       68.841       12.197        0.031      349.142       29.354      856.365
06/06/2014  17:19:00     -128.699       12.297      -11.398       45.221       81.614       26.498     2044.982     6660.926      702.134        1.312        0.470      129.285       25.537        0.039      349.166       29.394      856.355
06/06/2014  17:20:00     -134.198       47.166      -25.165       31.541       48.613       20.198      994.841     2363.191      407.947        1.232        0.188      142.245       15.443        0.012      349.147       29.362      856.343
06/06/2014  17:21:00     -187.965       16.489      -20.630       51.490       52.988       26.972     2651.234     2807.730      727.462        2.111        0.309      188.687       23.874        0.016      349.128       29.326      856.349
06/06/2014  17:22:00     -117.408       -4.895      -12.543       44.760       30.842       18.045     2003.450      951.242      325.623        0.862        0.164      117.510       13.470        0.013      349.174       29.408      856.341
06/06/2014  17:23:00     -108.142        7.912      -15.277       30.819       45.371       19.809      949.797     2058.487      392.402        0.769        0.170      108.431       14.583        0.018      349.146       29.358      856.347
06/06/2014  17:24:00      -59.764        1.057       -7.844       40.221       28.144       19.421     1617.716      792.106      377.169        0.321        0.139       59.773       16.370        0.075      349.150       29.366      856.352
06/06/2014  17:25:00        5.165       12.505      -18.500       39.302       44.338       20.724     1544.637     1965.884      429.500        0.223        0.197       13.530       19.479        2.073      349.084       29.251      856.343
06/06/2014  17:26:00       -1.819      -12.948       16.733       15.237       30.226       15.415      232.151      913.595      237.625        0.092        0.069       13.075       18.869        2.083      349.166       29.394      856.339
06/06/2014  17:27:00       26.717       26.549       19.173       23.771       29.120       27.338      565.044      847.995      747.362        0.197        0.108       37.665       23.557        0.391      349.080       29.245      856.334
06/06/2014  17:28:00       59.537       50.060        6.255       28.743       26.636       22.269      826.161      709.494      495.899        0.406        0.102       77.786       17.842        0.053      349.038       29.174      856.333
06/06/2014  17:29:00       21.031        2.524        8.520       21.484       26.443       15.321      461.581      699.242      234.742        0.096        0.070       21.182        8.863        0.175      348.880       28.900      856.334
06/06/2014  17:30:00       48.708      -16.203        3.159       13.897       14.667       12.555      193.127      215.124      157.620        0.161        0.028       51.332        8.455        0.027      348.570       28.363      856.335
06/06/2014  17:31:00       23.077        0.427       -4.089       12.287       22.369        9.210      150.958      500.390       84.827        0.064        0.037       23.081        7.750        0.113      348.951       29.022      856.339
06/06/2014  17:32:00        9.136       26.913       -4.318       14.426       10.206        6.917      208.111      104.164       47.847        0.059        0.018       28.422        2.838        0.010      349.025       29.150      856.340
06/06/2014  17:33:00       25.223       37.804       -8.067       17.157       13.946       12.249      294.361      194.484      150.036        0.138        0.032       45.446        8.687        0.037      349.065       29.217      856.334
06/06/2014  17:34:00        1.513       18.806      -10.715        9.180        6.232        4.610       84.280       38.843       21.254        0.031        0.007       18.867        4.865        0.066      349.074       29.237      856.345
06/06/2014  17:35:00      -18.182       20.034       -8.920        9.878        8.711        4.719       97.581       75.885       22.266        0.050        0.010       27.055        3.905        0.021      349.025       29.148      856.346
06/06/2014  17:36:00      -19.646       12.017       -1.923       14.940       17.454       11.525      223.207      304.659      132.834        0.060        0.033       23.030        7.038        0.093      349.037       29.171      856.343
06/06/2014  17:37:00      -21.544       24.311       -4.437       15.017       10.693       12.447      225.514      114.341      154.928        0.078        0.025       32.484        7.587        0.055      349.100       29.281      856.365
06/06/2014  17:38:00      -75.332       -9.709       -6.339       18.487       23.808       14.731      341.764      566.817      217.012        0.347        0.056       75.955       11.653        0.024      349.165       29.392      856.378
06/06/2014  17:39:00      -88.552      -24.713        1.460       32.336       36.561       18.609     1045.632     1336.696      346.283        0.559        0.136       91.936       21.679        0.056      349.155       29.373      856.403
06/06/2014  17:40:00      -72.226      -56.485        7.341       46.642       37.099       21.733     2175.468     1376.300      472.339        0.624        0.201       91.691        7.263        0.006      349.078       29.242      856.411
06/06/2014  17:41:00      -12.279      -52.168       15.047       54.035       33.565       18.633     2919.733     1126.614      347.194        0.375        0.220       53.593       14.042        0.069      349.094       29.269      856.417
06/06/2014  17:42:00      -69.704      -56.421       -5.637       36.832       30.051       17.189     1356.567      903.049      295.446        0.531        0.128       89.677       13.597        0.023      349.190       29.436      856.429
06/06/2014  17:43:00     -108.953      -65.547        1.095       66.779       37.293       22.734     4459.389     1390.771      516.856        1.127        0.318      127.150       25.585        0.040      349.092       29.268      856.452
06/06/2014  17:44:00     -194.296      -66.746       -1.650       60.164       59.861       34.804     3619.659     3583.357     1211.315        2.531        0.421      205.441       31.034        0.023      349.130       29.328      856.458
06/06/2014  17:45:00     -264.021      -34.183       -5.775       78.385       64.060       44.382     6144.152     4103.676     1969.755        4.156        0.611      266.225       37.860        0.020      349.109       29.292      856.462
06/06/2014  17:46:00     -226.818     -107.819       -4.008      102.270       84.175       45.904    10459.145     7085.367     2107.150        4.137        0.983      251.140       48.116        0.037      349.118       29.305      856.477
06/06/2014  17:47:00     -152.646     -119.352       14.251      113.541       93.918       62.474    12891.459     8820.638     3903.020        3.168        1.281      193.767       68.923        0.127      349.137       29.341      856.501
06/06/2014  17:48:00     -247.021     -140.207        6.953      137.040      111.022       56.005    18780.054    12325.937     3136.591        5.748        1.712      284.038       76.279        0.072      349.103       29.282      856.509
06/06/2014  17:49:00     -254.565     -179.499       -5.813      141.514      137.188       72.300    20026.163    18820.623     5227.264        7.056        2.204      311.486       66.586        0.046      348.910       28.947      856.517
06/06/2014  17:50:00     -232.247     -149.411       -0.252       82.383       79.023       52.105     6787.009     6244.636     2714.966        4.600        0.787      276.157       43.308        0.025      348.925       28.974      856.522
06/06/2014  17:51:00     -360.524     -241.391      -14.629      185.480      161.883       97.538    34402.837    26206.185     9513.565       12.928        3.506      433.875      109.962        0.064      348.790       28.741      856.516
06/06/2014  17:52:00     -241.800     -204.077       -1.819      130.180      136.848       74.519    16946.770    18727.461     5553.149        7.066        2.061      316.410       74.345        0.055      348.798       28.752      856.480
06/06/2014  17:53:00     -271.328     -107.841        3.679      144.864      125.217       68.266    20985.563    15679.303     4660.271        6.329        2.066      291.974       59.315        0.041      348.858       28.858      856.488
06/06/2014  17:54:00     -211.979      -17.857      -16.045      116.462       87.884       41.620    13563.474     7723.621     1732.184        3.426        1.151      212.730       38.277        0.032      348.852       28.845      856.498
06/06/2014  17:55:00     -256.066      -51.528       -6.467      128.897       92.056       61.055    16614.340     8474.306     3727.719        4.854        1.441      261.199       62.987        0.058      348.821       28.793      856.487
06/06/2014  17:56:00     -313.250      -98.147       -5.510      115.358       91.117       50.443    13307.525     8302.222     2544.499        6.597        1.208      328.266       50.410        0.024      348.728       28.633      856.463
06/06/2014  17:57:00     -222.937      -51.054       -7.679      114.728       97.417       45.924    13162.482     9490.001     2108.973        3.856        1.238      228.708       55.541        0.059      348.765       28.696      856.471
06/06/2014  17:58:00     -234.390      -48.577       -3.557      118.573       70.350       46.871    14059.628     4949.096     2196.930        3.925        1.060      239.370       56.788        0.056      348.825       28.801      856.470
06/06/2014  17:59:00     -280.151     -132.979      -31.131       77.273       88.955       45.288     5971.167     7912.969     2051.029        5.653        0.797      310.110       43.531        0.020      348.773       28.710      856.458
06/06/2014  18:00:00     -169.778      -29.723       15.921      126.851       72.747       47.147    16091.148     5292.151     2222.801        2.678        1.180      172.360       56.772        0.108      348.783       28.729      856.458
06/06/2014  18:01:00     -218.444      -91.691      -12.633       90.845       90.394       39.189     8252.811     8171.082     1535.756        3.712        0.898      236.907       37.152        0.025      348.786       28.733      856.456
06/06/2014  18:02:00     -164.292      -45.113        8.647      113.814       76.944       55.004    12953.525     5920.451     3025.423        2.550        1.095      170.374       61.239        0.129      348.820       28.791      856.470
06/06/2014  18:03:00     -232.552     -124.945       -7.887      144.739      131.685       69.809    20949.439    17340.986     4873.296        5.645        2.158      263.992       73.906        0.078      348.731       28.639      856.475
06/06/2014  18:04:00     -216.973     -129.560       -1.851      148.511      126.102       71.779    22055.530    15901.775     5152.195        5.348        2.155      252.712       77.040        0.093      348.757       28.684      856.466
06/06/2014  18:05:00     -227.360      -89.685        5.054      146.414      102.684       63.519    21437.182    10544.085     4034.670        4.788        1.801      244.409       80.575        0.109      348.759       28.687      856.475
06/06/2014  18:06:00     -480.415     -309.898       -8.999      235.387      186.220      109.986    55407.203    34677.895    12096.912       21.453        5.109      571.695      133.004        0.054      348.638       28.476      856.447
06/06/2014  18:07:00     -460.941     -202.499       -5.526      242.349      141.177       85.303    58733.009    19930.971     7276.673       16.970        4.297      503.460      109.300        0.047      348.665       28.524      856.483
06/06/2014  18:08:00     -362.439     -185.035        7.812      224.679      136.140       95.121    50480.810    18534.132     9048.087       12.185        3.903      406.939      114.939        0.080      348.650       28.498      856.499
06/06/2014  18:09:00     -321.025     -148.428       -7.270      192.226      141.453       68.366    36950.735    20008.857     4673.888        9.338        3.082      353.677       76.309        0.047      348.658       28.511      856.470
06/06/2014  18:10:00     -489.879     -312.873      -22.416      178.775      164.090       95.493    31960.647    26925.684     9118.891       20.318        3.400      581.267       85.207        0.021      348.612       28.431      856.491
06/06/2014  18:11:00     -306.947     -199.217      -19.811      185.366      115.411       70.372    34360.702    13319.694     4952.189        9.345        2.632      365.928       76.715        0.044      348.645       28.489      856.499
06/06/2014  18:12:00     -337.971     -204.271      -22.758      169.169      138.050       84.903    28618.120    19057.862     7208.445       10.567        2.744      394.906       93.464        0.056      348.617       28.440      856.483
06/06/2014  18:13:00     -346.102     -161.449      -15.161      182.723      130.814       76.999    33387.864    17112.233     5928.895       10.124        2.821      381.907       86.822        0.052      348.627       28.459      856.499
06/06/2014  18:14:00     -267.478     -129.397       -4.308      129.987      123.277       69.784    16896.729    15197.131     4869.845        6.263        1.848      297.133       57.780        0.038      348.644       28.486      856.512
06/06/2014  18:15:00     -302.205     -107.972       14.024      200.148      166.740       83.454    40059.354    27802.083     6964.650        8.899        3.741      320.914       95.927        0.089      348.613       28.433      856.525
06/06/2014  18:16:00     -304.084     -215.850       -6.151      217.781      159.957       89.873    47428.421    25586.386     8077.146       11.008        4.055      372.905       90.887        0.059      348.572       28.364      856.527
06/06/2014  18:17:00     -364.761     -135.700       -4.383      153.830      158.602       72.431    23663.716    25154.726     5246.289       10.276        2.703      389.185       75.969        0.038      348.549       28.322      856.540
06/06/2014  18:18:00     -379.312     -214.884       -3.538      180.605      138.571       74.679    32618.105    19202.005     5576.895       12.372        2.870      435.950       89.903        0.043      348.515       28.264      856.550
06/06/2014  18:19:00     -380.401     -136.300      -15.847      220.062      165.777       99.162    48427.083    27482.100     9833.088       12.462        4.287      404.082      109.881        0.074      348.482       28.207      856.551
06/06/2014  18:20:00     -385.011     -176.426       -2.575      206.892      121.223       73.519    42804.420    14695.056     5405.067       12.112        3.145      423.509       84.591        0.040      348.472       28.189      856.581
06/06/2014  18:21:00     -355.552     -173.513       -3.652      203.753      167.539      100.216    41515.353    28069.249    10043.319       11.807        3.981      395.631       99.260        0.063      348.495       28.229      856.573
06/06/2014  18:22:00     -264.020     -245.297       -7.697      176.268      148.268       83.657    31070.407    21983.394     6998.560        9.498        3.003      360.385      102.463        0.081      348.492       28.225      856.593
06/06/2014  18:23:00     -259.583     -186.987      -10.869      108.437      147.878       75.616    11758.538    21868.019     5717.838        7.090        1.967      319.918       64.077        0.040      348.502       28.241      856.625
06/06/2014  18:24:00     -224.221     -184.098       -5.306      123.295       90.593       62.604    15201.778     8207.063     3919.307        5.576        1.366      290.116       68.816        0.056      348.495       28.230      856.639
06/06/2014  18:25:00     -285.885     -102.711       -2.846      128.200       74.045       44.133    16435.340     5482.596     1947.710        5.807        1.193      303.776       42.437        0.020      348.475       28.195      856.648
06/06/2014  18:26:00     -299.109     -130.008      -12.664      118.281       91.593       58.042    13990.451     8389.267     3368.873        6.613        1.287      326.141       53.294        0.027      348.505       28.245      856.679
06/06/2014  18:27:00     -124.779      -59.057       12.974      102.227       92.639       50.082    10450.351     8581.916     2508.192        2.038        1.077      138.049       44.177        0.102      348.513       28.262      856.679
06/06/2014  18:28:00     -198.992      -63.386       15.309      135.426      100.260       54.362    18340.172    10051.982     2955.236        3.759        1.567      208.844       53.176        0.065      348.483       28.210      856.693
06/06/2014  18:29:00     -186.490     -132.691        1.637      207.632      113.073       86.013    43111.152    12785.402     7398.281        5.783        3.165      228.879      112.638        0.242      348.486       28.216      856.703
06/06/2014  18:30:00     -225.858     -165.266       -9.724      164.237      133.838       82.611    26973.836    17912.661     6824.544        6.505        2.586      279.865       92.646        0.110      348.476       28.198      856.709
06/06/2014  18:31:00     -151.962      -74.366       -2.539      107.146       89.515       55.449    11480.208     8012.868     3074.553        2.559        1.128      169.183       59.953        0.126      348.504       28.247      856.734
06/06/2014  18:32:00     -157.161     -139.204        9.376      137.299      112.690       77.771    18851.039    12698.954     6048.338        4.087        1.880      209.946       75.171        0.128      348.484       28.210      856.757
06/06/2014  18:33:00     -307.116     -162.906       -2.438      124.121      139.269       76.438    15405.935    19395.981     5842.832        8.075        2.032      347.647       72.657        0.044      348.455       28.159      856.763
06/06/2014  18:34:00     -192.245      -56.579        0.654      104.321       99.167       56.937    10882.933     9834.114     3241.866        3.205        1.198      200.398       52.372        0.068      348.494       28.228      856.798
06/06/2014  18:35:00     -207.991     -168.032       -1.954      135.434      122.386       66.960    18342.363    14978.366     4483.610        5.464        1.890      267.386       80.541        0.091      348.506       28.249      856.805
06/06/2014  18:36:00     -284.513     -131.266      -13.089      133.164      117.077       59.841    17732.635    13706.918     3580.993        6.668        1.751      313.334       63.284        0.041      348.507       28.250      856.811
06/06/2014  18:37:00     -273.516     -148.331       -1.746      130.522      119.979       64.472    17036.061    14394.979     4156.635        6.619        1.779      311.148       63.639        0.042      348.511       28.256      856.830
06/06/2014  18:38:00     -221.667     -160.295       -3.802      118.376      130.078       68.062    14012.839    16920.317     4632.465        5.520        1.778      273.552       77.250        0.080      348.495       28.230      856.845
06/06/2014  18:39:00     -290.538     -135.588       -7.303      157.914      129.738       65.208    24936.684    16831.829     4252.061        7.443        2.301      320.619       79.728        0.062      348.510       28.256      856.867
06/06/2014  18:40:00     -374.454      -52.837      -10.756      249.273      220.158       72.713    62137.148    48469.710     5287.143       12.949        5.795      378.163       90.174        0.057      348.450       28.151      856.894
06/06/2014  18:41:00     -544.092     -149.939      -14.370      196.030      117.698       72.527    38427.908    13852.805     5260.221       18.812        2.877      564.374       80.077        0.020      348.408       28.079      856.875
06/06/2014  18:42:00     -341.461      -86.427       -7.732      162.661      116.880       70.507    26458.757    13660.856     4971.219        8.460        2.255      352.229       77.397        0.048      348.424       28.108      856.884
06/06/2014  18:43:00     -279.716      -43.720       -1.160      150.193      136.412       67.689    22557.810    18608.120     4581.811        6.294        2.287      283.112       71.636        0.064      348.466       28.181      856.920
06/06/2014  18:44:00     -340.218     -177.299       -6.351      190.084      179.033       75.924    36131.854    32052.717     5764.517       11.057        3.697      383.645       86.599        0.051      348.443       28.139      856.934
06/06/2014  18:45:00     -407.051     -272.838      -23.032      188.861      182.234       89.522    35668.311    33209.290     8014.168       15.876        3.845      490.032       99.908        0.042      348.416       28.093      856.904
06/06/2014  18:46:00     -269.932      -24.769        1.519      180.575      142.227       80.582    32607.313    20228.489     6493.445        6.639        2.966      271.066       86.960        0.103      348.448       28.151      856.942
06/06/2014  18:47:00     -256.731     -196.715        3.586      175.683      137.488       94.167    30864.470    18902.997     8867.334        8.162        2.932      323.431       98.389        0.093      348.423       28.105      856.948
06/06/2014  18:48:00     -314.462     -147.226      -17.046      117.398      142.036       68.822    13782.198    20174.344     4736.408        7.977        1.935      347.220       72.479        0.044      348.391       28.049      856.969
06/06/2014  18:49:00     -252.279     -172.014       11.628      189.756      158.878       80.355    36007.306    25242.269     6456.967        8.052        3.385      305.341       83.151        0.074      348.399       28.063      857.001
06/06/2014  18:50:00     -358.587     -148.775       -2.794      163.065      148.713       77.826    26590.345    22115.525     6056.863       10.273        2.738      388.225       88.166        0.052      348.361       27.997      857.022
06/06/2014  18:51:00     -141.229      -86.334       17.296      147.619       83.109       62.099    21791.240     6907.072     3856.325        3.012        1.628      165.527       72.059        0.190      348.403       28.071      857.049
06/06/2014  18:52:00     -541.782      -97.955      -36.724      180.845      146.901       71.240    32704.792    21579.925     5075.186       18.190        2.968      550.566       62.944        0.013      348.320       27.924      857.071
06/06/2014  18:53:00     -408.504     -205.749      -15.321      189.775      152.210       86.689    36014.368    23167.864     7514.896       13.806        3.335      457.393       68.251        0.022      348.307       27.905      857.073
06/06/2014  18:54:00     -400.780     -161.124       -8.199      202.805      164.196       84.063    41129.910    26960.484     7066.558       13.089        3.758      431.956       96.882        0.050      348.295       27.882      857.083
06/06/2014  18:55:00     -286.654      -68.823        0.096      225.078      144.450       80.665    50659.931    20865.868     6506.800        8.245        3.902      294.800       92.394        0.098      348.302       27.896      857.108
06/06/2014  18:56:00     -303.719      -54.952       -0.166      132.376      114.775       59.089    17523.289    13173.343     3491.521        6.472        1.709      308.650       56.878        0.034      348.297       27.885      857.129
06/06/2014  18:57:00     -343.941     -113.664      -20.218      171.557      137.820       67.194    29431.700    18994.258     4514.980        9.227        2.647      362.236       67.985        0.035      348.286       27.866      857.142
06/06/2014  18:58:00     -279.883      -91.814       -0.644      177.752      126.578       84.667    31595.948    16022.044     7168.508        7.076        2.739      294.558       82.827        0.079      348.272       27.841      857.159
06/06/2014  18:59:00     -368.607     -173.200      -23.424      130.327       99.774       63.414    16985.017     9954.873     4021.272        9.868        1.548      407.270       61.570        0.023      348.264       27.829      857.185
06/06/2014  19:00:00     -294.060       21.200       -9.555      143.733       88.557       62.669    20659.256     7842.310     3927.389        5.971        1.621      294.824       65.227        0.049      348.267       27.834      857.197
06/06/2014  19:01:00      -55.191      -31.300       25.765      111.684       74.181       58.608    12473.273     5502.797     3434.841        1.305        1.071       63.449       59.788        0.888      348.291       27.877      857.186
06/06/2014  19:02:00     -114.472      -83.245        6.768      119.050       82.884       56.486    14172.949     6869.752     3190.658        2.215        1.212      141.540       70.106        0.245      348.283       27.863      857.176
06/06/2014  19:03:00     -122.538      -86.972       -0.803      140.841       99.502       61.912    19836.112     9900.597     3833.093        2.807        1.678      150.265       77.170        0.264      348.277       27.853      857.181
06/06/2014  19:04:00     -247.008     -124.811       -6.417      152.179      119.340       68.355    23158.475    14242.147     4672.389        5.934        2.104      276.750       57.528        0.043      348.245       27.798      857.179
06/06/2014  19:05:00     -359.266      -47.908      -15.149      179.966      172.524       77.442    32387.661    29764.544     5997.278        9.986        3.407      362.446       72.535        0.040      348.246       27.797      857.186
06/06/2014  19:06:00     -308.514     -105.744      -18.324      182.746      164.891       85.623    33396.087    27189.029     7331.298        8.729        3.396      326.133       98.918        0.092      348.251       27.807      857.184
06/06/2014  19:07:00     -166.402      -17.631       15.285      175.284       94.967       78.519    30724.612     9018.738     6165.291        3.706        2.295      167.334       79.385        0.225      348.266       27.835      857.208
06/06/2014  19:08:00     -285.699      -31.290      -12.224      172.155      102.053       76.291    29637.386    10414.737     5820.261        6.430        2.294      287.408       83.859        0.085      348.247       27.801      857.227
06/06/2014  19:09:00     -266.799      -72.136      -28.206      152.887      119.431       57.280    23374.553    14263.660     3280.992        5.904        2.046      276.379       71.163        0.066      348.239       27.786      857.258
06/06/2014  19:10:00     -238.762      -15.454       -0.731       95.962       92.477       55.670     9208.773     8551.935     3099.146        3.905        1.043      239.262       43.677        0.033      348.215       27.745      857.280
06/06/2014  19:11:00     -313.744      -12.732       -5.975      118.505      106.562       58.329    14043.504    11355.440     3402.270        6.371        1.440      314.003       60.596        0.037      348.195       27.711      857.268
06/06/2014  19:12:00     -109.559      -29.137       17.372      100.849       69.591       48.776    10170.560     4842.866     2379.068        1.527        0.870      113.367       61.567        0.295      348.219       27.754      857.258
06/06/2014  19:13:00     -162.818     -112.335       18.235      156.999      103.816       51.322    24648.650    10777.809     2633.959        3.875        1.903      197.810       68.008        0.118      348.217       27.751      857.255
06/06/2014  19:14:00     -335.364      -70.068       -6.716      249.195      153.328       94.227    62097.980    23509.565     8878.642       10.594        4.724      342.606      120.797        0.124      348.173       27.673      857.233
06/06/2014  19:15:00     -444.676     -260.607      -28.603      215.793      138.209       82.082    46566.592    19101.617     6737.535       16.942        3.620      515.415       86.522        0.028      348.165       27.658      857.221
06/06/2014  19:16:00     -240.909     -181.168       -0.487      197.449      141.285       77.526    38985.980    19961.456     6010.253        7.790        3.248      301.428       68.854        0.052      348.157       27.646      857.244
06/06/2014  19:17:00     -303.283     -152.613       -4.472      169.628      136.565       87.940    28773.793    18649.958     7733.431        8.521        2.758      339.517       89.816        0.070      348.161       27.652      857.238
06/06/2014  19:18:00     -167.896      -57.626        3.720      121.141       86.213       58.856    14675.229     7432.688     3463.984        2.854        1.279      177.510       60.457        0.116      348.171       27.669      857.259
06/06/2014  19:19:00     -302.281     -214.823       -3.304      180.272      141.077       95.697    32497.927    19902.614     9157.894        9.953        3.078      370.840      100.596        0.074      348.151       27.634      857.233
06/06/2014  19:20:00     -297.515     -222.194      -10.320      194.906      166.695       88.432    37988.443    27787.128     7820.257       10.578        3.680      371.329       85.272        0.053      348.155       27.642      857.225
06/06/2014  19:21:00     -216.513       -4.503       -1.679      138.172       93.387       70.497    19091.445     8721.074     4969.833        3.984        1.639      216.560       75.847        0.123      348.164       27.658      857.246
06/06/2014  19:22:00     -200.099     -142.311       -2.248      240.670      129.179       86.491    57921.934    16687.114     7480.640        7.118        4.104      245.544       96.889        0.156      348.140       27.617      857.253
06/06/2014  19:23:00     -418.986     -106.008      -18.186      182.895      134.480       86.657    33450.507    18085.004     7509.395       12.307        2.952      432.189       82.460        0.036      348.117       27.575      857.239
06/06/2014  19:24:00     -141.159      -45.605        5.136      104.056       90.559       57.684    10827.599     8200.960     3327.413        2.219        1.118      148.343       54.335        0.134      348.122       27.585      857.263
06/06/2014  19:25:00     -306.566      -51.487      -18.721      161.785      136.829       74.176    26174.369    18722.069     5502.097        7.368        2.520      310.860       86.410        0.077      348.122       27.585      857.264
06/06/2014  19:26:00     -198.688      -54.104       -0.444      125.218       88.936       61.471    15679.647     7909.693     3778.656        3.488        1.368      205.923       60.922        0.088      348.105       27.556      857.278
06/06/2014  19:27:00     -232.872        6.421       -0.200      123.732      103.548       79.553    15309.495    10722.150     6328.619        4.331        1.618      232.960       69.274        0.088      348.104       27.551      857.255
06/06/2014  19:28:00     -310.921       11.249      -11.059      143.031      105.381       71.823    20457.836    11105.191     5158.572        6.681        1.836      311.124       74.175        0.057      348.067       27.488      857.240
06/06/2014  19:29:00     -219.826      -37.682        3.483      113.963       82.399       56.909    12987.523     6789.578     3238.578        3.638        1.151      223.032       59.640        0.072      348.055       27.468      857.248
06/06/2014  19:30:00     -212.514     -108.318       -0.724      126.565      111.251       55.974    16018.744    12376.679     3133.054        4.421        1.576      238.527       57.602        0.058      348.067       27.487      857.234
06/06/2014  19:31:00     -164.027     -119.777       10.999      115.160      106.092       59.108    13261.909    11255.534     3493.746        3.469        1.401      203.104       62.282        0.094      348.062       27.481      857.223
06/06/2014  19:32:00     -182.959      -46.492       -6.261      127.613      120.027       57.042    16285.122    14406.432     3253.746        3.480        1.697      188.773       65.374        0.120      348.039       27.441      857.237
06/06/2014  19:33:00     -193.270      -37.541       11.794      118.684      108.863       71.619    14085.814    11851.256     5129.222        3.498        1.553      196.883       59.446        0.091      348.021       27.410      857.222
06/06/2014  19:34:00     -275.356     -127.590      -10.848      130.107      119.969       67.395    16927.788    14392.554     4542.103        6.403        1.793      303.479       71.437        0.055      348.023       27.413      857.209
06/06/2014  19:35:00      -76.970      -68.362        8.708      115.887       95.458       64.878    13429.710     9112.241     4209.201        1.871        1.338      102.946       71.531        0.483      348.001       27.377      857.215
06/06/2014  19:36:00     -282.802     -129.480      -15.976      166.696      108.244       58.118    27787.596    11716.745     3377.645        6.993        2.144      311.034       61.209        0.039      348.003       27.380      857.208
06/06/2014  19:37:00     -199.507      -45.558      -11.182      106.892       92.712       57.902    11425.936     8595.507     3352.603        3.268        1.169      204.643       49.920        0.060      347.989       27.354      857.200
06/06/2014  19:38:00     -124.511      -16.269        5.557      120.037       87.451       56.890    14408.921     7647.699     3236.486        2.054        1.265      125.569       43.019        0.117      347.982       27.345      857.211
06/06/2014  19:39:00     -198.003      -53.778      -10.205      122.659       84.032       53.940    15045.159     7061.306     2909.566        3.360        1.251      205.176       59.784        0.085      347.953       27.294      857.223
06/06/2014  19:40:00     -216.995      -15.015       -6.750      116.772       61.569       43.404    13635.743     3790.783     1883.920        3.333        0.966      217.514       51.816        0.057      347.942       27.275      857.232
06/06/2014  19:41:00     -340.164      -67.045      -15.910      129.649      120.531       65.606    16808.891    14527.712     4304.102        7.804        1.782      346.708       74.883        0.047      347.956       27.298      857.237
06/06/2014  19:42:00     -245.295      -57.413        0.094      114.883       89.301       46.247    13197.991     7974.602     2138.745        4.338        1.166      251.925       42.724        0.029      347.924       27.243      857.241
06/06/2014  19:43:00     -457.634       20.809      -33.004      177.522      134.926       74.635    31514.043    18204.990     5570.373       13.311        2.764      458.107       82.791        0.033      347.927       27.247      857.242
06/06/2014  19:44:00     -285.843      -67.703      -10.616      117.899       83.153       55.767    13900.156     6914.349     3109.948        5.516        1.196      293.751       60.985        0.043      347.902       27.203      857.258
06/06/2014  19:45:00     -337.443     -130.329      -14.914      158.307      129.708       60.628    25061.081    16824.134     3675.785        8.831        2.278      361.737       55.471        0.024      347.908       27.215      857.249
06/06/2014  19:46:00     -259.628     -102.169       -5.098      165.724      141.686       70.986    27464.546    20074.824     5038.973        6.521        2.629      279.007       89.708        0.103      347.878       27.163      857.273
06/06/2014  19:47:00     -243.389      -79.127      -11.723       90.495       98.010       54.065     8189.309     9606.037     2923.014        4.317        1.036      255.928       46.407        0.033      347.870       27.148      857.282
06/06/2014  19:48:00     -301.244      -48.702      -15.055      161.943      142.751       59.278    26225.688    20377.952     3513.879        7.172        2.506      305.155       68.448        0.050      347.857       27.125      857.264
06/06/2014  19:49:00     -236.261      -65.531      -18.479      140.320       89.495       48.390    19689.817     8009.421     2341.556        4.524        1.502      245.181       47.966        0.038      347.838       27.093      857.280
06/06/2014  19:50:00     -318.411      -56.648      -10.330      181.715      106.884       63.796    33020.405    11424.151     4069.896        7.660        2.426      323.411       70.526        0.048      347.828       27.075      857.287
06/06/2014  19:51:00     -275.195      -65.985      -17.867      186.087      123.602       74.833    34628.475    15277.362     5600.010        6.794        2.775      282.995       77.815        0.076      347.822       27.064      857.276
06/06/2014  19:52:00     -196.644      -50.842       16.616      124.544      105.654       67.382    15511.117    11162.795     4540.375        3.637        1.561      203.110       66.925        0.109      347.791       27.013      857.306
06/06/2014  19:53:00     -181.381      -69.623        5.052      157.610       90.699       74.023    24840.913     8226.338     5479.473        3.815        1.927      194.284       88.141        0.206      347.801       27.031      857.293
06/06/2014  19:54:00     -276.441     -107.730       -6.165      158.914       98.316       66.687    25253.610     9666.109     4447.112        6.371        1.968      296.691       80.927        0.074      347.780       26.994      857.280
06/06/2014  19:55:00     -226.529     -167.758       11.699      188.940      128.603       83.289    35698.280    16538.620     6937.014        6.937        2.959      281.883       97.695        0.120      347.778       26.991      857.298
06/06/2014  19:56:00     -267.342      -67.346      -13.828      168.764      115.475       64.292    28481.121    13334.376     4133.413        6.106        2.297      275.694       40.820        0.022      347.762       26.964      857.299
06/06/2014  19:57:00     -281.105      -12.687        0.026      156.523      119.399       65.534    24499.401    14256.136     4294.640        6.111        2.153      281.391       72.241        0.066      347.745       26.934      857.308
06/06/2014  19:58:00     -272.491     -119.286        0.659      156.989      162.435       75.446    24645.660    26385.080     5692.091        7.259        2.836      297.457       85.031        0.082      347.763       26.966      857.320
06/06/2014  19:59:00     -388.240      -38.082      -19.206      166.832      148.021       65.829    27832.892    21910.154     4333.409       10.330        2.704      390.103       78.796        0.041      347.756       26.952      857.338
06/06/2014  20:00:00     -331.077      -53.241      -14.325      137.154      129.710       56.741    18811.316    16824.772     3219.590        7.575        1.943      335.331       67.574        0.041      347.748       26.940      857.329
06/06/2014  20:01:00     -288.167      -37.753       -8.929      159.556      110.268       63.659    25458.173    12159.062     4052.452        6.310        2.083      290.630       67.910        0.055      347.740       26.927      857.329
06/06/2014  20:02:00     -284.890     -144.451      -10.890      141.215      152.092       63.959    19941.793    23132.107     4090.802        7.465        2.358      319.419       69.942        0.048      347.763       26.966      857.314
06/06/2014  20:03:00     -386.359      -76.940      -15.534      168.187      175.186       82.990    28286.889    30689.977     6887.267       11.064        3.293      393.946       68.907        0.031      347.759       26.958      857.289
06/06/2014  20:04:00     -322.917     -186.362       -5.900      188.158      148.077       90.993    35403.516    21926.883     8279.752       10.231        3.281      372.835       77.534        0.043      347.754       26.950      857.298
06/06/2014  20:05:00     -386.886      -91.209      -20.375      172.096      121.922       85.705    29616.939    14864.935     7345.335       10.511        2.591      397.492       96.763        0.059      347.754       26.950      857.313
06/06/2014  20:06:00     -147.038      -55.587       18.718      173.289      107.425       66.778    30029.225    11540.167     4459.282        3.554        2.301      157.194       81.911        0.272      347.731       26.912      857.325
06/06/2014  20:07:00     -213.256     -118.025        3.917      137.713      106.765       65.246    18964.983    11398.737     4257.092        4.702        1.731      243.737       76.387        0.098      347.713       26.878      857.326
06/06/2014  20:08:00     -243.393     -134.167        7.660      181.161      113.600       86.307    32819.215    12904.964     7448.978        6.523        2.659      277.923      103.304        0.138      347.718       26.888      857.304
06/06/2014  20:09:00     -231.087     -128.487        0.002      225.211      134.120       87.643    50719.963    17988.155     7681.267        7.313        3.819      264.405      115.439        0.191      347.734       26.915      857.321
06/06/2014  20:10:00     -331.179     -132.759       -4.282      180.770      117.877       72.686    32677.856    13894.908     5283.186        8.958        2.593      356.797       77.916        0.048      347.732       26.909      857.303
06/06/2014  20:11:00     -247.970      -92.919        0.060      128.800      163.814       76.437    16589.313    26834.921     5842.639        5.969        2.463      264.808       78.232        0.087      347.720       26.891      857.315
06/06/2014  20:12:00     -252.878     -145.880      -10.633      122.375       98.115       61.130    14975.651     9626.499     3736.893        5.683        1.417      291.939       59.172        0.041      347.727       26.902      857.321
06/06/2014  20:13:00     -238.541     -148.750       -5.958      113.273       88.652       54.027    12830.877     7859.222     2918.864        5.133        1.180      281.120       58.119        0.043      347.717       26.885      857.320
06/06/2014  20:14:00     -354.329     -160.429      -14.453      100.046       94.003       66.763    10009.158     8836.544     4457.249        8.739        1.165      388.956       49.959        0.016      347.734       26.914      857.311
06/06/2014  20:15:00     -266.293      -37.566       -3.665      150.586      103.319       57.965    22675.996    10674.807     3359.943        5.452        1.836      268.930       66.447        0.061      347.681       26.823      857.322
06/06/2014  20:16:00     -327.417      -51.144        4.838      200.534      157.663       79.285    40214.018    24857.628     6286.133        9.059        3.568      331.387       92.393        0.078      347.699       26.854      857.325
06/06/2014  20:17:00     -371.292     -199.093      -24.459      160.676      127.945       73.031    25816.767    16369.875     5333.479       11.280        2.376      421.303       83.883        0.040      347.714       26.881      857.319
06/06/2014  20:18:00     -248.458     -131.753      -18.954      134.612       90.855       65.043    18120.482     8254.599     4230.570        5.502        1.530      281.230       60.552        0.046      347.675       26.812      857.318
06/06/2014  20:19:00     -189.606     -118.704        1.247      140.381       92.772       51.370    19706.736     8606.681     2638.896        4.049        1.548      223.698       64.070        0.082      347.668       26.801      857.309
06/06/2014  20:20:00     -271.855     -124.099       10.194      174.559      128.768       71.455    30470.741    16581.256     5105.801        7.077        2.608      298.841       71.589        0.057      347.641       26.755      857.317
06/06/2014  20:21:00     -332.888     -170.900       -9.513      175.919      158.914       80.659    30947.473    25253.552     6505.806       10.140        3.135      374.194       89.414        0.057      347.652       26.772      857.313
06/06/2014  20:22:00     -303.541     -173.608      -10.243      210.623      162.672      100.277    44362.017    26462.220    10055.486       10.161        4.044      349.681      104.315        0.089      347.655       26.778      857.302
06/06/2014  20:23:00     -401.084     -139.937       -4.584      230.955      134.172       93.982    53340.100    18002.209     8832.657       13.031        4.009      424.795      115.537        0.074      347.694       26.846      857.310
06/06/2014  20:24:00     -301.661     -105.831        0.095      194.426      118.836       71.422    37801.447    14122.015     5101.061        7.960        2.851      319.687       93.637        0.086      347.679       26.820      857.316
06/06/2014  20:25:00     -312.752     -147.017      -11.176      137.786      113.519       57.596    18984.994    12886.504     3317.326        7.736        1.759      345.584       61.894        0.032      347.678       26.818      857.335
06/06/2014  20:26:00     -276.964      -90.298       -3.301      164.820      103.888       68.533    27165.618    10792.812     4696.840        6.376        2.133      291.312       73.796        0.064      347.647       26.766      857.336
06/06/2014  20:27:00     -350.413     -139.865      -18.351      122.694      108.045       64.215    15053.767    11673.661     4123.625        8.676        1.543      377.295       58.688        0.024      347.671       26.805      857.341
06/06/2014  20:28:00     -212.794     -118.733       -0.008      158.428      126.021       65.085    25099.281    15881.267     4236.122        5.229        2.261      243.677       74.659        0.094      347.656       26.779      857.337
06/06/2014  20:29:00     -231.604      -56.318       -2.158      138.184      105.044       75.611    19094.836    11034.315     5716.962        4.632        1.792      238.353       70.765        0.088      347.647       26.764      857.337
06/06/2014  20:30:00     -196.487     -105.638       -3.511      121.355      120.678       59.173    14726.927    14563.143     3501.415        4.128        1.640      223.084       65.031        0.085      347.639       26.749      857.342
06/06/2014  20:31:00     -216.261     -131.311      -13.202       94.253       76.392       45.922     8883.585     5835.743     2108.790        4.050        0.841      253.005       41.364        0.027      347.616       26.711      857.354
06/06/2014  20:32:00     -235.727      -76.875      -10.146      109.085       86.434       56.337    11899.575     7470.839     3173.914        4.206        1.127      247.946       56.439        0.052      347.604       26.690      857.351
06/06/2014  20:33:00     -257.162      -52.571        0.219      100.628       87.794       57.753    10126.066     7707.867     3335.461        4.503        1.058      262.480       55.441        0.045      347.608       26.696      857.355
06/06/2014  20:34:00     -227.451      -27.784       -1.640      113.307       73.230       46.028    12838.438     5362.593     2118.574        3.641        1.016      229.141       52.880        0.053      347.569       26.628      857.356
06/06/2014  20:35:00     -172.485      -20.639       -6.956       93.437       70.131       42.326     8730.517     4918.416     1791.494        2.283        0.772      173.716       35.006        0.041      347.518       26.543      857.353
06/06/2014  20:36:00     -185.735      -55.199       -4.395       73.629       73.199       34.545     5421.159     5358.050     1193.355        2.477        0.599      193.764       38.704        0.040      347.515       26.539      857.347
06/06/2014  20:37:00     -145.269      -18.512        6.731       89.692       97.536       52.918     8044.698     9513.239     2800.282        2.092        1.018      146.444       49.968        0.116      347.545       26.590      857.325
06/06/2014  20:38:00     -132.143      -25.942       28.584      137.592       98.907       61.762    18931.427     9782.628     3814.544        2.573        1.626      134.666       76.107        0.319      347.538       26.578      857.334
06/06/2014  20:39:00     -278.989      -93.053      -18.131      139.028      114.163       51.141    19328.696    13033.162     2615.378        6.089        1.749      294.098       47.463        0.026      347.539       26.578      857.323
06/06/2014  20:40:00     -210.619     -109.456       -7.676      126.099      109.394       58.610    15900.893    11966.993     3435.109        4.385        1.565      237.363       65.092        0.075      347.540       26.581      857.306
06/06/2014  20:41:00     -270.040      -72.657       -0.769      155.523      107.145       75.718    24187.455    11479.954     5733.242        5.979        2.070      279.644       87.885        0.099      347.598       26.681      857.307
06/06/2014  20:42:00     -231.480     -161.628       -3.226      144.881      111.294       79.120    20990.401    12386.277     6259.933        5.967        1.982      282.324       77.593        0.076      347.602       26.686      857.288
06/06/2014  20:43:00     -205.829     -153.663        1.222      183.771      119.034       65.622    33771.864    14169.074     4306.183        5.910        2.612      256.861       81.246        0.100      347.609       26.699      857.292
06/06/2014  20:44:00     -197.514     -132.692        5.200      121.888       87.861       71.646    14856.737     7719.633     5133.082        4.217        1.385      237.947       79.633        0.112      347.589       26.664      857.306
06/06/2014  20:45:00     -192.112     -128.233      -12.429      152.152       82.764       54.639    23150.209     6849.924     2985.375        4.324        1.649      230.978       50.334        0.047      347.604       26.691      857.314
06/06/2014  20:46:00     -152.158      -80.999       26.819      126.426      102.518       68.040    15983.551    10509.904     4629.463        3.077        1.556      172.374       78.712        0.209      347.555       26.608      857.314
06/06/2014  20:47:00     -206.773      -25.826       -6.602      113.333       99.117       55.020    12844.347     9824.162     3027.224        3.458        1.285      208.380       56.568        0.074      347.577       26.644      857.320
06/06/2014  20:48:00     -230.897      -68.212       -0.323      148.804      105.482       58.379    22142.630    11126.441     3408.152        4.731        1.834      240.762       81.799        0.115      347.572       26.635      857.324
06/06/2014  20:49:00     -148.685      -37.418        1.841      106.191      105.763       63.222    11276.628    11185.754     3997.038        2.498        1.323      153.321       61.353        0.160      347.564       26.623      857.306
06/06/2014  20:50:00     -210.320     -103.004        3.057       94.602       96.636       49.678     8949.587     9338.536     2467.891        3.780        1.038      234.189       42.561        0.033      347.590       26.666      857.310
06/06/2014  20:51:00     -184.896      -70.447        5.244      144.764      105.123       57.426    20956.725    11050.863     3297.785        3.723        1.765      197.862       56.521        0.082      347.548       26.594      857.316
06/06/2014  20:52:00     -278.353     -121.615       -9.874      155.870      118.984       79.925    24295.306    14157.151     6388.056        6.860        2.242      303.761       86.392        0.081      347.576       26.644      857.297
06/06/2014  20:53:00     -225.301     -202.886       -0.545      150.929      112.931       70.923    22779.564    12753.338     5030.012        6.624        2.028      303.189       78.484        0.067      347.547       26.593      857.309
06/06/2014  20:54:00     -179.095     -130.660        1.971      137.712      114.741       68.733    18964.593    13165.452     4724.285        4.300        1.843      221.691       74.035        0.112      347.517       26.540      857.320
06/06/2014  20:55:00     -266.949     -164.800      -10.893      109.728       83.176       52.344    12040.251     6918.180     2739.891        6.011        1.085      313.721       45.591        0.021      347.509       26.524      857.322
06/06/2014  20:56:00     -264.060      -86.735      -12.403      115.379       94.485       42.340    13312.335     8927.441     1792.679        5.071        1.202      277.940       49.843        0.032      347.517       26.541      857.315
06/06/2014  20:57:00     -232.479     -104.293       -9.180      112.845       86.478       45.825    12733.958     7478.465     2099.971        4.366        1.116      254.801       40.364        0.025      347.521       26.548      857.326
06/06/2014  20:58:00     -197.070      -86.337      -20.505      100.319       93.764       54.922    10063.821     8791.712     3016.413        3.429        1.094      215.152       28.593        0.018      347.482       26.480      857.340
06/06/2014  20:59:00     -136.247      -57.961       -0.325      126.495       63.944       47.674    16001.068     4088.854     2272.843        2.214        1.118      148.063       61.820        0.174      347.436       26.400      857.348
06/06/2014  21:00:00     -156.296      -62.121       -3.246       61.205       52.110       34.400     3746.108     2715.481     1183.361        1.797        0.382      168.188       32.027        0.036      347.418       26.371      857.351
06/06/2014  21:01:00     -168.754     -110.606       -1.185      110.884       68.008       41.745    12295.269     4625.143     1742.669        2.968        0.933      201.771       43.395        0.046      347.415       26.365      857.349
06/06/2014  21:02:00     -178.126      -93.326        6.758       96.141       84.798       52.968     9243.163     7190.778     2805.640        2.986        0.962      201.094       55.674        0.077      347.398       26.332      857.338
06/06/2014  21:03:00     -183.008     -122.266        0.987       84.894       66.655       39.073     7206.941     4442.882     1526.705        3.081        0.659      220.093       39.699        0.033      347.359       26.266      857.342
06/06/2014  21:04:00     -130.106      -71.725        6.683       96.413       68.225       41.634     9295.535     4654.689     1733.362        1.890        0.784      148.566       51.060        0.118      347.308       26.182      857.355
06/06/2014  21:05:00     -113.931       -2.597       -8.664       61.313       51.425       37.014     3759.329     2644.556     1370.055        1.042        0.389      113.960       30.157        0.070      347.299       26.168      857.370
06/06/2014  21:06:00      -93.186      -45.937        9.194       97.312       67.509       46.938     9469.713     4557.526     2203.184        1.355        0.812      103.893       56.900        0.300      347.255       26.091      857.378
06/06/2014  21:07:00     -212.425      -91.247        9.707      108.536       92.765       50.972    11780.090     8605.432     2598.164        3.826        1.149      231.193       55.310        0.057      347.272       26.117      857.388
06/06/2014  21:08:00     -209.919     -141.898       -2.033      123.828       80.725       56.405    15333.406     6516.509     3181.528        4.461        1.252      253.379       64.962        0.066      347.279       26.131      857.400
06/06/2014  21:09:00     -250.699      -55.954      -20.377       98.506       64.970       47.722     9703.479     4221.100     2277.360        4.130        0.810      256.868       43.114        0.028      347.259       26.095      857.416
06/06/2014  21:10:00     -250.173      -94.981       -7.729      118.860       87.962       53.465    14127.749     7737.278     2858.552        4.819        1.236      267.596       53.238        0.040      347.270       26.112      857.424
06/06/2014  21:11:00     -260.362     -149.754       -8.767      104.440       85.912       47.098    10907.752     7380.949     2218.202        5.540        1.025      300.358       48.086        0.026      347.292       26.153      857.434
06/06/2014  21:12:00     -128.104     -123.207       17.663      128.996      106.681       69.180    16640.078    11380.764     4785.888        3.235        1.640      177.738       71.376        0.161      347.273       26.121      857.428
06/06/2014  21:13:00     -271.002      -87.331        3.162      123.010      128.891       66.127    15131.491    16612.956     4372.726        5.859        1.806      284.726       70.664        0.062      347.290       26.149      857.429
06/06/2014  21:14:00     -242.582     -141.420       -0.511      136.923      120.707       71.349    18748.044    14570.278     5090.707        5.862        1.920      280.795       77.466        0.076      347.234       26.053      857.449
06/06/2014  21:15:00     -168.191     -114.661        3.741      134.038      108.178       73.176    17966.057    11702.550     5354.780        3.823        1.751      203.557       75.957        0.139      347.232       26.050      857.468
06/06/2014  21:16:00     -263.135     -103.113      -11.570      133.590      109.117       55.413    17846.197    11906.521     3070.655        5.641        1.641      282.617       58.791        0.043      347.274       26.122      857.485
06/06/2014  21:17:00     -255.393     -108.057       -0.346      117.165       77.648       59.073    13727.743     6029.255     3489.614        5.007        1.162      277.312       63.118        0.052      347.242       26.065      857.484
06/06/2014  21:18:00     -275.742     -205.829      -11.153      146.108      114.716       80.877    21347.496    13159.746     6541.104        7.978        2.052      344.092       77.330        0.051      347.322       26.204      857.464
06/06/2014  21:19:00     -330.814      -67.391      -14.459      168.265      121.452       72.292    28313.049    14750.595     5226.152        8.123        2.414      337.609       87.399        0.067      347.343       26.240      857.476
06/06/2014  21:20:00     -381.012      -81.382      -27.064      138.870      117.723       69.539    19284.944    13858.631     4835.677        9.525        1.899      389.607       61.347        0.025      347.367       26.282      857.477
06/06/2014  21:21:00     -303.634      -40.865       -7.113      151.103       98.014       55.116    22832.060     9606.765     3037.803        6.469        1.774      306.372       56.606        0.034      347.299       26.164      857.475
06/06/2014  21:22:00     -299.664     -107.969       -4.204      130.074       79.609       43.742    16919.226     6337.617     1913.337        6.332        1.259      318.521       53.595        0.028      347.257       26.090      857.491
06/06/2014  21:23:00     -286.440      -54.558       -2.152      100.162       74.845       52.835    10032.352     5601.846     2791.516        5.172        0.921      291.590       54.901        0.035      347.219       26.025      857.494
06/06/2014  21:24:00     -340.899     -103.362      -20.549      129.102       96.953       56.789    16667.431     9399.927     3225.002        7.830        1.465      356.224       64.774        0.033      347.252       26.082      857.491
06/06/2014  21:25:00     -264.227      -70.721      -27.408      160.892       95.977       60.629    25886.270     9211.559     3675.888        5.716        1.939      273.528       55.464        0.041      347.263       26.102      857.484
06/06/2014  21:26:00     -147.155     -117.170       21.648      121.232      116.254       59.018    14697.091    13515.008     3483.076        3.377        1.585      188.105       60.882        0.105      347.194       25.983      857.494
06/06/2014  21:27:00     -457.993     -266.125      -16.727      153.239      157.095       78.596    23482.289    24678.834     6177.307       16.759        2.717      529.698       83.838        0.025      347.262       26.099      857.472
06/06/2014  21:28:00     -355.128     -200.088       -3.630      144.630      148.131       81.226    20917.930    21942.792     6597.586       10.780        2.473      407.616       77.092        0.036      347.270       26.113      857.473
06/06/2014  21:29:00     -452.283     -253.672       -5.702      145.883      139.715       72.627    21281.820    19520.292     5274.715       15.750        2.304      518.565       71.601        0.019      347.341       26.236      857.478
06/06/2014  21:30:00     -435.896     -295.302      -17.201      239.023      159.424       89.007    57132.106    25415.873     7922.235       18.397        4.524      526.506      111.658        0.045      347.377       26.300      857.492
06/06/2014  21:31:00     -374.949     -182.096       -3.076      130.888      122.277       66.684    17131.725    14951.666     4446.807       10.514        1.827      416.828       67.967        0.027      347.365       26.277      857.495
06/06/2014  21:32:00     -324.482     -203.786       -3.566      189.257      107.371       70.530    35818.062    11528.547     4974.503        9.957        2.616      383.167       76.712        0.040      347.317       26.195      857.485
06/06/2014  21:33:00     -377.654     -213.384        5.327      162.410      154.105       89.171    26377.098    23748.485     7951.509       12.312        2.904      433.768       83.849        0.037      347.383       26.308      857.497
06/06/2014  21:34:00     -381.124     -181.709        6.429      157.637      143.044       80.046    24849.324    20461.457     6407.333       11.501        2.586      422.224       84.840        0.040      347.385       26.311      857.501
06/06/2014  21:35:00     -341.079     -227.969        3.558      179.329      146.169       89.786    32158.763    21365.321     8061.516       11.494        3.079      410.250      104.194        0.065      347.393       26.325      857.497
06/06/2014  21:36:00     -470.968     -273.566      -12.989      137.276      121.885       77.575    18844.823    14855.937     6017.815       16.826        1.986      544.655       76.042        0.019      347.486       26.486      857.496
06/06/2014  21:37:00     -412.566     -189.314      -17.343      145.549      120.189       63.340    21184.443    14445.441     4011.941       12.299        1.982      453.928       73.616        0.026      347.521       26.547      857.550
06/06/2014  21:38:00     -364.556     -164.121      -12.763      163.576      119.984       69.375    26757.171    14396.211     4812.859       10.297        2.298      399.796       75.411        0.036      347.477       26.470      857.579
06/06/2014  21:39:00     -204.412      -42.949       -9.920      116.122      104.211       44.589    13484.339    10860.023     1988.160        3.502        1.317      208.875       48.232        0.053      347.455       26.433      857.610
06/06/2014  21:40:00     -149.971      -89.675       15.217      110.967       68.257       58.070    12313.673     4658.959     3372.154        2.555        1.017      174.737       71.837        0.169      347.352       26.257      857.617
06/06/2014  21:41:00     -340.937      -27.894      -40.786      108.393      104.516       56.771    11749.054    10923.670     3222.944        7.228        1.295      342.077       55.344        0.026      347.362       26.272      857.626
06/06/2014  21:42:00     -205.903      -37.173      -27.106       75.839       68.309       45.417     5751.550     4666.107     2062.725        2.849        0.624      209.232       39.866        0.036      347.360       26.269      857.634
06/06/2014  21:43:00     -124.535      -34.249      -21.907       65.741       49.072       39.750     4321.943     2408.058     1580.057        1.273        0.416      129.158       21.121        0.027      347.302       26.172      857.682
06/06/2014  21:44:00     -124.426       15.382      -25.290       75.525       53.553       44.690     5703.973     2867.871     1997.188        1.346        0.528      125.373       39.964        0.102      347.220       26.030      857.683
06/06/2014  21:45:00     -160.523       21.914      -17.954       73.603      105.389       41.061     5417.460    11106.758     1686.016        2.239        0.911      162.011       34.527        0.045      347.199       25.992      857.701
06/06/2014  21:46:00     -176.861      -15.782       -2.649       90.846      103.112       45.723     8253.025    10632.133     2090.570        2.625        1.049      177.564       37.040        0.044      347.091       25.808      857.731
06/06/2014  21:47:00     -186.621      -65.166      -18.674      117.637       88.423       48.460    13838.360     7818.618     2348.363        3.171        1.200      197.672       49.019        0.061      347.031       25.703      857.763
06/06/2014  21:48:00      -43.015        3.996       14.042       66.757       54.581       34.581     4456.502     2979.121     1195.871        0.535        0.432       43.200       34.557        0.640      346.938       25.545      857.774
06/06/2014  21:49:00     -124.505       79.455       -9.269       74.694       61.912       42.562     5579.208     3833.110     1811.530        1.656        0.561      147.698       40.328        0.075      347.044       25.726      857.792
06/06/2014  21:50:00     -101.368       17.492      -17.745       38.460       37.963       24.640     1479.187     1441.220      607.125        0.721        0.176      102.867       16.992        0.027      347.041       25.723      857.805
06/06/2014  21:51:00     -153.989      -53.192        3.722       90.759       63.730       40.559     8237.217     4061.467     1645.062        2.025        0.697      162.917       41.135        0.064      346.986       25.627      857.809
06/06/2014  21:52:00     -296.442      -30.661      -38.506       76.817       79.699       42.002     5900.882     6351.880     1764.173        5.216        0.701      298.023       39.712        0.018      347.130       25.872      857.825
06/06/2014  21:53:00     -177.759      -13.675       -4.419       73.374       71.568       41.856     5383.814     5121.952     1751.910        2.203        0.613      178.284       33.675        0.036      347.038       25.715      857.838
06/06/2014  21:54:00     -194.131      -10.189      -18.829       67.076       49.534       34.449     4499.159     2453.618     1186.701        2.314        0.407      194.398       35.932        0.034      347.052       25.739      857.862
06/06/2014  21:55:00     -118.670      -30.675       -5.138       72.995       39.156       24.198     5328.317     1533.173      585.521        1.125        0.372      122.571       28.137        0.053      346.948       25.563      857.888
06/06/2014  21:56:00      -97.576      -51.298       -0.826       54.021       48.182       26.156     2918.305     2321.534      684.124        0.904        0.296      110.239       24.591        0.050      346.948       25.562      857.908
06/06/2014  21:57:00     -198.048      -75.110       -6.869       62.196       43.749       31.381     3868.377     1914.013      984.739        2.584        0.338      211.813       29.200        0.019      347.034       25.709      857.946
06/06/2014  21:58:00     -167.927      -55.200       -0.592       82.155       70.371       39.618     6749.490     4952.127     1569.565        2.226        0.664      176.767       32.145        0.033      347.012       25.672      857.969
06/06/2014  21:59:00     -256.941      -61.458       -8.051      115.919      102.513       56.877    13437.235    10508.992     3235.048        4.852        1.359      264.189       53.771        0.041      347.075       25.777      857.982
06/06/2014  22:00:00     -244.073      -46.536       -8.100       93.746       80.754       47.650     8788.240     6521.148     2270.524        3.969        0.879      248.470       33.178        0.018      347.174       25.949      858.006
06/06/2014  22:01:00     -255.560      -27.028      -18.624      129.239      116.642       61.609    16702.756    13605.389     3795.671        5.024        1.705      256.985       74.156        0.083      347.182       25.961      858.025
06/06/2014  22:02:00     -265.418      -44.378      -25.179      118.815       91.973       43.805    14116.967     8459.090     1918.918        4.877        1.225      269.102       47.905        0.032      347.158       25.920      858.040
06/06/2014  22:03:00     -223.963      -67.351      -17.853       69.631       70.699       41.563     4848.417     4998.318     1727.496        3.329        0.579      233.870       31.816        0.019      347.139       25.887      858.052
06/06/2014  22:04:00     -307.763      -66.781      -11.084      130.880      105.328       55.059    17129.506    11094.042     3031.519        6.527        1.563      314.925       57.765        0.034      347.234       26.051      858.057
06/06/2014  22:05:00     -316.987      -50.504      -18.258      125.054       69.832       53.224    15638.454     4876.561     2832.762        6.335        1.167      320.985       61.897        0.037      347.242       26.064      858.080
06/06/2014  22:06:00     -314.841      -20.055      -19.065      179.738      134.968       56.829    32305.605    18216.233     3229.570        7.681        2.688      315.479       69.837        0.049      347.183       25.964      858.108
06/06/2014  22:07:00     -135.832      -16.446       -5.993      105.486       84.157       46.336    11127.227     7082.385     2147.026        1.955        1.018      136.824       45.728        0.112      347.131       25.876      858.124
06/06/2014  22:08:00     -155.429      -13.965       -3.966       65.525       69.127       39.714     4293.562     4778.498     1577.179        1.751        0.532      156.055       37.561        0.058      347.130       25.874      858.143
06/06/2014  22:09:00     -189.263      -17.456      -14.544       80.022       60.088       33.570     6403.597     3610.594     1126.965        2.374        0.557      190.067       33.617        0.031      347.172       25.947      858.145
06/06/2014  22:10:00     -147.427       -9.366       -4.298       81.680       46.425       31.542     6671.599     2155.326      994.873        1.583        0.491      147.724       34.491        0.055      347.118       25.854      858.170
06/06/2014  22:11:00     -176.089     -102.446       -5.535       82.888       75.085       52.604     6870.467     5637.735     2767.181        2.840        0.764      203.721       40.941        0.040      347.083       25.792      858.189
06/06/2014  22:12:00     -221.411     -155.796      -11.099      125.432       92.065       77.681    15733.126     8475.881     6034.261        5.182        1.512      270.731       77.937        0.083      347.133       25.877      858.190
06/06/2014  22:13:00     -136.522      -68.100       17.520       94.474       80.118       52.798     8925.408     6418.948     2787.598        2.085        0.907      152.564       55.616        0.133      347.013       25.673      858.200
06/06/2014  22:14:00     -238.553      -47.861       -6.579      154.262       92.957       59.444    23796.752     8640.922     3533.617        4.760        1.799      243.306       67.573        0.077      347.100       25.823      858.198
06/06/2014  22:15:00     -395.776      -83.878      -15.196      136.212      117.751       68.009    18553.689    13865.185     4625.206       10.047        1.852      404.567       61.210        0.023      347.122       25.858      858.214
06/06/2014  22:16:00     -334.404     -155.862      -27.024      119.075       92.870       48.728    14178.758     8624.870     2374.393        8.101        1.259      368.943       43.301        0.014      347.147       25.900      858.227
06/06/2014  22:17:00     -203.105      -69.563       -5.090      108.142       96.429       55.062    11694.746     9298.616     3031.824        3.507        1.201      214.688       61.503        0.082      347.081       25.790      858.219
06/06/2014  22:18:00     -183.248      -23.048        2.251      107.877       96.963       52.456    11637.348     9401.794     2751.664        2.895        1.190      184.692       49.405        0.072      347.057       25.748      858.226
06/06/2014  22:19:00     -175.749      -37.982        7.493      131.085       76.968       58.612    17183.254     5924.120     3435.393        2.946        1.327      179.806       65.023        0.131      347.024       25.691      858.240
06/06/2014  22:20:00     -114.928       24.258       14.241      161.370       83.673       69.636    26040.292     7001.106     4849.130        2.594        1.895      117.460       82.873        0.498      347.050       25.736      858.241
06/06/2014  22:21:00     -219.889      -90.019      -13.742       75.734       76.899       35.711     5735.660     5913.425     1275.304        3.478        0.646      237.602       27.403        0.013      347.064       25.760      858.260
06/06/2014  22:22:00     -249.157        2.396      -12.654       91.272       90.418       47.658     8330.494     8175.446     2271.250        4.051        0.939      249.169       34.760        0.019      347.072       25.772      858.260
06/06/2014  22:23:00     -118.852      -44.078       12.391      119.948       63.473       48.867    14387.476     4028.825     2388.001        1.851        1.040      126.762       57.923        0.209      346.977       25.611      858.260
06/06/2014  22:24:00     -192.770      -76.823      -18.177       66.069       77.091       37.377     4365.107     5943.004     1397.060        2.755        0.585      207.514       29.372        0.020      347.021       25.685      858.269
06/06/2014  22:25:00     -152.802      -57.923       -0.173       94.616       80.669       35.816     8952.111     6507.528     1282.816        2.172        0.837      163.413       38.842        0.056      346.971       25.601      858.277
06/06/2014  22:26:00     -275.368      -78.118      -12.371      129.788       92.190       51.355    16844.953     8499.000     2637.327        5.503        1.399      286.234       55.787        0.038      346.976       25.608      858.286
06/06/2014  22:27:00     -195.602     -122.839       -3.481      127.911       70.905       50.374    16361.248     5027.569     2537.579        3.864        1.196      230.975       56.147        0.059      346.949       25.563      858.287
06/06/2014  22:28:00     -122.156     -103.501       -2.509      100.780       76.959       52.938    10156.676     5922.732     2802.464        2.226        0.944      160.108       52.401        0.107      346.902       25.481      858.292
06/06/2014  22:29:00     -122.844      -57.493        3.665       90.081       57.932       36.218     8114.639     3356.150     1311.723        1.559        0.639      135.632       38.947        0.082      346.844       25.382      858.294
06/06/2014  22:30:00     -219.105      -52.379        1.705      124.695       82.350       48.101    15548.926     6781.510     2313.668        3.769        1.232      225.279       42.373        0.035      346.827       25.351      858.306
06/06/2014  22:31:00     -178.630     -116.951        8.827       99.357      121.808       60.247     9871.869    14837.305     3629.740        3.700        1.417      213.509       57.490        0.073      346.820       25.341      858.310
06/06/2014  22:32:00     -237.027     -170.447      -14.124      158.677      103.879       72.462    25178.447    10790.780     5250.705        6.332        2.061      291.949       77.809        0.071      346.852       25.393      858.299
06/06/2014  22:33:00     -208.061     -155.034       -0.871      157.011      132.816       80.243    24652.309    17640.070     6438.889        5.802        2.437      259.470       82.338        0.101      346.870       25.426      858.310
06/06/2014  22:34:00     -193.722     -166.859        3.580      142.359       90.720       66.418    20266.184     8230.043     4411.285        4.914        1.645      255.676       70.979        0.077      346.885       25.452      858.292
06/06/2014  22:35:00     -329.522     -245.531       -4.975      153.762       97.952       78.950    23642.861     9594.578     6233.058       10.418        1.974      410.938       83.319        0.041      346.921       25.513      858.285
06/06/2014  22:36:00     -191.880      -98.764       12.786      148.706       72.489       51.632    22113.332     5254.638     2665.823        3.838        1.502      215.806       72.385        0.113      346.890       25.461      858.285
06/06/2014  22:37:00     -285.297     -117.599       -3.726      107.050       79.549       53.914    11459.764     6328.025     2906.694        5.796        1.035      308.583       52.417        0.029      346.890       25.459      858.298
06/06/2014  22:38:00     -205.590     -106.132        1.557       89.211       75.276       57.870     7958.540     5666.436     3348.985        3.525        0.849      231.368       50.186        0.047      346.863       25.413      858.304
06/06/2014  22:39:00     -159.310      -89.910        8.014      111.671       85.342       55.302    12470.326     7283.287     3058.318        2.817        1.141      182.930       56.013        0.094      346.822       25.344      858.308
06/06/2014  22:40:00     -209.942     -108.065        2.331       99.590       78.151       48.495     9918.154     6107.599     2351.721        3.706        0.919      236.122       49.651        0.044      346.797       25.301      858.304
06/06/2014  22:41:00     -139.618      -72.529       -3.288       94.779       67.202       51.731     8983.121     4516.078     2676.046        2.047        0.809      157.333       52.895        0.113      346.781       25.275      858.304
06/06/2014  22:42:00     -138.490     -125.838        5.748      114.197       80.792       60.178    13040.934     6527.339     3621.345        2.911        1.159      187.122       63.881        0.117      346.775       25.262      858.300
06/06/2014  22:43:00     -174.284      -78.314        4.526       95.926      100.839       47.800     9201.761    10168.539     2284.875        2.909        1.083      191.071       49.174        0.066      346.732       25.188      858.311
06/06/2014  22:44:00     -211.374      -71.122       -3.052       78.321       72.564       46.233     6134.194     5265.476     2137.499        3.164        0.677      223.019       44.092        0.039      346.720       25.168      858.324
06/06/2014  22:45:00     -111.607      -64.518        3.795       63.843       55.342       41.538     4075.892     3062.746     1725.413        1.275        0.443      128.913       38.723        0.090      346.673       25.090      858.337
06/06/2014  22:46:00      -61.950      -36.953       10.542       56.936       40.084       25.010     3241.759     1606.693      625.494        0.539        0.274       72.135       28.978        0.161      346.630       25.017      858.339
06/06/2014  22:47:00      -73.877      -15.812        7.390       49.622       66.568       26.771     2462.376     4431.295      716.666        0.668        0.381       75.550       25.941        0.118      346.631       25.015      858.339
06/06/2014  22:48:00     -141.659       29.199       -7.598       35.182       29.675       21.999     1237.799      880.629      483.959        1.179        0.130      144.637       11.721        0.007      346.658       25.064      858.359
06/06/2014  22:49:00      -86.046      -28.696       -3.201       37.373       32.056       19.779     1396.734     1027.570      391.206        0.553        0.141       90.705       20.569        0.051      346.585       24.940      858.367
06/06/2014  22:50:00      -66.043        5.053        7.542       65.570       36.926       21.406     4299.404     1363.517      458.231        0.528        0.306       66.236       27.242        0.169      346.527       24.838      858.352
06/06/2014  22:51:00     -141.378       13.530      -14.792       40.679       33.422       19.322     1654.779     1117.051      373.335        1.177        0.157      142.024       16.028        0.013      346.622       25.000      858.351
06/06/2014  22:52:00      -90.063      -28.651        4.861       52.411       35.145       23.437     2746.924     1235.140      549.278        0.674        0.227       94.511       26.557        0.079      346.608       24.977      858.344
06/06/2014  22:53:00      -21.235      -12.851       12.910       45.997       25.680       19.058     2115.709      659.442      363.211        0.196        0.157       24.821       22.264        0.805      346.516       24.819      858.346
06/06/2014  22:54:00      -80.449      -47.217       -4.435       44.686       29.966       17.443     1996.871      897.966      304.253        0.596        0.160       93.282       16.751        0.032      346.566       24.906      858.345
06/06/2014  22:55:00      -70.806       -1.521        0.176       33.850       32.929       15.523     1145.812     1084.350      240.977        0.374        0.124       70.822        6.693        0.009      346.502       24.796      858.343
06/06/2014  22:56:00     -114.369      -55.834      -12.446       58.052       40.141       24.242     3370.006     1611.284      587.661        1.096        0.278      127.270       19.301        0.023      346.523       24.832      858.330
06/06/2014  22:57:00      -63.732      -45.878       -3.216       59.383       38.809       26.165     3526.374     1506.168      684.594        0.595        0.286       78.527       27.143        0.119      346.496       24.783      858.320
06/06/2014  22:58:00      -87.000      -36.584        3.309       49.966       40.548       26.959     2496.576     1644.144      726.781        0.689        0.243       94.379       22.731        0.058      346.464       24.728      858.316
06/06/2014  22:59:00     -128.385      -52.508      -12.689       33.755       37.120       18.345     1139.419     1377.906      336.540        1.113        0.143      138.707        6.947        0.003      346.542       24.865      858.317
06/06/2014  23:00:00     -119.274      -33.748        5.024       47.653       24.777       21.829     2270.842      613.923      476.496        0.938        0.168      123.956       23.329        0.035      346.448       24.704      858.315
06/06/2014  23:01:00      -61.134      -47.438       -1.084       22.185       26.260       13.207      492.171      689.577      174.426        0.367        0.068       77.381       10.166        0.017      346.515       24.819      858.305
06/06/2014  23:02:00      -74.337      -27.623       -6.398       18.362       26.642       12.796      337.163      709.811      163.745        0.377        0.061       79.303        8.308        0.011      346.513       24.813      858.306
06/06/2014  23:03:00      -49.555      -50.181       -3.054       29.381       18.881       13.318      863.256      356.499      177.368        0.319        0.070       70.525        8.852        0.016      346.463       24.725      858.310
06/06/2014  23:04:00      -30.004      -75.706       -2.620       26.584       28.752       15.966      706.714      826.651      254.911        0.421        0.089       81.435       13.912        0.029      346.433       24.675      858.299
06/06/2014  23:05:00       -6.533      -34.909        3.569       27.578       26.656       23.058      760.564      710.540      531.686        0.164        0.100       35.515       17.614        0.246      346.418       24.651      858.287
06/06/2014  23:06:00      -43.733      -45.363        2.650       46.795       26.228       14.047     2189.793      687.925      197.321        0.353        0.154       63.011        8.846        0.020      346.495       24.781      858.287
06/06/2014  23:07:00      -31.130      -66.467        4.742       32.461       57.573       19.756     1053.735     3314.705      390.289        0.508        0.238       73.396       27.375        0.139      346.359       24.551      858.275
06/06/2014  23:08:00      -26.986      -77.688        2.356       43.544       33.162       23.736     1896.122     1099.744      563.396        0.516        0.178       82.241       19.389        0.056      346.411       24.641      858.274
06/06/2014  23:09:00      -40.260     -113.102        2.121       23.321       34.931       14.592      543.873     1220.160      212.924        0.820        0.099      120.054       10.904        0.008      346.499       24.791      858.264
06/06/2014  23:10:00      -15.165      -67.874        9.355       46.840       51.005       27.348     2193.961     2601.485      747.914        0.523        0.277       69.548       26.921        0.150      346.511       24.812      858.263
06/06/2014  23:11:00      -18.486      -21.165        8.344       27.696       14.944       13.913      767.065      223.314      193.572        0.102        0.059       28.101       11.265        0.161      346.247       24.359      858.253
06/06/2014  23:12:00       12.144      -29.312        0.282       34.119       16.899       16.101     1164.097      285.571      259.233        0.136        0.085       31.728       14.289        0.203      346.280       24.413      858.246
06/06/2014  23:13:00      -98.758      -50.008      -15.632       77.571       33.450       28.848     6017.196     1118.918      832.214        1.023        0.398      110.698       38.879        0.123      346.455       24.714      858.246
06/06/2014  23:14:00      -25.282      -56.620      -10.418       27.545       29.844       14.176      758.702      890.673      200.970        0.290        0.093       62.008       11.722        0.036      346.290       24.433      858.253
06/06/2014  23:15:00      -22.713      -58.969        1.106       18.242       63.105       15.686      332.774     3982.178      246.037        0.428        0.228       63.192       16.252        0.066      346.312       24.467      858.258
06/06/2014  23:16:00      -73.089      -15.580       -7.272       41.558       33.532       14.842     1727.066     1124.393      220.272        0.435        0.154       74.732       16.365        0.048      346.177       24.239      858.266
06/06/2014  23:17:00       19.532      -52.911       17.699       25.644       30.468       17.934      657.632      928.322      321.614        0.270        0.095       56.401       17.345        0.095      346.214       24.301      858.252
06/06/2014  23:18:00       -3.619      -67.767        1.527       27.982       30.651       17.746      782.971      939.480      314.925        0.332        0.102       67.863        9.628        0.020      346.221       24.312      858.243
06/06/2014  23:19:00      -25.123      -76.310        7.335       39.419       31.351       18.430     1553.881      982.888      339.664        0.469        0.144       80.339       10.515        0.017      346.297       24.443      858.241
06/06/2014  23:20:00      -36.283      -68.377       -4.950       33.381       28.514       22.860     1114.299      813.025      522.569        0.423        0.122       77.407       15.757        0.041      346.259       24.377      858.233
06/06/2014  23:21:00     -114.279      -71.873       -3.401       46.590       38.222       23.740     2170.610     1460.900      563.566        1.122        0.210      135.001       20.348        0.023      346.265       24.389      858.225
06/06/2014  23:22:00      -52.203      -24.001       -1.611       30.287       33.087       15.104      917.315     1094.757      228.137        0.277        0.112       57.456       13.411        0.054      346.178       24.237      858.230
06/06/2014  23:23:00     -100.940     -100.238       -7.833       77.361       36.033       23.256     5984.706     1298.386      540.836        1.406        0.391      142.255       25.575        0.032      346.376       24.579      858.230
06/06/2014  23:24:00      -62.669      -39.918       -1.670       39.185       35.685       21.463     1535.440     1273.408      460.673        0.440        0.163       74.303       22.494        0.092      346.231       24.329      858.240
06/06/2014  23:25:00      -19.988      -59.717        0.543       22.991       30.958       19.372      528.584      958.414      375.277        0.291        0.093       62.973       15.742        0.062      346.292       24.434      858.229
06/06/2014  23:26:00      -43.691     -102.458       -2.728       30.512       30.507       19.334      930.960      930.668      373.802        0.732        0.112      111.385       11.537        0.011      346.400       24.620      858.216
06/06/2014  23:27:00      -38.166      -22.197       -6.221       40.824       28.016       14.253     1666.626      784.913      203.147        0.232        0.133       44.151       16.045        0.132      346.293       24.436      858.217
06/06/2014  23:28:00      -48.442      -41.475       19.593       50.435       79.141       32.782     2543.703     6263.282     1074.663        0.716        0.494       63.771       32.636        0.262      346.325       24.491      858.220
06/06/2014  23:29:00        1.665       16.749       21.520       51.270       20.739       20.278     2628.627      430.101      411.186        0.211        0.173       16.831        9.413        0.313      346.273       24.403      858.226
06/06/2014  23:30:00        4.001       18.778       11.864       29.294       12.318       11.401      858.166      151.744      129.980        0.082        0.057       19.199       12.625        0.432      346.182       24.245      858.226
06/06/2014  23:31:00       46.543       32.061       16.130       25.742       32.510       19.158      662.627     1056.884      367.024        0.277        0.104       56.517       20.568        0.132      345.893       23.750      858.224
06/06/2014  23:32:00       -2.153        4.210       22.454       15.754       22.730       11.854      248.175      516.666      140.520        0.072        0.045        4.729       10.297        4.741      345.550       23.162      858.228
06/06/2014  23:33:00       44.289       15.131       -6.708       32.145       14.217       17.556     1033.312      202.123      308.219        0.189        0.077       46.802        7.714        0.027      345.628       23.295      858.241
06/06/2014  23:34:00       23.479      -38.415      -11.762       14.805       11.575       12.862      219.174      133.981      165.419        0.134        0.026       45.022        7.466        0.027      345.654       23.338      858.233
06/06/2014  23:35:00       11.453       -4.845        7.215       18.553       13.981       12.871      344.226      195.477      165.657        0.046        0.035       12.435        8.698        0.489      345.636       23.307      858.231
06/06/2014  23:36:00       47.747        6.297       11.977       21.888       14.802       15.349      479.076      219.099      235.582        0.170        0.047       48.161       12.800        0.071      345.626       23.289      858.211
06/06/2014  23:37:00       43.080       51.035       16.683       17.979       15.521       28.459      323.232      240.907      809.898        0.306        0.069       66.786       13.274        0.040      345.534       23.134      858.200
06/06/2014  23:38:00       68.397       40.333       -0.957       26.910       22.190       12.230      724.131      492.410      149.565        0.384        0.068       79.403        8.229        0.011      345.718       23.449      858.199
06/06/2014  23:39:00       53.308      -13.464        6.882       21.047       18.169        8.898      442.985      330.126       79.179        0.196        0.043       54.982       10.436        0.036      345.914       23.785      858.185
06/06/2014  23:40:00        9.684       52.801       46.622       22.259       20.123       15.089      495.443      404.945      227.689        0.309        0.056       53.681       13.456        0.063      345.725       23.461      858.191
06/06/2014  23:41:00       18.496      -10.718       16.051       14.771       44.477       22.323      218.177     1978.175      498.328        0.170        0.135       21.377       29.452        1.898      345.619       23.280      858.199
06/06/2014  23:42:00      -11.307      -22.970       -2.836       12.791       22.419        8.789      163.613      502.609       77.254        0.070        0.037       25.602        6.587        0.066      345.697       23.412      858.196
06/06/2014  23:43:00       -3.085      -10.418       -2.971        5.972        9.073        3.293       35.663       82.318       10.842        0.013        0.006       10.865        4.029        0.138      345.608       23.261      858.194
06/06/2014  23:44:00      -35.644       -1.044       -6.314        9.696        8.796        4.394       94.017       77.372       19.305        0.075        0.010       35.659        2.864        0.006      345.756       23.511      858.216
06/06/2014  23:45:00       18.364      -34.002       -2.960       18.905       12.519        9.986      357.401      156.733       99.711        0.106        0.031       38.645       10.130        0.069      345.918       23.793      858.212
06/06/2014  23:46:00      -23.669      -13.963       -4.455       25.489       15.183        9.364      649.678      230.516       87.687        0.087        0.048       27.481        9.245        0.113      345.725       23.461      858.202
06/06/2014  23:47:00      -38.476       -1.787       -1.203       10.364       12.812        6.158      107.402      164.141       37.926        0.090        0.015       38.517        7.575        0.039      345.638       23.312      858.202
06/06/2014  23:48:00      -38.114      -23.513       -4.004       21.621       15.308        8.688      467.476      234.340       75.481        0.140        0.039       44.783        8.088        0.033      345.425       22.947      858.199
06/06/2014  23:49:00      -34.901      -49.551        3.743       26.989       30.406       14.979      728.425      924.509      224.365        0.278        0.094       60.609       10.008        0.027      345.726       23.462      858.183
06/06/2014  23:50:00      -21.008      -23.803        6.218       20.539       22.402       13.691      421.841      501.869      187.456        0.108        0.056       31.748       10.837        0.117      345.529       23.125      858.176
06/06/2014  23:51:00      -65.110      -36.775        0.102       49.621       36.760       14.920     2462.203     1351.298      222.617        0.481        0.202       74.778       20.394        0.074      345.777       23.549      858.185
06/06/2014  23:52:00     -111.388      -78.859      -12.101       39.863       23.833       13.552     1589.030      568.009      183.649        1.056        0.117      136.477        4.218        0.001      345.982       23.903      858.184
06/06/2014  23:53:00     -100.152      -43.853       -9.111       20.068       16.614       10.369      402.731      276.017      107.512        0.641        0.039      109.332        8.537        0.006      345.904       23.769      858.186
06/06/2014  23:54:00      -84.400      -43.978        2.224       41.759       31.583       17.485     1743.800      997.471      305.727        0.605        0.152       95.171       19.748        0.043      345.724       23.459      858.184
06/06/2014  23:55:00      -42.868      -52.773        6.168       41.686       39.539       26.232     1737.706     1563.371      688.102        0.432        0.199       67.990       27.856        0.168      345.823       23.629      858.196
06/06/2014  23:56:00      -57.657      -71.061        4.424       49.893       46.399       30.315     2489.310     2152.858      919.016        0.698        0.278       91.510       25.593        0.078      345.986       23.909      858.189
06/06/2014  23:57:00     -133.650      -71.842       -7.917       50.386       43.882       24.972     2538.744     1925.657      623.582        1.409        0.254      151.735       26.437        0.030      345.992       23.919      858.194
06/06/2014  23:58:00      -84.354      -96.531        0.915       45.828       53.934       28.302     2100.213     2908.856      800.984        1.112        0.291      128.195       25.585        0.040      345.891       23.746      858.191
06/06/2014  23:59:00     -110.130      -61.724       -3.978       71.885       44.259       26.472     5167.463     1958.858      700.755        1.189        0.391      126.247       35.474        0.079      345.925       23.805      858.194
